[[{"header":{"parameterUnit":"m.s-1","parameterCategory":1,"la1":31.0,"la2":29.5877,"lo1":-88.7671,"lo2":-86.6584,"dy":0.0162,"dx":0.0185,"nx":115,"ny":88,"refTime":"2024-03-26T12:00:00:Z","depth":0,"parameterNumber":2,"parameterNumberName":"U-component_of_WINDS"},"data":[0.0,0.0,0.0,0.0,0.0,0.0,0.0,0.0,0.0,0.0,0.0,0.0,0.0,0.0,0.0,0.0,0.0,0.0,0.0,0.0,0.0,0.0,0.0,0.0,0.0,0.0,0.0,0.0,0.0,0.0,0.0,0.0,0.0,0.0,0.0,0.0,0.0,0.0,0.0,0.0,0.0,0.0,0.0,0.0,0.0,0.0,0.0,0.0,0.0,0.0,0.0,0.0,0.0,0.0,0.0,0.0,0.0,0.0,0.0,0.0,0.0,0.0,0.0,0.0,0.0,0.0,0.0,0.0,0.0,0.0,0.0,0.0,0.0,0.0,0.0,0.0,0.0,0.0,0.0,0.0,0.0,0.0,0.0,0.0,0.0,0.0,0.0,0.0,0.0,0.0,0.0,0.0,0.0,0.0,0.0,0.0,0.0,0.0,0.0,0.0,0.0,0.0,0.0,0.0,0.0,0.0,0.0,0.0,0.0,0.0,0.0,0.0,0.0,0.0,0.0,0.0,0.0,0.0,0.0,0.0,0.0,0.0,0.0,0.0,0.0,0.0,0.0,0.0,0.0,0.0,0.0,0.0,0.0,0.0,0.0,0.0,0.0,0.0,0.0,0.0,0.0,0.0,0.0,0.0,0.0,0.0,0.0,0.0,0.0,0.0,0.0,0.0,0.0,0.0,0.0,0.0,0.0,0.0,0.0,0.0,0.0,0.0,0.0,0.0,0.0,0.0,0.0,0.0,0.0,0.0,0.0,0.0,0.0,0.0,0.0,0.0,0.0,0.0,0.0,0.0,0.0,0.0,0.0,0.0,0.0,0.0,0.0,0.0,0.0,0.0,0.0,0.0,0.0,0.0,0.0,0.0,0.0,0.0,0.0,0.0,0.0,0.0,0.0,0.0,0.0,0.0,0.0,0.0,0.0,0.0,0.0,0.0,0.0,0.0,0.0,0.0,0.0,0.0,0.0,0.0,0.0,0.0,0.0,0.0,0.0,0.0,0.0,0.0,0.0,0.0,0.0,0.0,0.0,0.0,0.0,0.0,0.0,0.0,0.0,0.0,0.0,0.0,0.0,0.0,0.0,0.0,0.0,0.0,0.0,0.0,0.0,0.0,0.0,0.0,0.0,0.0,0.0,0.0,0.0,0.0,0.0,0.0,0.0,0.0,0.0,0.0,0.0,0.0,0.0,0.0,0.0,0.0,0.0,0.0,0.0,0.0,0.0,0.0,0.0,0.0,0.0,0.0,0.0,0.0,0.0,0.0,0.0,0.0,0.0,0.0,0.0,0.0,0.0,0.0,0.0,0.0,0.0,0.0,0.0,0.0,0.0,0.0,0.0,0.0,0.0,0.0,0.0,0.0,0.0,0.0,0.0,0.0,0.0,0.0,0.0,0.0,0.0,0.0,0.0,0.0,0.0,0.0,0.0,0.0,0.0,0.0,0.0,0.0,0.0,0.0,0.0,0.0,0.0,0.0,0.0,0.0,0.0,0.0,0.0,0.0,0.0,0.0,0.0,0.0,0.0,0.0,0.0,0.0,0.0,0.0,0.0,0.0,0.0,0.0,0.0,0.0,0.0,0.0,0.0,0.0,0.0,0.0,0.0,0.0,0.0,0.0,0.0,0.0,0.0,0.0,0.0,0.0,0.0,0.0,0.0,0.0,0.0,0.0,0.0,0.0,0.0,0.0,0.0,0.0,0.0,0.0,0.0,0.0,0.0,0.0,0.0,0.0,0.0,0.0,0.0,0.0,0.0,0.0,0.0,0.0,0.0,0.0,0.0,0.0,0.0,0.0,0.0,0.0,0.0,0.0,0.0,0.0,0.0,0.0,0.0,0.0,0.0,0.0,0.0,0.0,0.0,0.0,0.0,0.0,0.0,0.0,0.0,0.0,0.0,0.0,0.0,0.0,0.0,0.0,0.0,0.0,0.0,0.0,0.0,0.0,0.0,0.0,0.0,0.0,0.0,0.0,0.0,0.0,0.0,0.0,0.0,0.0,0.0,0.0,0.0,0.0,0.0,0.0,0.0,0.0,0.0,0.0,0.0,0.0,0.0,0.0,0.0,0.0,0.0,0.0,0.0,0.0,0.0,0.0,0.0,0.0,0.0,0.0,0.0,0.0,0.0,0.0,0.0,0.0,0.0,0.0,0.0,0.0,0.0,0.0,0.0,0.0,0.0,0.0,0.0,0.0,0.0,0.0,0.0,0.0,0.0,0.0,0.0,0.0,0.0,0.0,0.0,0.0,0.0,0.0,0.0,0.0,0.0,0.0,0.0,0.0,0.0,0.0,0.0,0.0,0.0,0.0,0.0,0.0,0.0,0.0,0.0,0.0,0.0,0.0,0.0,0.0,0.0,0.0,0.0,0.0,0.0,0.0,0.0,0.0,0.0,0.0,0.0,0.0,0.0,0.0,0.0,0.0,0.0,0.0,0.0,0.0,0.0,0.0,0.0,0.0,0.0,0.0,0.0,0.0,0.0,0.0,0.0,0.0,0.0,0.0,0.0,0.0,0.0,0.0,0.0,0.0,0.0,0.0,0.0,0.0,0.0,0.0,0.0,0.0,0.0,0.0,0.0,0.0,0.0,0.0,0.0,0.0,0.0,0.0,0.0,0.0,0.0,0.0,0.0,0.0,0.0,0.0,0.0,0.0,0.0,0.0,0.0,0.0,0.0,0.0,0.0,0.0,0.0,0.0,0.0,0.0,0.0,0.0,0.0,0.0,0.0,0.0,0.0,0.0,0.0,0.0,0.0,0.0,0.0,0.0,0.0,0.0,0.0,0.0,0.0,0.0,0.0,0.0,0.0,0.0,0.0,0.0,0.0,0.0,0.0,0.0,0.0,0.0,0.0,0.0,0.0,0.0,0.0,0.0,0.0,0.0,0.0,0.0,0.0,0.0,0.0,0.0,0.0,0.0,0.0,0.0,0.0,0.0,0.0,0.0,0.0,0.0,0.0,0.0,0.0,0.0,0.0,0.0,0.0,0.0,0.0,0.0,0.0,0.0,0.0,0.0,0.0,0.0,0.0,0.0,0.0,0.0,0.0,0.0,0.0,0.0,0.0,0.0,0.0,0.0,0.0,0.0,0.0,0.0,0.0,0.0,0.0,0.0,0.0,0.0,0.0,0.0,0.0,0.0,0.0,0.0,0.0,0.0,0.0,0.0,0.0,0.0,0.0,0.0,0.0,0.0,0.0,0.0,0.0,0.0,0.0,0.0,0.0,0.0,0.0,0.0,0.0,0.0,0.0,0.0,0.0,0.0,0.0,0.0,0.0,0.0,0.0,0.0,0.0,0.0,0.0,0.0,0.0,0.0,0.0,0.0,0.0,0.0,0.0,0.0,0.0,0.0,0.0,0.0,0.0,0.0,0.0,0.0,0.0,0.0,0.0,0.0,0.0,0.0,0.0,0.0,0.0,0.0,0.0,0.0,0.0,0.0,0.0,0.0,0.0,0.0,0.0,0.0,0.0,0.0,0.0,0.0,0.0,0.0,0.0,0.0,0.0,0.0,0.0,0.0,0.0,0.0,0.0,0.0,0.0,0.0,0.0,0.0,0.0,0.0,0.0,0.0,0.0,0.0,0.0,0.0,0.0,0.0,0.0,0.0,0.0,0.0,0.0,0.0,0.0,0.0,0.0,0.0,0.0,0.0,0.0,0.0,0.0,0.0,0.0,0.0,0.0,0.0,0.0,0.0,0.0,0.0,0.0,0.0,0.0,0.0,0.0,0.0,0.0,0.0,0.0,0.0,0.0,0.0,0.0,0.0,0.0,0.0,0.0,0.0,0.0,0.0,0.0,0.0,0.0,0.0,0.0,0.0,0.0,0.0,0.0,0.0,0.0,0.0,0.0,0.0,0.0,0.0,0.0,0.0,0.0,0.0,0.0,0.0,0.0,0.0,0.0,0.0,0.0,0.0,0.0,0.0,0.0,0.0,0.0,0.0,0.0,0.0,0.0,0.0,0.0,0.0,0.0,0.0,0.0,0.0,0.0,0.0,0.0,0.0,0.0,0.0,0.0,0.0,0.0,0.0,0.0,0.0,0.0,0.0,0.0,0.0,0.0,0.0,0.0,0.0,0.0,0.0,0.0,0.0,0.0,0.0,0.0,0.0,0.0,0.0,0.0,0.0,0.0,0.0,0.0,0.0,0.0,0.0,0.0,0.0,0.0,0.0,0.0,0.0,0.0,0.0,0.0,0.0,0.0,0.0,0.0,0.0,0.0,0.0,0.0,0.0,0.0,0.0,0.0,0.0,0.0,0.0,0.0,0.0,1.4496,0.0,0.0,0.0,0.0,0.0,0.0,0.0,0.0,0.0,0.0,0.0,0.0,0.0,0.0,0.0,0.0,0.0,0.0,0.0,0.0,0.0,0.0,0.0,0.0,0.0,0.0,0.0,0.0,0.0,0.0,0.0,0.0,0.0,0.0,0.0,0.0,0.0,0.0,0.0,0.0,0.0,0.0,0.0,0.0,0.0,0.0,0.0,0.0,0.0,0.0,0.0,0.0,0.0,0.0,0.0,0.0,0.0,0.0,0.0,0.0,0.0,0.0,0.0,0.0,0.0,0.0,0.0,0.0,0.0,0.0,0.0,0.0,0.0,0.0,0.0,0.0,0.0,0.0,0.0,0.0,0.0,0.0,0.0,0.0,0.0,0.0,0.0,0.0,0.0,0.0,0.0,0.0,0.0,0.0,0.0,0.0,0.0,0.0,0.0,0.0,0.0,0.0,0.0,0.0,0.0,0.0,0.0,0.0,0.0,0.0,1.3328,1.3268,1.3609,1.4124,1.4766,0.0,0.0,0.0,0.0,0.0,0.0,0.0,0.0,0.0,0.0,0.0,0.0,0.0,0.0,0.0,0.0,0.0,0.0,0.0,0.0,0.0,0.0,0.0,0.0,0.0,0.0,0.0,0.0,0.0,0.0,0.0,0.0,0.0,0.0,0.0,0.0,0.0,0.0,0.0,0.0,0.0,0.0,0.0,0.0,0.0,0.0,0.0,0.0,0.0,0.0,0.0,0.0,0.0,0.0,0.0,0.0,0.0,0.0,0.0,0.0,0.0,0.0,0.0,0.0,0.0,0.0,0.0,0.0,0.0,0.0,0.0,0.0,0.0,0.0,0.0,0.0,0.0,0.0,0.0,0.0,0.0,0.0,0.0,0.0,0.0,0.0,0.0,0.0,0.0,0.0,0.0,0.0,0.0,0.0,0.0,0.0,0.0,0.0,0.0,0.0,0.0,0.0,0.0,0.0,0.0,0.0,0.0,0.0,0.0,0.0,0.0,0.0,1.4117,1.4709,1.5231,0.0,0.0,0.0,0.0,0.0,0.0,0.0,0.0,0.0,0.0,0.0,0.0,0.0,0.0,0.0,0.0,0.0,0.0,0.0,0.0,0.0,0.0,0.0,0.0,0.0,0.0,0.0,0.0,0.0,0.0,0.0,0.0,0.0,0.0,0.0,0.0,0.0,0.0,0.0,0.0,0.0,0.0,0.0,0.0,0.0,0.0,0.0,0.0,0.0,0.0,0.0,0.0,0.0,0.0,0.0,0.0,0.0,0.0,0.0,0.0,0.0,0.0,0.0,0.0,0.0,0.0,0.0,0.0,0.0,0.0,0.0,0.0,0.0,0.0,0.0,0.0,0.0,0.0,0.0,0.0,0.0,0.0,0.0,0.0,0.0,0.0,0.0,0.0,0.0,0.0,0.0,0.0,0.0,0.0,0.0,0.0,0.0,0.0,0.0,0.0,0.0,0.0,0.0,0.0,0.0,0.0,0.0,0.0,0.0,0.0,1.434,1.5499,1.6107,0.0,1.654,0.0,0.0,0.0,0.0,0.0,0.0,0.0,0.0,0.0,0.0,0.0,0.0,0.0,0.0,0.0,0.0,0.0,0.0,0.0,0.0,0.0,0.0,0.0,0.0,0.0,0.0,0.0,0.0,0.0,0.0,0.0,0.0,0.0,0.0,0.0,0.0,0.0,0.0,0.0,0.0,0.0,0.0,0.0,0.0,0.0,0.0,0.0,0.0,0.0,0.0,0.0,0.0,0.0,0.0,0.0,0.0,0.0,0.0,0.0,0.0,0.0,0.0,0.0,0.0,0.0,0.0,0.0,0.0,0.0,0.0,0.0,0.0,0.0,0.0,0.0,0.0,0.0,0.0,0.0,0.0,0.0,0.0,0.0,0.0,0.0,0.0,0.0,0.0,0.0,0.0,0.0,0.0,0.0,0.0,0.0,0.0,0.0,0.0,0.0,0.0,0.0,0.0,0.0,0.0,0.0,0.0,0.0,0.0,0.0,0.0,1.4244,1.5185,1.6166,1.6517,0.0,0.0,0.0,0.0,0.0,0.0,0.0,0.0,0.0,0.0,0.0,0.0,0.0,0.0,0.0,0.0,0.0,0.0,0.0,0.0,0.0,0.0,0.0,0.0,0.0,0.0,0.0,0.0,0.0,0.0,0.0,0.0,0.0,0.0,0.0,0.0,0.0,0.0,0.0,0.0,0.0,0.0,0.0,0.0,0.0,0.0,0.0,0.0,0.0,0.0,0.0,0.0,0.0,0.0,0.0,0.0,0.0,0.0,0.0,0.0,0.0,0.0,0.0,0.0,0.0,0.0,0.0,0.0,0.0,0.0,0.0,0.0,0.0,0.0,0.0,0.0,0.0,0.0,0.0,0.0,0.0,0.0,0.0,0.0,0.0,0.0,0.0,0.0,0.0,0.0,0.0,0.0,0.0,0.0,0.0,0.0,0.0,0.0,0.0,0.0,0.0,0.0,0.0,0.0,0.0,0.0,0.0,0.0,0.0,0.0,1.3669,1.4573,1.5567,1.6151,1.6323,1.6046,0.0,0.0,0.0,0.0,0.0,0.0,0.0,0.0,0.0,0.0,0.0,0.0,0.0,0.0,0.0,0.0,0.0,0.0,0.0,0.0,0.0,0.0,0.0,0.0,0.0,0.0,0.0,0.0,0.0,0.0,0.0,0.0,0.0,0.0,0.0,0.0,0.0,0.0,0.0,0.0,0.0,0.0,0.0,0.0,0.0,0.0,0.0,0.0,0.0,0.0,0.0,0.0,0.0,0.0,0.0,0.0,0.0,0.0,0.0,0.0,0.0,0.0,0.0,0.0,0.0,0.0,0.0,0.0,0.0,0.0,0.0,0.0,0.0,0.0,0.0,0.0,0.0,0.0,0.0,0.0,0.0,0.0,0.0,0.0,0.0,0.0,0.0,0.0,0.0,0.0,0.0,0.0,0.0,0.0,0.0,0.0,0.0,0.0,0.0,0.0,0.0,0.0,0.0,0.0,0.0,0.0,0.0,0.0,1.5409,1.5005,1.565,1.74,1.6436,1.6114,0.0,0.0,0.0,0.0,0.0,0.0,0.0,0.0,0.0,0.0,0.0,0.0,0.0,0.0,0.0,0.0,0.0,0.0,0.0,0.0,0.0,0.0,0.0,0.0,0.0,0.0,0.0,0.0,0.0,0.0,0.0,0.0,0.0,0.0,0.0,0.0,0.0,0.0,0.0,0.0,0.0,0.0,0.0,0.0,0.0,0.0,0.0,0.0,0.0,0.0,0.0,0.0,0.0,0.0,0.0,0.0,0.0,0.0,0.0,0.0,0.0,0.0,0.0,0.0,0.0,0.0,0.0,0.0,0.0,0.0,0.0,0.0,0.0,0.0,0.0,0.0,0.0,0.0,0.0,0.0,0.0,0.0,0.0,0.0,0.0,0.0,0.0,0.0,0.0,0.0,0.0,0.0,0.0,0.0,0.0,0.0,0.0,0.0,0.0,0.0,0.0,0.0,0.0,0.0,0.0,0.0,0.0,0.0,0.0,1.3268,1.3831,1.4902,1.6383,1.6024,1.6076,0.0,0.0,0.0,0.0,0.0,0.0,0.0,0.0,0.0,0.0,0.0,0.0,0.0,0.0,0.0,0.0,0.0,0.0,0.0,0.0,0.0,0.0,0.0,0.0,0.0,0.0,0.0,0.0,0.0,0.0,0.0,0.0,0.0,0.0,0.0,0.0,0.0,0.0,0.0,0.0,0.0,0.0,0.0,0.0,0.0,0.0,0.0,0.0,0.0,0.0,0.0,0.0,0.0,0.0,0.0,0.0,0.0,0.0,0.0,0.0,0.0,0.0,0.0,0.0,0.0,0.0,0.0,0.0,0.0,0.0,0.0,0.0,0.0,0.0,0.0,0.0,0.0,0.0,0.0,0.0,0.0,0.0,0.0,0.0,0.0,0.0,0.0,0.0,0.0,0.0,0.0,0.0,0.0,0.0,0.0,0.0,0.0,0.0,0.0,0.0,0.0,0.0,0.0,0.0,0.0,0.0,0.0,0.0,0.0,1.2849,0.0,1.5187,1.6054,1.5881,1.5994,0.0,0.0,0.0,0.0,0.0,0.0,0.0,0.0,0.0,0.0,0.0,0.0,0.0,0.0,0.0,0.0,0.0,0.0,0.0,0.0,0.0,0.0,0.0,0.0,0.0,0.0,0.0,0.0,0.0,0.0,0.0,0.0,0.0,0.0,0.0,0.0,0.0,0.0,0.0,0.0,0.0,0.0,0.0,0.0,0.0,0.0,0.0,0.0,0.0,0.0,0.0,0.0,0.0,0.0,0.0,0.0,0.0,0.0,0.0,0.0,0.0,0.0,0.0,0.0,0.0,0.0,0.0,0.0,0.0,0.0,0.0,0.0,0.0,0.0,0.0,0.0,0.0,0.0,0.0,0.0,0.0,0.0,0.0,0.0,0.0,0.0,0.0,0.0,0.0,0.0,0.0,0.0,0.0,0.0,0.0,0.0,0.0,0.0,0.0,0.0,0.0,0.0,0.0,0.0,0.0,0.0,0.0,0.0,1.3514,1.4736,1.5913,1.6532,1.6681,1.6069,1.5799,0.0,0.0,0.0,0.0,0.0,0.0,0.0,0.0,0.0,0.0,0.0,0.0,0.0,0.0,0.0,0.0,0.0,0.0,0.0,0.0,0.0,0.0,0.0,0.0,0.0,0.0,0.0,0.0,0.0,0.0,0.0,0.0,0.0,0.0,0.0,0.0,0.0,0.0,0.0,0.0,0.0,0.0,0.0,0.0,0.0,0.0,0.0,0.0,0.0,0.0,0.0,0.0,0.0,0.0,0.0,0.0,0.0,0.0,0.0,0.0,0.0,0.0,0.0,0.0,0.0,0.0,0.0,0.0,0.0,0.0,0.0,0.0,0.0,0.0,0.0,0.0,0.0,0.0,0.0,0.0,0.0,0.0,0.0,0.0,0.0,0.0,0.0,0.0,0.0,0.0,0.0,0.0,0.0,0.0,0.0,0.0,0.0,0.0,0.0,0.0,0.0,0.0,0.0,0.0,0.0,0.0,0.0,0.0,0.0,1.4826,1.5171,1.5815,1.6637,1.568,1.5747,0.0,0.0,0.0,0.0,0.0,0.0,0.0,0.0,0.0,0.0,0.0,0.0,0.0,0.0,0.0,0.0,0.0,0.0,0.0,0.0,0.0,0.0,0.0,0.0,0.0,0.0,0.0,0.0,0.0,0.0,0.0,0.0,0.0,0.0,0.0,0.0,0.0,0.0,0.0,0.0,0.0,0.0,0.0,0.0,0.0,0.0,0.0,0.0,0.0,0.0,0.0,0.0,0.0,0.0,0.0,0.0,0.0,0.0,0.0,0.0,0.0,0.0,0.0,0.0,0.0,0.0,0.0,0.0,0.0,0.0,0.0,0.0,0.0,0.0,0.0,0.0,0.0,0.0,0.0,0.0,0.0,0.0,0.0,0.0,0.0,0.0,0.0,0.0,0.0,0.0,0.0,0.0,0.0,0.0,0.0,0.0,0.0,0.0,0.0,0.0,0.0,0.0,0.0,0.0,0.0,0.0,0.0,0.0,0.0,1.6308,1.6009,1.6144,1.6681,1.5927,1.6077,1.7272,0.0,0.0,0.0,0.0,0.0,0.0,0.0,0.0,0.0,0.0,0.0,0.0,0.0,0.0,0.0,0.0,0.0,0.0,0.0,0.0,0.0,0.0,0.0,0.0,0.0,0.0,0.0,0.0,0.0,0.0,0.0,0.0,0.0,0.0,0.0,0.0,0.0,0.0,0.0,0.0,0.0,0.0,0.0,0.0,0.0,0.0,0.0,0.0,0.0,0.0,0.0,0.0,0.0,0.0,0.0,0.0,0.0,0.0,0.0,0.0,0.0,0.0,0.0,0.0,0.0,0.0,0.0,0.0,0.0,0.0,0.0,0.0,0.0,0.0,0.0,0.0,0.0,0.0,0.0,0.0,0.0,0.0,0.0,0.0,0.0,0.0,0.0,0.0,0.0,0.0,0.0,0.0,0.0,0.0,0.0,0.0,0.0,0.0,0.0,0.0,0.0,0.0,0.0,0.0,0.0,0.0,0.0,0.0,1.8762,1.8267,1.7712,1.6987,1.6898,1.6868,0.0,0.0,0.0,0.0,0.0,0.0,0.0,0.0,0.0,0.0,0.0,0.0,0.0,0.0,0.0,0.0,0.0,0.0,0.0,0.0,0.0,0.0,0.0,0.0,0.0,0.0,0.0,0.0,0.0,0.0,0.0,0.0,0.0,0.0,0.0,0.0,0.0,0.0,0.0,0.0,0.0,0.0,0.0,0.0,0.0,0.0,0.0,0.0,0.0,0.0,0.0,0.0,0.0,0.0,0.0,0.0,0.0,0.0,0.0,0.0,0.0,0.0,0.0,0.0,0.0,0.0,0.0,0.0,0.0,0.0,0.0,0.0,0.0,0.0,0.0,0.0,0.0,0.0,0.0,0.0,0.0,0.0,0.0,0.0,0.0,0.0,0.0,0.0,0.0,0.0,0.0,0.0,0.0,0.0,0.0,0.0,0.0,0.0,0.0,0.0,0.0,0.0,0.0,0.0,0.0,0.0,0.0,0.0,0.0,1.9519,2.1116,2.1296,1.9731,1.9172,1.8694,0.0,0.0,0.0,0.0,0.0,0.0,0.0,0.0,0.0,0.0,0.0,0.0,0.0,0.0,0.0,0.0,0.0,0.0,0.0,0.0,0.0,0.0,0.0,0.0,0.0,0.0,0.0,0.0,0.0,0.0,0.0,0.0,0.0,0.0,0.0,0.0,0.0,0.0,0.0,0.0,0.0,0.0,0.0,0.0,0.0,0.0,0.0,0.0,0.0,0.0,0.0,0.0,0.0,0.0,0.0,0.0,0.0,0.0,0.0,0.0,0.0,0.0,0.0,0.0,0.0,0.0,0.0,0.0,0.0,0.0,0.0,0.0,0.0,0.0,0.0,0.0,0.0,0.0,0.0,0.0,0.0,0.0,0.0,0.0,0.0,0.0,0.0,0.0,0.0,0.0,0.0,0.0,0.0,0.0,0.0,0.0,0.0,0.0,0.0,0.0,0.0,0.0,0.0,0.0,0.0,0.0,0.0,0.0,2.0696,2.0966,2.3221,2.3909,2.2791,2.1834,2.0617,0.0,0.0,0.0,0.0,0.0,0.0,0.0,0.0,0.0,0.0,0.0,0.0,0.0,0.0,0.0,0.0,0.0,0.0,0.0,0.0,0.0,0.0,0.0,0.0,0.0,0.0,0.0,0.0,0.0,0.0,0.0,0.0,0.0,0.0,0.0,0.0,0.0,0.0,0.0,0.0,0.0,0.0,0.0,0.0,0.0,0.0,0.0,0.0,0.0,0.0,0.0,0.0,0.0,0.0,0.0,0.0,0.0,0.0,0.0,0.0,0.0,0.0,0.0,0.0,0.0,0.0,0.0,0.0,0.0,0.0,0.0,0.0,0.0,0.0,0.0,0.0,0.0,0.0,0.0,0.0,0.0,0.0,0.0,0.0,0.0,0.0,0.0,0.0,0.0,0.0,0.0,0.0,0.0,0.0,0.0,0.0,0.0,0.0,0.0,0.0,0.0,0.0,0.0,0.0,0.0,0.0,0.0,0.0,2.2104,2.2703,2.4717,2.5782,2.5663,2.4328,2.2443,0.0,0.0,0.0,0.0,0.0,0.0,0.0,0.0,0.0,0.0,0.0,0.0,0.0,0.0,0.0,0.0,0.0,0.0,0.0,0.0,0.0,0.0,0.0,0.0,0.0,0.0,0.0,0.0,0.0,0.0,0.0,0.0,0.0,0.0,0.0,0.0,0.0,0.0,0.0,0.0,0.0,0.0,0.0,0.0,0.0,0.0,0.0,0.0,0.0,0.0,0.0,0.0,0.0,0.0,0.0,0.0,0.0,0.0,0.0,0.0,0.0,0.0,0.0,0.0,0.0,0.0,0.0,0.0,0.0,0.0,0.0,0.0,0.0,0.0,0.0,0.0,0.0,0.0,0.0,0.0,0.0,0.0,0.0,0.0,0.0,0.0,0.0,0.0,0.0,0.0,0.0,0.0,0.0,0.0,0.0,0.0,0.0,0.0,0.0,0.0,0.0,0.0,0.0,0.0,0.0,0.0,0.0,0.0,2.2563,2.2733,2.5638,2.6914,2.6393,2.4567,2.2892,0.0,0.0,0.0,0.0,0.0,0.0,0.0,0.0,0.0,0.0,0.0,0.0,0.0,0.0,0.0,0.0,0.0,0.0,0.0,0.0,0.0,0.0,0.0,0.0,0.0,0.0,0.0,0.0,0.0,0.0,0.0,0.0,0.0,0.0,0.0,0.0,0.0,0.0,0.0,0.0,0.0,0.0,0.0,0.0,0.0,0.0,0.0,0.0,2.2313,0.0,0.0,0.0,0.0,0.0,0.0,0.0,0.0,0.0,0.0,0.0,0.0,0.0,0.0,0.0,0.0,0.0,0.0,0.0,0.0,0.0,0.0,0.0,0.0,0.0,0.0,0.0,0.0,0.0,0.0,0.0,0.0,0.0,0.0,0.0,0.0,0.0,0.0,0.0,0.0,0.0,0.0,0.0,0.0,0.0,0.0,0.0,0.0,0.0,0.0,0.0,0.0,0.0,0.0,0.0,0.0,0.0,0.0,0.0,2.2992,2.364,2.5896,2.6944,2.6554,2.4657,2.3131,0.0,0.0,0.0,0.0,0.0,0.0,0.0,0.0,0.0,0.0,0.0,0.0,0.0,0.0,0.0,0.0,0.0,0.0,0.0,0.0,0.0,0.0,0.0,0.0,0.0,0.0,0.0,0.0,0.0,0.0,0.0,0.0,0.0,0.0,0.0,0.0,0.0,0.0,0.0,0.0,0.0,0.0,0.0,0.0,0.0,0.0,0.0,0.0,0.0,0.0,0.0,0.0,0.0,0.0,0.0,0.0,0.0,0.0,0.0,0.0,0.0,0.0,0.0,0.0,0.0,0.0,0.0,0.0,0.0,0.0,0.0,0.0,0.0,0.0,0.0,0.0,0.0,0.0,0.0,0.0,0.0,0.0,0.0,0.0,0.0,0.0,0.0,0.0,0.0,0.0,0.0,0.0,0.0,0.0,0.0,0.0,0.0,0.0,0.0,0.0,0.0,0.0,0.0,0.0,0.0,0.0,0.0,2.2034,2.3321,2.4563,2.5914,2.6614,2.6584,2.4657,2.331,2.2703,0.0,0.0,0.0,0.0,0.0,0.0,0.0,0.0,0.0,0.0,0.0,0.0,0.0,0.0,0.0,0.0,0.0,0.0,0.0,0.0,0.0,0.0,0.0,0.0,0.0,0.0,0.0,0.0,0.0,0.0,0.0,0.0,0.0,0.0,0.0,0.0,0.0,0.0,2.2313,2.2313,0.0,0.0,0.0,0.0,0.0,0.0,0.0,0.0,2.2313,0.0,0.0,0.0,0.0,0.0,0.0,0.0,0.0,0.0,0.0,0.0,0.0,0.0,0.0,0.0,0.0,0.0,0.0,0.0,0.0,0.0,0.0,0.0,0.0,0.0,0.0,0.0,0.0,0.0,0.0,0.0,0.0,0.0,0.0,0.0,0.0,0.0,0.0,0.0,0.0,0.0,0.0,0.0,0.0,0.0,0.0,0.0,0.0,0.0,0.0,0.0,0.0,0.0,0.0,0.0,0.0,2.0688,2.2004,2.331,2.4575,2.5902,2.6614,2.6542,2.4657,2.3321,2.2673,0.0,0.0,0.0,0.0,0.0,0.0,0.0,0.0,0.0,0.0,0.0,0.0,0.0,0.0,0.0,0.0,0.0,0.0,0.0,0.0,0.0,0.0,0.0,0.0,0.0,0.0,0.0,0.0,0.0,0.0,0.0,0.0,0.0,0.0,0.0,0.0,0.0,0.0,0.0,2.2313,2.2313,0.0,0.0,0.0,0.0,0.0,0.0,0.0,0.0,2.2564,0.0,0.0,0.0,0.0,0.0,0.0,0.0,0.0,0.0,0.0,0.0,0.0,0.0,0.0,0.0,0.0,0.0,0.0,0.0,0.0,0.0,0.0,0.0,0.0,0.0,0.0,0.0,0.0,0.0,0.0,0.0,0.0,0.0,0.0,0.0,0.0,0.0,0.0,0.0,0.0,0.0,0.0,0.0,0.0,0.0,0.0,0.0,0.0,0.0,0.0,0.0,0.0,0.0,0.0,0.0,2.1206,2.2183,2.3501,2.5053,2.5764,2.6093,2.6033,2.4159,2.2842,0.0,0.0,0.0,0.0,0.0,0.0,0.0,0.0,0.0,0.0,0.0,0.0,0.0,0.0,0.0,0.0,0.0,0.0,0.0,0.0,0.0,0.0,0.0,0.0,0.0,0.0,0.0,0.0,0.0,0.0,0.0,0.0,0.0,0.0,0.0,0.0,0.0,0.0,0.0,0.0,2.2624,2.2733,2.2354,0.0,0.0,0.0,0.0,0.0,0.0,2.2868,2.3139,0.0,0.0,0.0,0.0,0.0,0.0,0.0,0.0,0.0,0.0,0.0,0.0,0.0,0.0,0.0,0.0,0.0,0.0,0.0,0.0,0.0,0.0,0.0,0.0,0.0,0.0,0.0,0.0,0.0,0.0,0.0,0.0,0.0,0.0,0.0,0.0,0.0,0.0,0.0,0.0,0.0,0.0,0.0,0.0,0.0,0.0,0.0,0.0,0.0,0.0,0.0,0.0,0.0,0.0,0.0,2.1665,2.2213,2.3441,2.5304,2.5393,2.5334,2.5166,2.3561,2.2313,0.0,0.0,0.0,0.0,0.0,0.0,0.0,0.0,0.0,0.0,0.0,0.0,0.0,0.0,0.0,0.0,0.0,0.0,0.0,0.0,0.0,0.0,0.0,0.0,0.0,0.0,0.0,0.0,0.0,0.0,0.0,0.0,0.0,0.0,0.0,0.0,0.0,0.0,0.0,0.0,0.0,2.3349,2.2624,2.3789,0.0,0.0,0.0,0.0,2.3654,2.3985,0.0,0.0,0.0,0.0,0.0,0.0,0.0,0.0,0.0,0.0,0.0,0.0,0.0,0.0,0.0,0.0,0.0,0.0,0.0,0.0,0.0,0.0,0.0,0.0,0.0,0.0,0.0,0.0,0.0,0.0,0.0,0.0,0.0,0.0,0.0,0.0,0.0,0.0,0.0,0.0,0.0,0.0,0.0,0.0,0.0,0.0,0.0,0.0,0.0,0.0,0.0,0.0,0.0,0.0,0.0,0.0,2.1645,2.1754,2.2772,2.4605,2.4724,2.4436,2.3849,2.3082,2.2094,0.0,0.0,0.0,0.0,0.0,0.0,0.0,0.0,0.0,0.0,0.0,0.0,0.0,0.0,0.0,0.0,0.0,0.0,0.0,0.0,0.0,0.0,0.0,0.0,0.0,0.0,0.0,0.0,0.0,0.0,0.0,0.0,0.0,0.0,0.0,0.0,0.0,0.0,0.0,0.0,0.0,2.4101,2.3376,2.4526,2.5203,0.0,0.0,2.5101,2.4474,2.6006,0.0,0.0,0.0,0.0,0.0,0.0,0.0,0.0,0.0,0.0,0.0,0.0,0.0,0.0,0.0,0.0,0.0,0.0,0.0,0.0,0.0,0.0,0.0,0.0,0.0,0.0,0.0,0.0,0.0,0.0,0.0,0.0,0.0,0.0,0.0,0.0,0.0,0.0,0.0,0.0,0.0,0.0,0.0,0.0,0.0,0.0,0.0,0.0,0.0,0.0,0.0,0.0,0.0,0.0,0.0,2.0357,2.1645,2.1704,2.2652,2.4504,2.4216,2.3898,2.362,2.2633,2.1695,0.0,0.0,0.0,0.0,0.0,0.0,0.0,0.0,0.0,0.0,0.0,0.0,0.0,0.0,0.0,0.0,0.0,0.0,0.0,0.0,0.0,0.0,0.0,0.0,0.0,0.0,0.0,0.0,0.0,0.0,0.0,0.0,0.0,0.0,0.0,0.0,0.0,0.0,0.0,0.0,0.0,0.0,2.4128,2.5634,0.0,0.0,0.0,2.7453,2.7114,0.0,0.0,0.0,0.0,0.0,0.0,0.0,0.0,0.0,0.0,0.0,0.0,0.0,0.0,0.0,0.0,0.0,0.0,0.0,0.0,0.0,0.0,0.0,0.0,0.0,0.0,0.0,0.0,0.0,0.0,0.0,0.0,0.0,0.0,0.0,0.0,0.0,0.0,0.0,0.0,0.0,0.0,0.0,0.0,0.0,0.0,0.0,0.0,0.0,0.0,0.0,0.0,0.0,0.0,0.0,0.0,0.0,2.1675,2.1704,2.249,2.4033,2.3648,2.316,2.2676,2.1743,0.0,0.0,0.0,0.0,0.0,0.0,0.0,0.0,0.0,0.0,0.0,0.0,0.0,0.0,0.0,0.0,0.0,0.0,0.0,0.0,0.0,0.0,0.0,0.0,0.0,0.0,0.0,0.0,0.0,0.0,0.0,0.0,0.0,0.0,0.0,0.0,0.0,0.0,0.0,0.0,0.0,0.0,2.6192,2.5455,2.7224,2.8263,0.0,0.0,2.9484,2.9305,2.9745,2.9788,0.0,0.0,0.0,0.0,0.0,0.0,0.0,0.0,0.0,0.0,0.0,0.0,0.0,0.0,0.0,0.0,0.0,0.0,0.0,0.0,0.0,0.0,0.0,0.0,0.0,0.0,0.0,0.0,0.0,0.0,0.0,0.0,0.0,0.0,0.0,0.0,0.0,0.0,0.0,0.0,0.0,0.0,0.0,0.0,0.0,0.0,0.0,0.0,0.0,0.0,0.0,0.0,0.0,0.0,0.0,2.1645,2.1704,2.2055,2.2814,2.2791,2.1929,2.0233,2.0073,1.9489,0.0,0.0,0.0,0.0,0.0,0.0,0.0,0.0,0.0,0.0,0.0,0.0,0.0,0.0,0.0,0.0,0.0,0.0,0.0,0.0,0.0,0.0,0.0,0.0,0.0,0.0,0.0,0.0,0.0,0.0,0.0,0.0,0.0,0.0,0.0,0.0,0.0,0.0,0.0,0.0,0.0,2.8493,2.7697,2.9523,3.092,0.0,0.0,3.0818,3.0132,3.1755,3.1925,2.8466,0.0,0.0,0.0,0.0,0.0,0.0,0.0,0.0,0.0,0.0,0.0,0.0,0.0,0.0,0.0,0.0,0.0,0.0,0.0,0.0,0.0,0.0,0.0,0.0,0.0,0.0,0.0,0.0,0.0,0.0,0.0,0.0,0.0,0.0,0.0,0.0,0.0,0.0,0.0,0.0,0.0,0.0,0.0,0.0,0.0,0.0,0.0,0.0,0.0,0.0,0.0,0.0,0.0,2.015,2.1082,2.1072,2.1398,2.2041,2.2091,2.1371,1.9926,1.9887,1.9335,0.0,0.0,0.0,0.0,0.0,0.0,0.0,0.0,0.0,0.0,0.0,0.0,0.0,0.0,0.0,0.0,0.0,0.0,0.0,0.0,0.0,0.0,0.0,0.0,0.0,0.0,0.0,0.0,2.2313,2.2496,2.2936,0.0,0.0,0.0,0.0,0.0,0.0,0.0,0.0,0.0,0.0,2.8063,2.8479,2.9701,0.0,0.0,3.111,3.1854,3.163,3.1822,3.1698,3.0717,2.9523,0.0,0.0,0.0,0.0,0.0,0.0,0.0,0.0,0.0,0.0,0.0,0.0,0.0,0.0,0.0,0.0,0.0,0.0,0.0,0.0,0.0,0.0,0.0,0.0,0.0,0.0,0.0,0.0,0.0,0.0,0.0,0.0,0.0,0.0,0.0,0.0,0.0,0.0,0.0,0.0,0.0,0.0,0.0,0.0,0.0,0.0,0.0,0.0,0.0,0.0,0.0,0.0,1.9614,2.0443,2.0472,2.0773,2.1397,2.1424,2.084,1.9671,1.9483,1.893,0.0,0.0,0.0,0.0,0.0,0.0,0.0,0.0,0.0,0.0,0.0,0.0,0.0,0.0,0.0,0.0,0.0,0.0,0.0,0.0,0.0,0.0,0.0,0.0,0.0,0.0,0.0,0.0,2.2963,2.3088,2.3466,0.0,0.0,0.0,0.0,0.0,0.0,0.0,0.0,0.0,0.0,2.7945,2.8961,2.9797,3.0282,3.0285,3.1172,3.1962,3.2395,3.179,3.1293,3.1355,0.0,0.0,0.0,0.0,0.0,0.0,0.0,0.0,0.0,0.0,0.0,0.0,0.0,0.0,0.0,0.0,0.0,0.0,0.0,0.0,0.0,0.0,0.0,0.0,0.0,0.0,0.0,0.0,0.0,0.0,1.65,0.0,0.0,0.0,0.0,0.0,0.0,0.0,0.0,0.0,0.0,0.0,0.0,0.0,0.0,0.0,0.0,0.0,0.0,0.0,0.0,0.0,0.0,1.8768,1.9909,1.9943,2.0245,2.0833,2.0834,2.0261,1.9081,1.8516,1.8011,1.7454,0.0,0.0,0.0,0.0,0.0,0.0,0.0,0.0,0.0,0.0,0.0,0.0,0.0,0.0,0.0,0.0,0.0,0.0,0.0,0.0,0.0,0.0,0.0,0.0,0.0,0.0,2.4337,2.4432,2.4212,0.0,0.0,0.0,0.0,0.0,0.0,0.0,0.0,0.0,0.0,2.7753,2.8629,2.9278,3.0005,3.093,3.2222,3.1386,3.0974,3.2171,3.1836,3.0995,0.0,0.0,0.0,0.0,0.0,0.0,0.0,0.0,0.0,0.0,0.0,0.0,0.0,0.0,0.0,0.0,0.0,0.0,0.0,0.0,0.0,0.0,0.0,0.0,0.0,0.0,0.0,1.65,1.65,0.0,0.0,0.0,0.0,0.0,0.0,0.0,0.0,0.0,0.0,0.0,1.7121,1.7643,0.0,0.0,0.0,0.0,0.0,0.0,0.0,0.0,0.0,0.0,0.0,0.0,1.9201,2.03,2.0356,2.0645,2.1229,2.0923,2.0359,1.9547,1.902,1.8318,1.7423,0.0,0.0,0.0,0.0,0.0,0.0,0.0,0.0,0.0,0.0,0.0,0.0,0.0,0.0,0.0,0.0,0.0,0.0,0.0,0.0,0.0,0.0,0.0,0.0,0.0,2.3847,0.0,0.0,0.0,0.0,0.0,0.0,0.0,0.0,0.0,0.0,0.0,2.6013,2.703,2.7577,2.809,2.8729,2.9781,3.0527,0.0,0.0,0.0,0.0,0.0,0.0,0.0,0.0,0.0,0.0,0.0,0.0,0.0,0.0,3.1304,2.9264,2.8728,2.8819,2.9689,0.0,0.0,0.0,0.0,0.0,0.0,0.0,0.0,0.0,0.0,0.0,0.0,0.0,0.0,1.6726,0.0,1.6651,0.0,0.0,0.0,0.0,0.0,0.0,0.0,0.0,1.7476,1.7877,1.8241,1.8581,1.8939,0.0,1.8939,1.8469,0.0,0.0,0.0,0.0,0.0,0.0,0.0,0.0,1.8926,1.9998,2.0243,2.0616,2.1183,2.0867,2.0415,1.9811,1.9259,1.8581,1.7713,1.7688,1.7879,0.0,0.0,0.0,0.0,0.0,0.0,0.0,0.0,0.0,0.0,0.0,0.0,0.0,0.0,0.0,0.0,0.0,0.0,0.0,0.0,0.0,0.0,0.0,2.44,0.0,0.0,0.0,0.0,0.0,0.0,0.0,0.0,0.0,2.638,2.6021,2.6161,2.7198,2.7278,2.7494,2.8094,0.0,0.0,0.0,0.0,0.0,0.0,0.0,3.0879,3.2239,3.1643,3.1452,3.2782,3.2829,3.2942,3.3571,0.0,0.0,3.07,3.0198,3.0314,3.1167,3.1746,3.2198,3.2574,3.2641,3.2641,0.0,0.0,0.0,0.0,0.0,0.0,0.0,0.0,1.6651,1.7239,0.0,1.7063,0.0,0.0,0.0,0.0,0.0,1.72,0.0,0.0,1.8329,1.8857,1.9811,1.9911,1.9898,1.9886,1.9936,1.9622,1.9095,1.8606,0.0,0.0,0.0,0.0,0.0,0.0,1.8015,1.912,1.9673,2.0175,2.0792,2.0792,2.0465,1.9874,1.9284,1.8769,1.8254,1.8217,1.8728,1.9886,1.9963,0.0,0.0,0.0,0.0,0.0,0.0,0.0,0.0,0.0,0.0,0.0,0.0,0.0,0.0,0.0,0.0,0.0,0.0,0.0,0.0,2.4883,0.0,0.0,0.0,0.0,0.0,0.0,0.0,0.0,0.0,0.0,2.6798,2.6598,2.6644,2.7311,0.0,0.0,0.0,0.0,2.9146,3.0372,3.0568,3.1271,3.3036,3.2864,3.2448,3.2467,0.0,0.0,3.2545,3.2031,3.1937,3.2408,3.2211,3.2213,3.4035,3.3506,3.309,3.3205,3.325,3.3358,3.3416,3.3591,3.352,1.8932,0.0,0.0,0.0,0.0,1.8117,1.8518,1.8844,1.8844,1.8819,1.8707,1.8005,0.0,0.0,0.0,0.0,0.0,0.0,1.8819,1.9384,2.0162,2.0728,2.1055,2.1805,2.1956,2.1605,2.1967,2.168,2.0815,2.1002,2.0216,1.8465,0.0,0.0,0.0,0.0,1.966,2.074,2.1317,2.1856,2.2383,2.2046,2.1393,2.0465,1.9497,1.8945,1.8782,1.8782,1.893,1.9278,1.9647,0.0,0.0,0.0,0.0,0.0,0.0,0.0,0.0,0.0,0.0,0.0,0.0,0.0,0.0,0.0,0.0,0.0,0.0,0.0,2.4478,2.5108,2.5562,0.0,0.0,0.0,0.0,0.0,0.0,0.0,0.0,0.0,2.7156,2.6826,2.6796,0.0,0.0,2.8098,2.8291,2.9641,3.0807,3.1166,3.2004,0.0,0.0,3.2616,3.2676,3.311,3.3982,3.4625,3.4633,3.4478,3.4415,3.4588,3.4478,3.4553,3.488,3.342,3.2492,3.3184,3.3893,3.4635,3.5476,3.5728,3.5714,2.0326,1.8493,1.9215,1.951,1.9535,1.9861,2.0174,2.0464,2.0477,2.0526,2.0576,1.961,1.9246,1.9296,1.8505,0.0,0.0,0.0,2.0375,2.1153,2.183,2.2372,2.2849,2.3471,2.3612,2.3311,2.3411,2.311,2.2498,2.2573,2.1666,1.9848,0.0,0.0,1.9309,1.9886,2.0603,2.1496,2.202,2.2472,2.2784,2.2257,2.1669,2.1043,2.0137,1.9685,1.966,1.9422,1.9309,1.9321,2.008,2.1078,0.0,0.0,0.0,0.0,0.0,0.0,0.0,0.0,0.0,0.0,0.0,2.4377,0.0,0.0,0.0,0.0,2.4616,2.4567,2.4963,2.5352,0.0,0.0,0.0,0.0,0.0,0.0,0.0,2.6851,2.6953,2.7229,2.7789,2.7592,2.7542,2.7931,2.856,2.9086,2.9325,0.0,3.169,3.2213,3.3185,3.3844,3.3724,3.3678,3.3844,3.4233,3.4935,3.5489,3.5489,3.5489,3.5489,3.5489,3.5489,3.5489,3.5489,3.4157,3.3276,3.4105,3.4683,3.5277,3.6069,3.6424,3.6611,2.1347,2.0468,2.1392,2.172,2.1631,2.1766,2.182,2.182,2.1884,2.2357,2.3045,2.1594,2.1432,2.2171,2.127,0.0,2.0931,2.1471,2.2232,2.3246,2.3346,2.3938,2.4917,2.5001,2.5017,2.4917,2.4515,2.4214,2.4054,2.3612,2.306,2.2422,2.1482,2.0653,2.0025,2.0527,2.108,2.1619,2.2157,2.2447,2.2433,2.187,2.1543,2.1557,2.1005,2.0705,2.0666,2.0125,1.9824,1.9837,2.0888,2.1605,2.1907,0.0,0.0,0.0,0.0,0.0,0.0,0.0,0.0,0.0,0.0,0.0,0.0,0.0,0.0,0.0,2.5722,0.0,2.5693,2.5734,0.0,0.0,0.0,2.7046,2.7675,2.7777,2.7764,2.7764,0.0,0.0,2.8607,2.8727,2.8757,2.8757,2.9279,2.9907,3.0568,3.1256,3.2108,3.338,3.4128,3.4787,3.522,3.534,3.531,3.537,3.5489,3.5489,3.5489,3.5489,3.5489,3.5489,3.5489,3.5489,3.5489,3.54,3.5489,3.5402,3.5462,3.5492,3.5573,3.5996,3.6373,2.3927,2.3682,2.3922,2.3526,2.2839,2.4096,2.4632,2.4673,2.51,2.4748,2.3763,2.3401,2.2623,2.1694,2.1845,2.2132,2.2558,2.3125,2.3778,2.444,2.5285,2.5829,2.613,2.6917,2.6892,2.618,2.6809,2.6247,2.4691,2.5335,2.4974,2.3662,2.3738,2.2899,2.1181,2.1658,2.2196,2.2719,2.3326,2.3602,2.3577,2.2608,2.2106,2.2106,2.1181,2.0691,2.0691,2.0125,1.9824,1.9824,2.0496,2.1616,2.3129,2.3573,0.0,0.0,0.0,0.0,0.0,0.0,0.0,0.0,0.0,2.5615,2.5615,0.0,2.5812,0.0,2.6824,2.6914,2.6405,2.6824,0.0,0.0,2.8141,2.8368,2.9039,2.9099,2.9129,2.9112,2.9142,2.9202,2.9338,2.9774,3.0043,3.0043,3.0193,3.0702,3.1854,3.2602,3.3305,3.4099,3.4817,3.531,3.5443,3.5489,3.5489,3.5489,3.5489,3.5489,3.5489,3.5489,3.5489,3.5489,3.5489,3.5489,3.5489,3.5489,3.5489,3.5489,3.5489,3.5489,3.5489,3.5639,3.5759,2.3778,2.3819,2.4323,2.4278,2.3955,2.5373,2.6008,2.605,2.6848,2.6683,2.5812,2.5577,2.4824,2.3759,2.4029,2.4456,2.4967,2.5326,2.5762,2.6297,2.6892,2.7211,2.7236,2.7821,2.777,2.7236,2.7821,2.7344,2.6021,2.6809,2.6356,2.4732,2.5276,2.4682,2.305,2.3261,2.3547,2.3847,2.4189,2.4255,2.3979,2.3376,2.3075,2.3025,2.1985,2.1532,2.1758,2.0991,2.0577,2.0564,2.1105,2.193,2.3054,2.3608,2.4577,0.0,0.0,0.0,0.0,0.0,0.0,0.0,0.0,0.0,0.0,0.0,2.6752,0.0,2.7812,2.8021,2.7931,2.8261,2.865,2.9009,2.9026,2.9189,2.9548,2.9608,2.9608,2.9608,2.9608,2.9698,2.9953,3.0283,3.0612,3.0897,3.0957,3.1301,3.2303,3.3066,3.3739,3.4414,3.5086,3.5489,3.5489,3.5489,3.5489,3.5489,3.5489,3.5489,3.5489,3.5489,3.5489,3.5489,3.5489,3.5489,3.5489,3.5489,3.5489,3.5489,3.5489,3.5489,3.5503,3.5745,3.5938,2.2598,2.2683,2.3637,2.4263,2.4661,2.578,2.6404,2.6681,2.7656,2.8144,2.8172,2.7638,2.7135,2.67,2.67,2.6959,2.7386,2.7412,2.7645,2.8097,2.8172,2.8222,2.8222,2.8279,2.8298,2.8197,2.8298,2.7996,2.7437,2.7946,2.7419,2.5988,2.6381,2.6105,2.5168,2.5042,2.4992,2.4917,2.4892,2.4682,2.4205,2.4054,2.4004,2.3954,2.2899,2.2508,2.2945,2.2006,2.1493,2.1518,2.202,2.237,2.2533,2.3644,2.4706,0.0,2.6195,0.0,0.0,0.0,0.0,0.0,0.0,0.0,0.0,2.7824,2.8081,2.868,2.874,2.8966,2.9548,2.9608,2.9638,2.9698,2.9698,2.9728,2.9817,2.9847,2.9847,2.9847,2.9847,3.0043,3.0538,3.0642,3.0867,3.1361,3.1451,3.166,3.2273,3.2991,3.3739,3.4398,3.5086,3.5489,3.5489,3.5489,3.5489,3.5489,3.5489,3.5489,3.5489,3.5489,3.5489,3.5489,3.5489,3.5489,3.5489,3.5489,3.5489,3.5489,3.5489,3.5489,3.5549,3.5878,3.6344,2.2984,2.3006,2.3225,2.3351,2.3519,2.4619,2.5905,2.7185,2.7848,2.8343,2.8712,2.8197,2.7896,2.7795,2.7795,2.7846,2.7946,2.7946,2.8003,2.8122,2.8555,2.8756,2.8762,2.9252,2.9227,2.8806,2.9252,2.895,2.7971,2.848,2.8355,2.7645,2.7293,2.7035,2.6834,0.0,0.0,0.0,2.5435,2.5385,2.5259,2.4431,2.4004,2.3979,2.2899,0.0,2.2433,2.1845,2.1493,2.1518,2.202,0.0,0.0,0.0,0.0,0.0,0.0,0.0,0.0,0.0,0.0,0.0,2.9172,2.8992,2.8487,2.8889,2.9279,2.9398,2.9428,2.9458,2.9578,2.9608,2.9788,3.0283,3.0342,3.0552,3.1046,3.1122,3.1122,3.1152,3.1136,3.1166,3.1241,3.1301,3.1331,3.1481,3.1511,3.154,3.166,3.2751,3.3709,3.4398,3.5086,3.5489,3.5489,3.5489,3.5489,3.5489,3.5489,3.5489,3.5489,3.5489,3.5489,3.5489,3.5489,3.5489,3.5489,3.5489,3.5489,3.5489,3.5489,3.5489,3.5489,3.5609,3.5699,2.3101,0.0,2.3101,2.3101,0.0,2.3714,2.4767,2.612,2.6961,2.7762,2.8489,2.8196,2.8403,2.8925,2.895,2.8925,2.8925,2.895,2.8925,2.895,2.9227,2.9333,2.9358,2.9654,2.9628,2.9358,2.9654,2.9352,2.8555,2.9101,2.8925,2.8122,2.8079,2.7971,2.767,2.716,2.6608,2.6055,2.603,2.5904,2.5586,2.5075,2.4657,2.4365,0.0,0.0,0.0,0.0,0.0,0.0,0.0,0.0,0.0,0.0,0.0,2.5699,2.5811,2.6399,2.7695,2.8198,2.8593,2.8944,2.9628,2.9788,2.9129,2.9398,2.9728,3.0027,3.0057,3.0163,3.0492,3.0538,3.0658,3.0957,3.0987,3.1152,3.1421,3.1511,3.1511,3.1511,3.1511,3.1511,3.1511,3.1511,3.1511,3.1511,3.1511,3.1511,3.163,3.2632,3.3829,3.4817,3.522,3.5489,3.5489,3.5489,3.5489,3.5489,3.5489,3.5489,3.5489,3.5489,3.5489,3.5489,3.5489,3.5489,3.5489,3.5489,3.5489,3.5489,3.5489,3.5489,3.5489,3.5489,3.5489,2.3101,2.3101,2.3101,2.3101,2.3101,2.3101,2.3627,2.4595,0.0,0.0,0.0,2.8104,2.8727,2.976,2.9779,2.9779,2.9779,2.9779,2.9779,2.9779,2.9779,2.9779,2.9779,2.9779,2.9779,2.9779,2.9779,2.9553,2.9082,2.9553,2.9327,2.8524,2.8756,2.8631,2.8122,2.767,2.7228,2.6801,2.66,2.6273,2.5762,2.5636,2.5385,2.4942,2.4315,2.4004,2.3979,2.3436,2.3095,2.312,2.3221,2.3246,2.3271,2.3331,2.3964,2.5135,2.5222,2.5822,2.7068,2.7979,2.8527,2.8642,2.9894,3.0418,2.9788,2.9877,3.0133,3.0628,3.0658,3.0897,3.1436,3.1511,3.1511,3.1511,3.1511,3.1481,3.1511,3.1511,3.1511,3.1511,3.1511,3.1511,3.1496,3.1616,3.169,3.169,3.1869,3.1929,3.2123,3.2916,3.3963,3.516,3.5459,3.5489,3.5489,3.5489,3.5489,3.5489,3.5489,3.5489,3.5489,3.5489,3.5489,3.5489,3.5489,3.5489,3.5489,3.5489,3.5489,3.5489,3.5489,3.5489,3.5489,3.5489,3.5489,2.3101,2.3101,2.3101,2.3101,2.3101,2.3101,2.3188,2.3497,2.5589,2.7075,2.8104,2.8104,2.8727,2.9779,2.9779,2.9779,2.9779,2.9779,2.9779,2.9779,2.9779,2.9779,2.9779,2.9779,2.9779,2.9779,2.9779,2.9754,2.9679,2.9754,2.9723,2.9503,2.9132,2.8631,2.8129,2.8021,2.7946,2.7846,2.6977,2.6449,2.6373,2.5879,2.5561,2.546,2.4531,2.4004,2.3979,2.3436,2.3095,2.312,2.3587,2.3879,2.3904,2.4274,2.4915,2.5708,2.5801,2.6394,2.7757,2.8688,2.9419,2.9997,3.0852,3.1062,3.0462,3.0883,3.1271,3.1347,3.1301,3.1391,3.1511,3.1511,3.1511,3.1511,3.1511,3.1511,3.1511,3.1511,3.1511,3.154,3.1511,3.154,3.166,3.2049,3.2362,3.2422,3.2736,3.3335,3.3709,3.3724,3.4083,3.513,3.5489,3.5489,3.5489,3.5489,3.5489,3.5489,3.5489,3.5489,3.5489,3.5489,3.5489,3.5489,3.5489,3.5489,3.5489,3.5489,3.5489,3.5489,3.5489,3.5489,3.5489,3.5489,3.5489,2.3101,2.3101,2.3101,2.3101,2.3101,2.3101,2.3101,2.3188,2.4188,2.5294,2.6253,2.6315,2.7235,2.8767,2.8271,2.8673,2.976,2.9145,2.9229,2.976,2.9779,2.9779,2.9779,2.9779,2.9779,2.9779,2.9779,2.9779,2.9779,2.9779,2.9779,2.9779,2.9528,2.9277,2.9026,2.8681,2.8549,2.8505,2.7487,2.6927,2.6927,2.6399,2.5929,2.5628,2.5109,2.4732,2.444,2.4164,2.4023,2.4023,2.429,2.444,2.4456,2.4666,2.5079,2.5695,2.5736,2.6155,2.7135,2.8239,2.92,2.9982,3.115,3.17,3.1407,3.1456,3.1511,3.1511,3.1511,3.1511,3.1511,3.1511,3.1511,3.1511,3.1511,3.1511,3.1511,3.1511,3.166,3.1959,3.2049,3.2168,3.2542,3.2841,3.3036,3.305,3.3365,3.3799,3.4398,3.4278,3.4368,3.528,3.5489,3.5489,3.5489,3.5489,3.5489,3.5489,3.5489,3.5489,3.5489,3.5489,3.5489,3.5489,3.5489,3.5489,3.5489,3.5489,3.5489,3.5489,3.5489,3.5489,3.5489,3.5489,3.5489,2.3259,2.3259,2.314,2.3101,2.3101,2.3101,2.3162,2.3259,2.3281,2.3805,2.465,2.4764,2.59,2.7542,2.6874,2.7565,2.9131,2.865,2.8922,2.9902,3.008,3.008,3.0005,3.0105,3.003,2.9829,2.9905,2.993,2.9804,2.9779,2.9779,2.9779,2.9779,2.9779,2.9779,2.9333,2.9107,2.9032,2.8147,2.7544,2.7286,2.6901,2.6381,2.5854,2.5661,2.541,2.4992,2.4867,2.4816,2.4816,2.4917,2.5008,2.4967,2.5118,2.5385,2.5753,2.5787,2.6156,2.6926,2.8023,2.8978,2.9661,3.0951,3.1756,3.1797,3.1711,3.1738,3.19,3.2004,3.1989,3.2019,3.1989,3.1944,3.1974,3.1959,3.2019,3.1974,3.1929,3.2123,3.2632,3.2721,3.2931,3.3365,3.3634,3.3814,3.3963,3.3963,3.4173,3.4607,3.4727,3.4967,3.528,3.5383,3.534,3.5429,3.531,3.531,3.5429,3.5489,3.5489,3.5489,3.5489,3.5489,3.5489,3.5489,3.5489,3.5489,3.5489,3.5489,3.5489,3.5489,3.5489,3.5489,3.5489,3.5489,2.373,2.3672,2.3298,2.3101,2.312,2.312,2.3357,2.3711,2.373,2.399,2.4456,2.4689,2.5463,2.6545,2.6526,2.7124,2.8279,2.8644,2.9415,3.0443,3.1035,3.0984,3.0588,3.0984,3.0753,2.998,3.0287,3.0256,2.9854,2.9804,2.9779,2.9779,2.9779,2.9779,2.9779,2.9748,2.9704,2.9704,2.9082,2.8279,2.7361,2.7261,2.6977,2.6441,2.5904,2.5586,2.5536,2.5084,2.4816,2.4842,2.5285,2.5536,2.5586,2.603,2.6348,2.6399,2.6424,2.6969,2.8177,2.8925,2.932,2.9477,3.0273,3.0853,3.0987,3.1634,3.2425,3.2984,3.3244,3.3154,3.329,3.3199,3.3094,3.3019,3.3155,3.3335,3.3169,3.3305,3.3365,3.3365,3.3349,3.3455,3.3587,3.4022,3.4607,3.504,3.507,3.51,3.525,3.528,3.531,3.534,3.5027,3.4937,3.528,3.4967,3.5011,3.54,3.5489,3.5489,3.5489,3.5489,3.5489,3.5489,3.5489,3.5489,3.5489,3.5489,3.5489,3.5489,3.5489,3.5489,3.5489,3.5489,3.5489,2.416,2.4141,2.3942,2.3864,2.3845,2.3633,2.3769,2.4121,2.3887,2.4023,2.4401,2.4521,2.5208,2.6216,2.5561,2.6216,2.7843,2.8197,2.8946,3.0011,3.0636,3.0959,3.1085,3.0959,3.0834,3.0753,3.0658,3.0507,3.0256,2.9955,2.9955,3.0206,2.998,2.9779,2.9779,2.9779,2.9779,2.9779,2.9553,2.9051,2.8323,2.7921,2.7519,2.701,2.6716,2.6432,2.6172,2.5904,2.5804,2.5804,2.6005,2.613,2.6147,2.6373,2.665,2.6952,2.7261,2.768,2.8214,2.8794,2.9102,2.9102,3.0233,3.0976,3.1065,3.1847,3.258,3.2861,3.2796,3.2663,3.2692,3.2708,3.2663,3.2726,3.316,3.3284,3.2726,3.3176,3.345,3.3349,3.3755,3.3996,3.3972,3.4556,3.5158,3.5459,3.5489,3.5489,3.5473,3.5489,3.5489,3.5429,3.4937,3.4847,3.531,3.531,3.525,3.54,3.5489,3.5489,3.5489,3.5489,3.5489,3.5489,3.5489,3.5489,3.5489,3.5489,3.5489,3.5489,3.5489,3.5489,3.5489,3.5489,3.5489,2.459,2.459,2.4473,2.4414,2.4394,2.4102,2.4199,2.4531,2.4277,2.4375,2.4723,2.4762,2.5185,2.577,2.4878,2.5472,2.7129,2.7502,2.8251,2.9353,3.0302,3.0894,3.1108,3.1288,3.1311,3.1336,3.1165,3.0964,3.0763,3.0281,3.0211,3.0482,3.0055,2.9779,2.9779,2.9779,2.9779,2.9779,2.9779,2.9578,2.9132,2.8775,2.8222,2.7613,2.7519,2.7261,2.6751,2.6851,2.6876,2.6725,2.6851,2.6934,2.6952,2.6952,2.711,2.7494,2.8021,2.8329,2.8348,2.8831,2.9157,2.9214,3.0244,3.0932,3.1267,3.1829,3.2182,3.219,3.201,3.1943,3.2231,3.2236,3.2236,3.2286,3.287,3.2948,3.2397,3.2887,3.3167,3.3075,3.3433,3.3906,3.3796,3.438,3.4988,3.5004,3.5294,3.5326,3.5149,3.505,3.4971,3.4756,3.425,3.4479,3.5224,3.522,3.531,3.5489,3.5489,3.5489,3.5489,3.5489,3.5489,3.5489,3.5489,3.5489,3.5489,3.5489,3.5489,3.5489,3.5489,3.5489,3.5489,3.5489,3.5489,2.5063,2.5004,2.4609,2.4473,2.4434,2.4391,2.4629,2.5063,2.5004,2.5234,2.5562,2.5601,2.5664,2.5663,2.4848,2.5057,2.6165,2.679,2.7621,2.8746,3.0355,3.0884,3.057,3.2133,3.2411,3.1612,3.1838,3.1788,3.1361,3.0814,3.0563,3.0588,3.0105,2.9804,2.9779,2.9779,2.9779,2.9779,2.9779,2.9754,2.9729,2.9679,2.9126,2.8222,2.8072,2.7821,2.7369,2.7745,2.777,2.7286,2.7695,2.7996,2.7996,2.7978,2.8021,2.8104,2.858,2.8881,2.8932,2.9402,2.9704,2.9748,2.9864,3.0228,3.097,3.1167,3.1241,3.1259,3.1227,3.1504,3.2205,3.2299,3.238,3.2425,3.2579,3.2621,3.2543,3.2573,3.2624,3.2563,3.2642,3.2793,3.2753,3.3498,3.399,3.4228,3.4839,3.5067,3.4262,3.4075,3.3756,3.322,3.3007,3.3348,3.4942,3.498,3.4926,3.525,3.5489,3.5473,3.5489,3.5489,3.5489,3.5489,3.5489,3.5489,3.5489,3.5489,3.5489,3.5489,3.5489,3.5489,3.5489,3.5489,3.5489,2.5464,2.5464,2.5308,2.523,2.521,2.4961,2.5098,2.5445,2.5219,2.5312,2.5659,2.5698,2.5698,2.5698,2.5386,2.5444,2.5943,2.6886,2.7584,2.8143,2.9867,3.0773,3.1025,3.2037,3.2587,3.2512,3.229,3.2093,3.1888,3.1361,3.111,3.1035,3.0583,3.0156,2.9854,2.9779,2.9779,2.9779,2.9779,2.9779,2.9779,2.9779,2.9578,2.9202,2.8806,2.8355,2.7839,2.7996,2.7996,2.7821,2.8021,2.8122,2.8129,2.843,2.8605,2.8681,2.9132,2.9478,2.9503,2.9679,2.9779,2.9779,2.9779,2.9914,3.0216,3.033,3.0311,3.0305,3.0305,3.0514,3.079,3.1341,3.1719,3.1774,3.2218,3.229,3.1992,3.2182,3.2379,3.1856,3.1692,3.1893,3.2424,3.2894,3.3087,3.315,3.3429,3.3463,3.3272,3.3115,3.2929,3.27,3.2611,3.2834,3.3377,3.4049,3.4426,3.5112,3.5489,3.5441,3.5441,3.5473,3.5473,3.5489,3.5489,3.5489,3.5489,3.5489,3.5489,3.5489,3.5489,3.5489,3.5489,3.5489,3.5489,2.5698,2.5698,2.5698,2.5698,2.5679,2.541,2.5449,2.5679,2.541,2.5449,2.5679,2.5698,2.5698,2.5698,2.5698,2.5698,2.5771,2.662,2.6982,2.72,2.9128,3.0248,3.0771,3.189,3.2692,3.2989,3.2692,3.2491,3.2441,3.1938,3.1562,3.1361,3.0884,3.0337,2.988,2.9779,2.9779,2.9779,2.9779,2.9779,2.9779,2.9779,2.9779,2.9729,2.9383,2.8932,2.838,2.8549,2.8549,2.8405,2.853,2.8649,2.8699,2.8982,2.9183,2.9252,2.9553,2.9779,2.9779,2.9779,2.9779,2.9779,2.9779,2.9779,2.9779,2.9779,2.9779,2.9779,2.9779,2.9779,2.9914,3.04,3.0752,3.0827,3.1323,3.1471,3.0876,3.1304,3.1323,3.0902,3.0752,3.1044,3.1599,3.1956,3.2092,3.2146,3.2389,3.255,3.2218,3.2128,3.1992,3.1756,3.1573,3.1719,3.2155,3.2616,3.3166,3.3876,3.4789,3.4938,3.51,3.5228,3.5343,3.5408,3.5457,3.5473,3.5473,3.5473,3.5489,3.5489,3.5489,3.5489,3.5489,3.5489,3.5489,2.5698,2.5698,2.5698,2.5698,2.5698,2.5659,2.5698,2.5674,2.5679,2.5659,2.5698,2.5698,2.5698,2.5698,2.5698,2.5698,2.5742,2.5844,2.5893,2.6115,2.8242,2.9328,2.9533,3.1575,3.2688,3.2939,3.3068,3.3065,3.2989,3.2466,3.1989,3.1411,3.0989,3.0507,2.9829,2.988,2.9829,2.9804,2.9779,2.9779,2.9779,2.9779,2.9779,2.9779,2.9729,2.9478,2.8932,2.9428,2.9428,2.9032,2.9408,2.9754,2.9654,2.9704,2.9754,2.9704,2.9779,2.9779,2.9779,2.9779,2.9779,2.9779,2.9779,2.9779,2.9779,2.9779,2.9779,2.9779,2.9779,2.9779,2.9779,2.9876,2.9934,2.9818,3.0081,3.0062,2.9953,2.9837,2.9818,2.9895,2.9953,2.9818,3.0024,3.0658,3.1148,3.1315,3.1756,3.1992,3.1333,3.1212,3.0782,3.0228,3.0292,3.0677,3.0951,3.1259,3.1783,3.2442,3.3411,3.4024,3.416,3.4308,3.4509,3.4656,3.4938,3.4971,3.51,3.5149,3.5457,3.5489,3.5489,3.5457,3.5489,3.5489,3.5489,2.5698,2.5698,2.5698,2.5698,2.5698,2.5698,2.5698,2.5698,2.5698,2.5698,2.5698,2.5698,2.5698,2.5718,2.5698,2.5718,2.5698,2.5698,2.5718,2.6009,2.7434,2.8192,2.8495,2.9852,3.0978,3.1821,3.2698,3.3115,3.3065,3.2914,3.2516,3.2014,3.1788,3.1215,3.0407,3.0337,3.0206,2.9829,2.9779,2.9779,2.9779,2.9779,2.9779,2.9779,2.9779,2.9679,2.9528,2.9704,2.9704,2.9484,2.9679,2.9779,2.9779,2.9779,2.9779,2.9779,2.9779,2.9779,2.9779,2.9779,2.9779,2.9779,2.9779,2.9779,2.9779,2.9779,2.9779,2.9779,2.9779,2.9779,2.9779,2.9779,2.9779,2.9779,2.9779,2.9779,2.9779,2.9779,2.9779,2.9779,2.9779,2.9779,2.9818,3.0196,3.0286,3.0305,3.0582,3.0564,3.0362,3.0343,3.0216,2.9837,2.9837,2.9856,3.0247,3.0507,3.0771,3.1415,3.2299,3.3027,3.3185,3.3498,3.3734,3.3939,3.4228,3.4442,3.456,3.4756,3.4955,3.5264,3.5215,3.531,3.5441,3.5326,3.5034,2.5698,2.5698,2.5698,2.5698,2.5698,2.5698,2.5698,2.5698,2.5698,2.5698,2.5698,2.5698,2.5791,2.5932,2.5952,2.605,2.6167,2.6161,2.6186,2.6305,2.7109,2.7576,2.7861,2.9327,3.071,3.1821,3.272,3.3115,3.3115,3.309,3.2788,3.2269,3.2215,3.1742,3.0939,3.0688,3.0387,3.0131,2.9905,2.9779,2.9779,2.9779,2.9779,2.9779,2.9779,2.9779,2.9779,2.9779,2.9779,2.9779,2.9779,2.9779,2.9779,2.9779,2.9779,2.9779,2.9779,2.9779,2.9779,2.9779,2.9779,2.9779,2.9779,2.9779,2.9779,2.9779,2.9779,2.9779,2.9779,2.9779,2.9779,2.9779,2.9779,2.9779,2.9779,2.9779,2.9779,2.9779,2.9779,2.9779,2.9779,2.9779,2.9779,2.9779,2.9779,2.9779,2.9779,2.9779,2.9779,2.9818,2.9779,2.9798,2.9798,2.9798,2.9798,2.9837,2.9837,3.0476,3.123,3.1792,3.2128,3.2664,3.3017,3.3133,3.3377,3.3446,3.3567,3.3802,3.4024,3.4392,3.4622,3.4257,3.4007,3.4092,3.3956,2.5737,2.5693,2.5698,2.5698,2.5698,2.5698,2.5698,2.5698,2.5698,2.5698,2.5698,2.5698,2.5913,2.625,2.6269,2.6484,2.6894,2.6889,2.685,2.6956,2.7337,2.7437,2.7576,2.9669,3.1273,3.2261,3.2949,3.3169,3.3241,3.314,3.2842,3.2491,3.239,3.2014,3.1486,3.0959,3.0763,3.0608,3.0156,2.9905,2.988,2.9804,2.9779,2.9779,2.9779,2.9779,2.9779,2.9779,2.9779,2.9779,2.9779,2.9779,2.9779,2.9779,2.9779,2.9779,2.9779,2.9779,2.9779,2.9779,2.9779,2.9779,2.9779,2.9779,2.9779,2.9779,2.9779,2.9779,2.9779,2.9779,2.9779,2.9779,2.9779,2.9779,2.9779,2.9779,2.9779,2.9779,2.9779,2.9779,2.9779,2.9779,2.9779,2.9779,2.9779,2.9779,2.9779,2.9779,2.9779,2.9779,2.9779,2.9779,2.9779,2.9779,2.9779,2.9779,2.9779,3.0011,3.0545,3.082,3.1156,3.1646,3.1938,3.2065,3.2397,3.2486,3.2664,3.2939,3.3098,3.329,3.3168,3.2682,3.2753,3.3098,3.3168,2.601,2.5718,2.5698,2.5698,2.5698,2.5698,2.5698,2.5698,2.5698,2.5698,2.5698,2.5698,2.5796,2.5913,2.6269,2.6465,2.6699,2.6934,2.7012,2.6998,2.7095,2.6764,2.6899,2.9077,3.0468,3.085,3.2658,3.3671,3.3668,3.3345,3.3244,3.3445,3.2993,3.2587,3.2039,3.1813,3.1562,3.116,3.0638,3.0362,3.0306,2.998,2.9779,2.9779,2.9779,2.9779,2.9779,2.9779,2.9779,2.9779,2.9779,2.9779,2.9779,2.9779,2.9779,2.9779,2.9779,2.9779,2.9779,2.9779,2.9779,2.9779,2.9779,2.9779,2.9779,2.9779,2.9779,2.9779,2.9779,2.9779,2.9779,2.9779,2.9779,2.9779,2.9779,2.9779,2.9779,2.9779,2.9779,2.9779,2.9779,2.9779,2.9779,2.9779,2.9779,2.9779,2.9779,2.9779,2.9779,2.9779,2.9779,2.9779,2.9779,2.9779,2.9779,2.9779,2.9779,2.9824,3.0011,3.0081,3.0247,3.0438,3.0476,3.0457,3.1286,3.1554,3.1865,3.2173,3.2218,3.2164,3.2299,3.2155,3.2415,3.2727,3.2621,2.5952,2.5698,2.5698,2.5698,2.5698,2.5698,2.5698,2.5698,2.5698,2.5698,2.5698,2.5698,2.5913,2.6264,2.6543,2.6875,2.7187,2.7441,2.7559,2.7519,2.7389,2.7249,2.7516,2.9021,2.9984,3.0951,3.2517,3.3617,3.4109,3.3897,3.3872,3.3796,3.3592,3.3165,3.2612,3.229,3.2089,3.1687,3.121,3.0839,3.0608,3.0331,3.0005,2.9854,2.9779,2.9779,2.9779,2.9779,2.9779,2.9779,2.9779,2.9779,2.9779,2.9779,2.9779,2.9779,2.9779,2.9779,2.9779,2.9779,2.9779,2.9779,2.9779,2.9779,2.9779,2.9779,2.9779,2.9779,2.9779,2.9779,2.9779,2.9779,2.9779,2.9779,2.9779,2.9779,2.9779,2.9779,2.9779,2.9779,2.9779,2.9779,2.9779,2.9779,2.9779,2.9779,2.9779,2.9779,2.9779,2.9779,2.9779,2.9779,2.9779,2.9779,2.9779,2.9779,2.9779,2.9798,2.9798,2.9779,2.9779,2.9779,2.9837,3.0005,3.04,3.0714,3.1007,3.1156,3.1015,3.1063,3.1397,3.1526,3.1581,3.1829,3.1774,2.5796,2.5776,2.5713,2.5698,2.5718,2.5757,2.5776,2.5718,2.5796,2.5815,2.5815,2.5771,2.6225,2.6986,2.7031,2.7461,2.8125,2.8105,2.8203,2.8086,2.795,2.7926,2.8375,2.8857,3.02,3.1855,3.2535,3.3632,3.4409,3.4678,3.4477,3.4274,3.4098,3.3693,3.3194,3.2717,3.2394,3.224,3.1763,3.1336,3.1009,3.0783,3.0457,3.003,2.9829,2.9804,2.9779,2.9779,2.9779,2.9779,2.9779,2.9779,2.9779,2.9779,2.9779,2.9779,2.9779,2.9779,2.9779,2.9779,2.9779,2.9779,2.9779,2.9779,2.9779,2.9779,2.9779,2.9779,2.9779,2.9779,2.9779,2.9779,2.9779,2.9779,2.9779,2.9779,2.9779,2.9779,2.9779,2.9779,2.9779,2.9779,2.9779,2.9779,2.9779,2.9779,2.9779,2.9779,2.9779,2.9779,2.9779,2.9779,2.9779,2.9779,2.9779,2.9779,2.9779,2.9779,2.9779,2.9779,2.9779,2.9779,2.9779,2.9934,3.0158,3.0177,3.012,3.0081,3.0043,3.012,3.0552,3.0273,2.9985,3.0457,3.0608,2.625,2.6211,2.583,2.5698,2.5776,2.6069,2.603,2.5713,2.6089,2.625,2.625,2.625,2.6543,2.7025,2.7363,2.7682,2.7936,2.8144,2.8301,2.8281,2.8223,2.8231,2.8573,2.9039,3.0126,3.1484,3.2769,3.4001,3.4956,3.5029,3.4879,3.5056,3.4653,3.4274,3.3771,3.352,3.3294,3.2914,3.234,3.1989,3.1738,3.1386,3.0959,3.0432,3.003,2.9804,2.9779,2.9779,2.9779,2.9779,2.9779,2.9779,2.9779,2.9779,2.9779,2.9779,2.9779,2.9779,2.9779,2.9779,2.9779,2.9779,2.9779,2.9779,2.9779,2.9779,2.9779,2.9779,2.9779,2.9779,2.9779,2.9779,2.9779,2.9779,2.9779,2.9779,2.9779,2.9779,2.9779,2.9779,2.9779,2.9779,2.9779,2.9779,2.9779,2.9779,2.9779,2.9779,2.9779,2.9779,2.9779,2.9779,2.9779,2.9779,2.9779,2.9779,2.9779,2.9779,2.9779,2.9779,2.9779,2.9779,2.9779,2.9779,2.9818,2.9779,2.9779,2.9798,2.9914,2.9837,2.9779,2.9779,2.9779,2.9779,2.9924,2.6562,2.6367,2.6133,2.601,2.6074,2.6269,2.6152,2.5893,2.6426,2.6562,2.6465,2.6607,2.6914,2.7305,2.7585,2.778,2.7969,2.8164,2.8301,2.8301,2.8281,2.8281,2.8342,2.8943,2.9803,3.1392,3.2408,3.3934,3.5314,3.5629,3.5529,3.5483,3.523,3.4803,3.4299,3.4048,3.3746,3.342,3.2918,3.2516,3.2169,3.1938,3.1361,3.0738,3.0287,3.008,2.9829,2.9779,2.9779,2.9779,2.9779,2.9779,2.9779,2.9779,2.9779,2.9779,2.9779,2.9779,2.9779,2.9779,2.9779,2.9779,2.9779,2.9779,2.9779,2.9779,2.9779,2.9779,2.9779,2.9779,2.9779,2.9779,2.9779,2.9779,2.9804,2.9779,2.9779,2.9779,2.9779,2.9779,2.9779,2.9779,2.9779,2.9829,2.9804,2.9804,2.9798,2.9798,2.9798,2.9798,2.9779,2.9779,2.9779,2.9779,2.9779,2.9779,2.9779,2.9779,2.9779,2.9779,2.9779,2.9779,2.9779,2.9779,2.9779,2.9779,2.9779,2.9779,2.9804,2.9804,2.9804,2.9804,2.988,3.008,3.0231,2.6855,2.6588,2.6504,2.6484,2.6484,2.6509,2.6309,2.6089,2.6674,2.6855,2.6699,2.6973,2.7344,2.7721,2.78,2.8015,2.8203,2.8281,2.8301,2.8301,2.8301,2.8301,2.8335,2.8595,2.9771,3.2028,3.2387,3.3777,3.5688,3.638,3.6031,3.5732,3.5656,3.533,3.4828,3.4449,3.4173,3.3997,3.3495,3.3043,3.2595,3.2441,3.1863,3.114,3.0613,3.0482,3.0181,2.998,2.9829,2.9905,2.9854,2.9804,2.9779,2.9779,2.9779,2.9779,2.9779,2.9779,2.9779,2.9779,2.9779,2.9779,2.9779,2.9779,2.9779,2.9905,3.0005,2.998,3.0025,3.0055,3.0005,3.003,2.998,2.9955,2.9955,2.993,2.9905,2.9905,2.9955,2.9804,2.9955,3.003,2.9955,2.993,2.9854,2.9829,2.9849,2.9874,2.9924,2.9874,2.9905,2.988,2.9905,2.9804,2.9779,2.9829,2.9804,2.9854,2.9829,2.9829,2.9854,3.0005,3.003,2.9829,2.9779,2.9829,2.9829,2.9779,2.9804,2.9829,3.0005,3.0156,3.0306,3.0457,3.0583,2.7187,2.7448,2.707,2.6889,2.6914,2.6914,2.6855,2.6791,2.6947,2.7207,2.7467,2.7545,2.7819,2.8086,2.8184,2.8242,2.8281,2.8301,2.8301,2.8301,2.8301,2.8301,2.8301,2.8354,2.9781,3.1622,3.2381,3.3774,3.581,3.6405,3.6306,3.623,3.6205,3.5881,3.5506,3.5232,3.4904,3.4502,3.3975,3.3596,3.342,3.3018,3.2541,3.1763,3.1135,3.0859,3.0809,3.0281,3.0005,3.0362,3.003,2.9854,2.9779,2.9779,2.9779,2.9779,2.9779,2.9779,2.9779,2.9779,2.9779,2.9779,2.9829,2.9854,2.9955,3.0211,3.0412,3.0462,3.0507,3.0633,3.108,3.0708,3.0487,3.0462,3.0482,3.0482,3.0482,3.0457,3.0312,3.0105,3.0231,3.0382,3.0331,3.0306,3.0306,3.0281,3.0206,3.0331,3.0457,3.0281,3.0131,3.0105,3.0061,2.993,2.9779,2.9829,2.988,2.993,2.993,2.993,3.003,3.0287,3.0312,3.0231,3.008,3.003,2.998,2.9955,3.0131,3.0382,3.0507,3.0608,3.0809,3.0984,3.116,2.7676,2.7663,2.7467,2.7363,2.7344,2.7344,2.7226,2.7109,2.748,2.7676,2.7761,2.7917,2.8112,2.8262,2.8301,2.8301,2.8301,2.8301,2.8301,2.8301,2.8301,2.8301,2.8301,2.8301,2.9964,3.1622,3.2431,3.3677,3.6168,3.6381,3.6405,3.6405,3.6405,3.623,3.5956,3.5631,3.5408,3.4979,3.4377,3.3922,3.3872,3.3391,3.2813,3.2215,3.1712,3.1336,3.0909,3.0954,3.0432,3.0256,3.0206,3.0055,2.988,2.9804,2.9804,2.9804,2.9804,2.9804,2.9779,2.9804,2.9905,3.0206,3.0231,3.0382,3.0583,3.0859,3.1009,3.1035,3.1009,3.111,3.1336,3.116,3.106,3.0989,3.0989,3.1009,3.1009,3.1009,3.0859,3.0633,3.0859,3.0984,3.0859,3.0834,3.0834,3.0758,3.0608,3.0758,3.0964,3.0783,3.0532,3.0583,3.0608,3.0532,3.0331,3.0231,3.0206,3.0206,3.0206,3.0206,3.0382,3.0688,3.0839,3.0834,3.0658,3.0653,3.0653,3.0803,3.0859,3.0934,3.1009,3.1135,3.1336,3.1537,3.1712,2.8054,2.7845,2.7819,2.7819,2.78,2.7721,2.7565,2.7441,2.7871,2.8015,2.7897,2.8132,2.8281,2.8301,2.8301,2.8301,2.8301,2.8301,2.8301,2.8301,2.8301,2.8301,2.8301,2.8575,2.9493,3.129,3.1749,3.3504,3.5906,3.6405,3.6405,3.6405,3.6405,3.6405,3.6256,3.5956,3.5732,3.538,3.4778,3.4201,3.3822,3.3391,3.2889,3.239,3.2269,3.1813,3.1461,3.1235,3.0929,3.0552,3.0382,3.0337,2.993,2.9905,2.9955,2.9955,2.9955,2.9955,3.0005,3.0181,3.0432,3.0733,3.0758,3.1009,3.126,3.1411,3.1633,3.1708,3.1607,3.1687,3.1838,3.1637,3.1587,3.1562,3.1562,3.1537,3.1562,3.1587,3.1712,3.1637,3.1687,3.1537,3.1356,3.1411,3.1411,3.1135,3.0984,3.126,3.1411,3.1286,3.1135,3.1205,3.1231,3.1231,3.108,3.0834,3.0783,3.0758,3.0758,3.0758,3.0959,3.121,3.1311,3.1461,3.1758,3.1758,3.1683,3.1457,3.1361,3.1361,3.1507,3.1733,3.206,3.2215,3.234,2.7956,2.8223,2.8203,2.8249,2.8171,2.7858,2.7897,2.8066,2.7917,2.7976,2.8164,2.8262,2.8301,2.8301,2.8301,2.8301,2.8301,2.8301,2.8301,2.8301,2.8301,2.8301,2.8301,2.8301,2.9171,3.0618,3.0721,3.2858,3.5186,3.6048,3.6287,3.6239,3.631,3.6405,3.638,3.623,3.6281,3.6155,3.5606,3.4828,3.3997,3.342,3.3115,3.2914,3.2566,3.2294,3.2286,3.1913,3.1381,3.116,3.0783,3.0362,2.998,3.0281,3.0482,3.0512,3.0487,3.0532,3.0583,3.0809,3.111,3.126,3.1311,3.1336,3.1633,3.1964,3.2315,3.2864,3.2462,3.2315,3.2491,3.2365,3.219,3.2114,3.2114,3.2114,3.2114,3.216,3.2265,3.2437,3.2437,3.2035,3.1687,3.1863,3.1943,3.1637,3.1482,3.1738,3.1913,3.1838,3.1738,3.1859,3.1884,3.1859,3.1783,3.1537,3.1361,3.1311,3.1311,3.1311,3.1486,3.1712,3.1989,3.219,3.2512,3.2462,3.206,3.1813,3.1763,3.1863,3.2085,3.2462,3.2864,3.2964,3.2968,2.7559,2.7976,2.8203,2.8301,2.8281,2.8086,2.8151,2.8223,2.8132,2.8151,2.8281,2.8301,2.8301,2.8301,2.8301,2.8301,2.8301,2.8301,2.8301,2.8301,2.8301,2.8301,2.8301,2.8381,2.9006,2.9885,3.0488,3.144,3.3725,3.4921,3.5283,3.5427,3.6001,3.6405,3.6405,3.6405,3.6405,3.623,3.5805,3.5107,3.4402,3.3872,3.3567,3.352,3.2993,3.2742,3.2541,3.2591,3.1938,3.1637,3.1361,3.124,3.0884,3.0934,3.106,3.106,3.1361,3.1361,3.116,3.1311,3.1562,3.1788,3.1888,3.2014,3.2311,3.2537,3.2763,3.304,3.2889,3.2889,3.3014,3.2842,3.2788,3.2692,3.2616,3.2641,3.2641,3.2713,3.2813,3.2989,3.3065,3.2612,3.2261,3.239,3.2516,3.2411,3.2261,3.2437,3.2587,3.2612,3.2537,3.2512,3.2512,3.2512,3.2386,3.219,3.1938,3.1863,3.1842,3.1867,3.1989,3.219,3.2466,3.2641,3.2839,3.2663,3.2315,3.234,3.2437,3.2562,3.2692,3.2964,3.3241,3.3517,3.3596,2.7207,2.7565,2.8093,2.8301,2.8301,2.8301,2.8281,2.8301,2.8281,2.8281,2.8301,2.8301,2.8301,2.8301,2.8301,2.8301,2.8327,2.8398,2.8359,2.834,2.8379,2.8398,2.834,2.8408,2.8814,2.9807,2.9618,3.054,3.1825,3.3105,3.4043,3.4434,3.581,3.631,3.6405,3.6405,3.6405,3.6355,3.5807,3.5282,3.4879,3.4377,3.4073,3.3822,3.347,3.304,3.2591,3.2767,3.2512,3.1913,3.1913,3.1788,3.1386,3.1461,3.1587,3.1712,3.2039,3.2215,3.1989,3.2009,3.2064,3.2244,3.242,3.2566,3.2914,3.3115,3.3115,3.3115,3.3065,3.3065,3.309,3.3065,3.304,3.3014,3.304,3.309,3.309,3.3014,3.2964,3.304,3.3115,3.3115,3.2889,3.2989,3.304,3.3065,3.309,3.3115,3.309,3.3065,3.2989,3.2839,3.2839,3.2839,3.2788,3.2663,3.2466,3.2365,3.2365,3.2416,3.2491,3.2616,3.2864,3.304,3.3115,3.3165,3.3014,3.3065,3.309,3.304,3.3018,3.3219,3.347,3.3822,3.4148,2.7031,2.7129,2.7949,2.8281,2.8301,2.8301,2.8301,2.8301,2.8301,2.8301,2.8301,2.8301,2.8301,2.8301,2.8301,2.8301,2.832,2.8691,2.8613,2.8555,2.8613,2.8574,2.8418,2.8354,2.8388,2.8575,2.8761,2.9434,3.054,3.2129,3.3254,3.441,3.5739,3.6239,3.6405,3.6405,3.6405,3.6306,3.5881,3.5608,3.5307,3.4929,3.4474,3.4073,3.3872,3.3596,3.309,3.309,3.2889,3.2169,3.2265,3.2164,3.1863,3.2014,3.2139,3.229,3.2591,3.2788,3.2713,3.2713,3.2914,3.3014,3.2989,3.2939,3.309,3.3115,3.3115,3.3115,3.3115,3.3115,3.3115,3.3115,3.3115,3.3115,3.3115,3.3115,3.3115,3.309,3.3065,3.309,3.3115,3.3115,3.3115,3.3115,3.3115,3.3115,3.3115,3.3115,3.3115,3.309,3.309,3.304,3.304,3.304,3.3065,3.2939,3.2813,3.2763,3.2788,3.2864,3.2939,3.3115,3.3115,3.3165,3.3215,3.3442,3.3668,3.3643,3.352,3.3341,3.337,3.3746,3.4051,3.4402,3.4628,2.6777,2.707,2.7676,2.8073,2.8301,2.8301,2.8301,2.8301,2.8301,2.8301,2.8301,2.8301,2.8301,2.8301,2.832,2.8457,2.8652,2.8809,2.8769,2.8769,2.8809,2.8652,2.8437,2.8301,2.8301,2.8301,2.8361,2.9006,3.0359,3.1647,3.303,3.4386,3.5739,3.6216,3.6405,3.6405,3.6405,3.638,3.6205,3.6056,3.5931,3.5506,3.5082,3.4929,3.4073,3.3872,3.3571,3.3244,3.2993,3.2817,3.2767,3.2587,3.2411,3.2638,3.2692,3.2742,3.3065,3.3115,3.314,3.3115,3.3115,3.3115,3.309,3.3115,3.3115,3.3115,3.3115,3.3115,3.314,3.319,3.314,3.3115,3.3115,3.3115,3.314,3.3165,3.3215,3.3291,3.3215,3.3266,3.3165,3.3115,3.3115,3.3115,3.3115,3.3115,3.3115,3.3115,3.3115,3.3115,3.3115,3.3115,3.3115,3.3115,3.3115,3.3115,3.3115,3.3115,3.3115,3.319,3.3241,3.3115,3.314,3.319,3.342,3.3746,3.3972,3.4048,3.4022,3.3947,3.4148,3.4477,3.4778,3.5029,3.5205,2.6445,2.6855,2.7174,2.7624,2.8086,2.8242,2.8301,2.8301,2.8301,2.8301,2.8301,2.8301,2.8301,2.8301,2.8301,2.8535,2.8762,2.8879,2.8898,2.8879,2.884,2.8672,2.8418,2.8301,2.8301,2.8301,2.8388,2.8979,3.0307,3.1647,3.303,3.4386,3.5643,3.6263,3.6405,3.6405,3.6405,3.6405,3.6405,3.6405,3.6281,3.6006,3.5558,3.5456,3.4753,3.4377,3.4151,3.3872,3.3721,3.3571,3.347,3.3366,3.3266,3.3241,3.3215,3.3291,3.3341,3.3341,3.3316,3.3165,3.3115,3.3115,3.3115,3.3115,3.3115,3.3115,3.314,3.3416,3.337,3.337,3.3492,3.3718,3.3746,3.3847,3.3517,3.3517,3.3643,3.3696,3.3542,3.3442,3.3366,3.3366,3.3266,3.3291,3.3316,3.3241,3.3115,3.3115,3.3115,3.3115,3.3115,3.3115,3.3115,3.3115,3.3115,3.314,3.319,3.3215,3.3266,3.3416,3.3442,3.3366,3.352,3.3822,3.4073,3.4176,3.4427,3.4703,3.4703,3.4628,3.4879,3.5079,3.5504,3.573,3.5855,2.5991,2.6387,2.647,2.6959,2.7721,2.8151,2.8308,2.8301,2.8301,2.8301,2.8301,2.8301,2.8301,2.8301,2.8301,2.8535,2.882,2.8898,2.8898,2.8898,2.8879,2.8672,2.8437,2.8301,2.8301,2.8301,2.8388,2.8979,3.0307,3.1647,3.303,3.4434,3.5741,3.648,3.643,3.6405,3.6405,3.6405,3.6405,3.6405,3.638,3.6281,3.6006,3.5682,3.5355,3.4981,3.4728,3.4477,3.4327,3.4301,3.4048,3.3897,3.3872,3.3517,3.3542,3.3869,3.3872,3.3897,3.3847,3.3416,3.3215,3.3165,3.3165,3.3266,3.319,3.3215,3.342,3.3847,3.3897,3.4101,3.4352,3.4552,3.4477,3.4349,3.4022,3.3922,3.4073,3.4123,3.3947,3.3872,3.3822,3.3746,3.3571,3.347,3.3542,3.3442,3.319,3.3165,3.3291,3.3416,3.3517,3.3567,3.3567,3.3416,3.3442,3.3316,3.3291,3.3316,3.3492,3.3746,3.3972,3.4098,3.4299,3.4502,3.4653,3.4728,3.5104,3.5433,3.538,3.5328,3.5406,3.5631,3.6105,3.6306,3.6306,2.5796,2.5952,2.6269,2.6719,2.7266,2.7721,2.8054,2.8262,2.8301,2.8301,2.8301,2.8301,2.8301,2.8301,2.834,2.8516,2.8848,2.8898,2.8898,2.8898,2.8879,2.8652,2.8418,2.8301,2.8301,2.8301,2.8388,2.8979,3.0307,3.1622,3.3005,3.4434,3.5986,3.6636,3.6505,3.6405,3.6405,3.6405,3.6405,3.6405,3.6405,3.6405,3.6281,3.6031,3.5732,3.5433,3.5255,3.5029,3.4853,3.4828,3.455,3.4474,3.4402,3.4123,3.4223,3.4424,3.4427,3.4427,3.4276,3.3947,3.347,3.3391,3.3416,3.3545,3.3621,3.3997,3.4226,3.4352,3.4449,3.4577,3.4628,3.4678,3.4628,3.4603,3.4449,3.4452,3.4502,3.4502,3.4427,3.4449,3.4402,3.4377,3.4251,3.4198,3.4198,3.4324,3.422,3.4048,3.4123,3.4223,3.4301,3.4324,3.4274,3.3997,3.3844,3.3771,3.3696,3.3721,3.3997,3.4374,3.4552,3.4751,3.4753,3.4853,3.5079,3.5282,3.5556,3.5782,3.5956,3.6029,3.5956,3.5956,3.623,3.638,3.638,2.5698,2.5713,2.601,2.6504,2.7031,2.7506,2.7936,2.8242,2.8301,2.8301,2.8301,2.8301,2.8301,2.8301,2.832,2.8535,2.884,2.875,2.884,2.884,2.873,2.8535,2.8359,2.8301,2.8301,2.8301,2.8381,2.8847,2.9592,3.1418,3.3304,3.5114,3.6452,3.6838,3.6783,3.6733,3.6606,3.6531,3.6405,3.6405,3.6405,3.6405,3.6405,3.6281,3.6056,3.5807,3.5707,3.5529,3.5278,3.5228,3.5104,3.5004,3.4979,3.4828,3.4853,3.4904,3.4956,3.4956,3.4853,3.4477,3.4048,3.3822,3.3897,3.3972,3.4148,3.4427,3.4728,3.4879,3.4979,3.5104,3.5203,3.5177,3.5203,3.5203,3.5054,3.5054,3.5203,3.5203,3.4979,3.4979,3.4979,3.4979,3.4979,3.5029,3.5004,3.5152,3.5278,3.5102,3.4853,3.4853,3.4853,3.4828,3.4753,3.45,3.4374,3.4399,3.4299,3.4198,3.455,3.4954,3.513,3.5328,3.5255,3.5255,3.5579,3.583,3.5906,3.608,3.618,3.6279,3.6281,3.6306,3.6405,3.6405,3.6405,2.5698,2.5698,2.5698,2.6206,2.6973,2.7487,2.791,2.8281,2.8301,2.8301,2.8301,2.8301,2.8301,2.8301,2.8301,2.8496,2.8703,2.8476,2.8594,2.8672,2.8535,2.8379,2.832,2.8301,2.8301,2.8301,2.8327,2.8415,2.8708,3.0669,3.3231,3.5599,3.6528,3.6918,3.699,3.7261,3.7085,3.6909,3.6632,3.6607,3.6607,3.6455,3.643,3.638,3.6281,3.6256,3.6205,3.6155,3.618,3.608,3.583,3.5631,3.5406,3.5029,3.5205,3.5357,3.5508,3.5556,3.5456,3.5029,3.4879,3.4675,3.4349,3.4377,3.4603,3.4929,3.523,3.5431,3.5556,3.5881,3.6105,3.613,3.6155,3.5979,3.573,3.583,3.6055,3.5931,3.5631,3.5556,3.5531,3.5531,3.5556,3.5581,3.5604,3.578,3.5828,3.5629,3.5403,3.5203,3.5203,3.518,3.5054,3.4926,3.4853,3.4954,3.4904,3.4801,3.5203,3.5604,3.5755,3.583,3.583,3.5929,3.6205,3.6331,3.623,3.6256,3.6355,3.6405,3.6405,3.6405,3.6405,3.6405,3.6405,2.5698,2.5698,2.5698,2.603,2.6666,2.7389,2.7936,2.8262,2.8301,2.8301,2.8301,2.8301,2.8301,2.8301,2.8301,2.8379,2.8398,2.8379,2.8379,2.8379,2.8379,2.832,2.8301,2.8301,2.8301,2.8301,2.8301,2.8327,2.8681,3.0328,3.2682,3.5106,3.6308,3.6727,3.7368,3.7989,3.7864,3.7587,3.7186,3.6959,3.6808,3.6631,3.6531,3.643,3.6405,3.6405,3.6405,3.6405,3.6405,3.6306,3.623,3.6155,3.6105,3.6004,3.608,3.6105,3.6155,3.6155,3.6031,3.5606,3.5406,3.5604,3.5303,3.5155,3.533,3.5556,3.5855,3.5956,3.6006,3.623,3.6306,3.638,3.6405,3.6256,3.6081,3.618,3.6331,3.6256,3.5981,3.5981,3.5981,3.5981,3.6006,3.6031,3.608,3.6281,3.6329,3.6105,3.5929,3.5728,3.5627,3.5579,3.5579,3.5479,3.5529,3.5606,3.5506,3.5504,3.5805,3.6031,3.6105,3.6205,3.6355,3.6405,3.6405,3.6405,3.6405,3.6405,3.6405,3.6405,3.6405,3.6405,3.643,3.6505,3.6507,2.5698,2.5698,2.5698,2.5952,2.649,2.7154,2.7656,2.8054,2.8223,2.8301,2.8301,2.8301,2.8301,2.8301,2.8301,2.8301,2.8301,2.832,2.832,2.832,2.8301,2.8301,2.8301,2.8301,2.8301,2.8301,2.8301,2.8301,2.8761,3.0349,3.2684,3.4765,3.5931,3.6924,3.7692,3.8492,3.8969,3.8517,3.8015,3.7537,3.716,3.6884,3.6658,3.6455,3.643,3.6405,3.6405,3.6405,3.6405,3.6405,3.6405,3.6405,3.6405,3.638,3.638,3.638,3.638,3.6355,3.6281,3.6081,3.613,3.6205,3.6056,3.5931,3.5906,3.6105,3.623,3.6306,3.638,3.6405,3.6405,3.6405,3.6405,3.6405,3.6405,3.6405,3.6405,3.6405,3.638,3.638,3.638,3.6355,3.638,3.6405,3.6405,3.6405,3.6405,3.6329,3.623,3.6155,3.6105,3.608,3.613,3.6155,3.6157,3.6081,3.5981,3.5929,3.608,3.6281,3.6405,3.6405,3.6405,3.6405,3.6405,3.643,3.648,3.643,3.6405,3.648,3.6582,3.6607,3.6708,3.6808,3.6833,2.5679,2.5698,2.5718,2.5971,2.6406,2.6816,2.7207,2.7663,2.7969,2.8203,2.8203,2.8223,2.8203,2.8164,2.8242,2.8301,2.8301,2.8301,2.8301,2.8301,2.8301,2.8301,2.8301,2.8301,2.8301,2.8301,2.8301,2.8327,2.8979,3.0401,3.2272,3.4382,3.6405,3.7494,3.7966,3.9019,3.9396,3.9044,3.8567,3.809,3.7587,3.7261,3.696,3.6557,3.6455,3.6405,3.6405,3.6405,3.6405,3.6405,3.6405,3.6405,3.6405,3.6405,3.6405,3.6405,3.6405,3.6405,3.6405,3.6281,3.6306,3.638,3.6405,3.6281,3.6281,3.6306,3.6405,3.6405,3.6405,3.6405,3.6405,3.6405,3.6405,3.6405,3.6405,3.6405,3.6405,3.6405,3.6405,3.6405,3.6405,3.6405,3.6405,3.6405,3.6405,3.6405,3.6405,3.6405,3.6405,3.6405,3.6405,3.6405,3.6405,3.638,3.6331,3.6281,3.6331,3.6355,3.6405,3.6405,3.6405,3.6405,3.6405,3.6405,3.643,3.6482,3.6532,3.6582,3.6708,3.6859,3.6934,3.6909,3.7009,3.7261,3.7287,2.543,2.5698,2.5698,2.5971,2.6367,2.6504,2.6777,2.7168,2.7266,2.75,2.78,2.7839,2.7885,2.7917,2.8171,2.8242,2.8281,2.8301,2.8301,2.8301,2.8301,2.8301,2.8301,2.8301,2.8301,2.8301,2.8301,2.8327,2.8734,3.0089,3.1764,3.3549,3.5671,3.6994,3.8116,3.9195,3.9521,3.9295,3.9195,3.8843,3.8441,3.7637,3.7085,3.6833,3.6708,3.6455,3.6405,3.6405,3.6405,3.6405,3.6405,3.6405,3.6405,3.6405,3.6405,3.6405,3.6405,3.6405,3.6405,3.6405,3.6405,3.6405,3.6405,3.6405,3.6405,3.6405,3.6405,3.6405,3.6405,3.6405,3.6405,3.6405,3.6405,3.6405,3.6405,3.6405,3.6405,3.6405,3.6405,3.6405,3.6405,3.6405,3.6405,3.6405,3.6405,3.6405,3.6405,3.6405,3.6405,3.6405,3.6405,3.6405,3.6405,3.6405,3.6405,3.6405,3.6405,3.6405,3.6405,3.6405,3.6405,3.6405,3.6405,3.6405,3.643,3.6632,3.6884,3.7009,3.7135,3.7262,3.7387,3.7412,3.7738,3.8014,3.7965,2.5239,2.5425,2.562,2.5854,2.605,2.6094,2.6348,2.666,2.6518,2.6699,2.7135,2.7311,2.7487,2.7669,2.7956,2.821,2.8262,2.8301,2.8301,2.8301,2.8301,2.8301,2.8301,2.8301,2.8301,2.8301,2.8301,2.8381,2.8521,2.9717,3.1344,3.3196,3.5062,3.6838,3.8266,3.9195,3.9546,3.9321,3.9546,3.9471,3.9095,3.824,3.7261,3.6959,3.6607,3.6405,3.6405,3.6405,3.6405,3.6405,3.6405,3.6405,3.6405,3.6405,3.6405,3.6405,3.6405,3.6405,3.6405,3.6405,3.6405,3.6405,3.6405,3.6405,3.6405,3.6405,3.6405,3.6405,3.6405,3.6405,3.6405,3.6405,3.6405,3.6405,3.6405,3.6405,3.6405,3.6405,3.6405,3.6405,3.6405,3.6405,3.6405,3.6405,3.6405,3.6405,3.6405,3.6405,3.6405,3.6405,3.6405,3.6405,3.6405,3.6405,3.6405,3.6405,3.6405,3.6405,3.6405,3.643,3.643,3.643,3.6405,3.6632,3.6859,3.7085,3.7286,3.7487,3.7588,3.7713,3.7864,3.799,3.8341,3.8693,3.8642,2.5082,2.5239,2.5562,2.5718,2.5718,2.5718,2.5932,2.6211,2.5893,2.5952,2.6348,2.6674,2.7109,2.7487,2.78,2.8034,2.8184,2.8281,2.8301,2.8301,2.8301,2.8301,2.8301,2.8301,2.8301,2.8301,2.8301,2.8301,2.8361,3.0062,3.1909,3.3443,3.526,3.7211,3.849,3.9346,3.9622,3.9497,3.9546,3.9597,3.917,3.8592,3.7638,3.6934,3.6457,3.643,3.6405,3.6405,3.6405,3.6405,3.6405,3.6405,3.6405,3.6405,3.6405,3.6405,3.6405,3.6405,3.6405,3.6405,3.6405,3.6405,3.6405,3.6405,3.6405,3.6405,3.6405,3.6405,3.6405,3.6405,3.6405,3.6405,3.6405,3.6405,3.6405,3.6405,3.6405,3.6405,3.6405,3.6405,3.6405,3.6405,3.6405,3.6405,3.643,3.643,3.6405,3.6405,3.6405,3.6405,3.6405,3.6405,3.6405,3.6405,3.6405,3.6405,3.6405,3.6405,3.643,3.6455,3.6556,3.6808,3.7034,3.721,3.7412,3.7588,3.7839,3.809,3.8165,3.8241,3.8517,3.8718,3.8843,3.9145,3.9245,2.4961,2.5601,2.5679,2.5698,2.5698,2.5698,2.5732,2.5815,2.5732,2.5776,2.5893,2.5952,2.6362,2.7187,2.793,2.8184,2.8047,2.8184,2.8281,2.8301,2.8281,2.8281,2.8301,2.8301,2.8301,2.8301,2.8301,2.8327,2.886,3.1087,3.2775,3.3472,3.6784,3.8065,3.8091,3.8894,3.9497,3.9396,3.9472,3.9572,3.9019,3.8492,3.809,3.7412,3.6859,3.6582,3.6405,3.6405,3.6405,3.6405,3.6405,3.6405,3.6405,3.6405,3.6405,3.6405,3.6405,3.6405,3.6405,3.6405,3.6405,3.6405,3.6405,3.6405,3.6405,3.6405,3.6405,3.6405,3.6405,3.6405,3.6405,3.6405,3.6405,3.6405,3.6405,3.6405,3.6405,3.6405,3.6405,3.6405,3.6405,3.6405,3.6405,3.643,3.6431,3.6455,3.643,3.6455,3.6556,3.6505,3.6405,3.6405,3.6405,3.6405,3.6405,3.6405,3.6405,3.6405,3.6505,3.6656,3.6959,3.7512,3.7713,3.7814,3.7939,3.809,3.8366,3.8693,3.8894,3.9019,3.9295,3.9496,3.9496,3.9471,3.9496]},{"header":{"parameterUnit":"m.s-1","parameterCategory":1,"la1":31.0,"la2":29.5877,"lo1":-88.7671,"lo2":-86.6584,"dy":0.0162,"dx":0.0185,"nx":115,"ny":88,"refTime":"2024-03-26T12:00:00:Z","depth":0,"parameterNumber":3,"parameterNumberName":"V-component_of_WINDS"},"data":[0.0,0.0,0.0,0.0,0.0,0.0,0.0,0.0,0.0,0.0,0.0,0.0,0.0,0.0,0.0,0.0,0.0,0.0,0.0,0.0,0.0,0.0,0.0,0.0,0.0,0.0,0.0,0.0,0.0,0.0,0.0,0.0,0.0,0.0,0.0,0.0,0.0,0.0,0.0,0.0,0.0,0.0,0.0,0.0,0.0,0.0,0.0,0.0,0.0,0.0,0.0,0.0,0.0,0.0,0.0,0.0,0.0,0.0,0.0,0.0,0.0,0.0,0.0,0.0,0.0,0.0,0.0,0.0,0.0,0.0,0.0,0.0,0.0,0.0,0.0,0.0,0.0,0.0,0.0,0.0,0.0,0.0,0.0,0.0,0.0,0.0,0.0,0.0,0.0,0.0,0.0,0.0,0.0,0.0,0.0,0.0,0.0,0.0,0.0,0.0,0.0,0.0,0.0,0.0,0.0,0.0,0.0,0.0,0.0,0.0,0.0,0.0,0.0,0.0,0.0,0.0,0.0,0.0,0.0,0.0,0.0,0.0,0.0,0.0,0.0,0.0,0.0,0.0,0.0,0.0,0.0,0.0,0.0,0.0,0.0,0.0,0.0,0.0,0.0,0.0,0.0,0.0,0.0,0.0,0.0,0.0,0.0,0.0,0.0,0.0,0.0,0.0,0.0,0.0,0.0,0.0,0.0,0.0,0.0,0.0,0.0,0.0,0.0,0.0,0.0,0.0,0.0,0.0,0.0,0.0,0.0,0.0,0.0,0.0,0.0,0.0,0.0,0.0,0.0,0.0,0.0,0.0,0.0,0.0,0.0,0.0,0.0,0.0,0.0,0.0,0.0,0.0,0.0,0.0,0.0,0.0,0.0,0.0,0.0,0.0,0.0,0.0,0.0,0.0,0.0,0.0,0.0,0.0,0.0,0.0,0.0,0.0,0.0,0.0,0.0,0.0,0.0,0.0,0.0,0.0,0.0,0.0,0.0,0.0,0.0,0.0,0.0,0.0,0.0,0.0,0.0,0.0,0.0,0.0,0.0,0.0,0.0,0.0,0.0,0.0,0.0,0.0,0.0,0.0,0.0,0.0,0.0,0.0,0.0,0.0,0.0,0.0,0.0,0.0,0.0,0.0,0.0,0.0,0.0,0.0,0.0,0.0,0.0,0.0,0.0,0.0,0.0,0.0,0.0,0.0,0.0,0.0,0.0,0.0,0.0,0.0,0.0,0.0,0.0,0.0,0.0,0.0,0.0,0.0,0.0,0.0,0.0,0.0,0.0,0.0,0.0,0.0,0.0,0.0,0.0,0.0,0.0,0.0,0.0,0.0,0.0,0.0,0.0,0.0,0.0,0.0,0.0,0.0,0.0,0.0,0.0,0.0,0.0,0.0,0.0,0.0,0.0,0.0,0.0,0.0,0.0,0.0,0.0,0.0,0.0,0.0,0.0,0.0,0.0,0.0,0.0,0.0,0.0,0.0,0.0,0.0,0.0,0.0,0.0,0.0,0.0,0.0,0.0,0.0,0.0,0.0,0.0,0.0,0.0,0.0,0.0,0.0,0.0,0.0,0.0,0.0,0.0,0.0,0.0,0.0,0.0,0.0,0.0,0.0,0.0,0.0,0.0,0.0,0.0,0.0,0.0,0.0,0.0,0.0,0.0,0.0,0.0,0.0,0.0,0.0,0.0,0.0,0.0,0.0,0.0,0.0,0.0,0.0,0.0,0.0,0.0,0.0,0.0,0.0,0.0,0.0,0.0,0.0,0.0,0.0,0.0,0.0,0.0,0.0,0.0,0.0,0.0,0.0,0.0,0.0,0.0,0.0,0.0,0.0,0.0,0.0,0.0,0.0,0.0,0.0,0.0,0.0,0.0,0.0,0.0,0.0,0.0,0.0,0.0,0.0,0.0,0.0,0.0,0.0,0.0,0.0,0.0,0.0,0.0,0.0,0.0,0.0,0.0,0.0,0.0,0.0,0.0,0.0,0.0,0.0,0.0,0.0,0.0,0.0,0.0,0.0,0.0,0.0,0.0,0.0,0.0,0.0,0.0,0.0,0.0,0.0,0.0,0.0,0.0,0.0,0.0,0.0,0.0,0.0,0.0,0.0,0.0,0.0,0.0,0.0,0.0,0.0,0.0,0.0,0.0,0.0,0.0,0.0,0.0,0.0,0.0,0.0,0.0,0.0,0.0,0.0,0.0,0.0,0.0,0.0,0.0,0.0,0.0,0.0,0.0,0.0,0.0,0.0,0.0,0.0,0.0,0.0,0.0,0.0,0.0,0.0,0.0,0.0,0.0,0.0,0.0,0.0,0.0,0.0,0.0,0.0,0.0,0.0,0.0,0.0,0.0,0.0,0.0,0.0,0.0,0.0,0.0,0.0,0.0,0.0,0.0,0.0,0.0,0.0,0.0,0.0,0.0,0.0,0.0,0.0,0.0,0.0,0.0,0.0,0.0,0.0,0.0,0.0,0.0,0.0,0.0,0.0,0.0,0.0,0.0,0.0,0.0,0.0,0.0,0.0,0.0,0.0,0.0,0.0,0.0,0.0,0.0,0.0,0.0,0.0,0.0,0.0,0.0,0.0,0.0,0.0,0.0,0.0,0.0,0.0,0.0,0.0,0.0,0.0,0.0,0.0,0.0,0.0,0.0,0.0,0.0,0.0,0.0,0.0,0.0,0.0,0.0,0.0,0.0,0.0,0.0,0.0,0.0,0.0,0.0,0.0,0.0,0.0,0.0,0.0,0.0,0.0,0.0,0.0,0.0,0.0,0.0,0.0,0.0,0.0,0.0,0.0,0.0,0.0,0.0,0.0,0.0,0.0,0.0,0.0,0.0,0.0,0.0,0.0,0.0,0.0,0.0,0.0,0.0,0.0,0.0,0.0,0.0,0.0,0.0,0.0,0.0,0.0,0.0,0.0,0.0,0.0,0.0,0.0,0.0,0.0,0.0,0.0,0.0,0.0,0.0,0.0,0.0,0.0,0.0,0.0,0.0,0.0,0.0,0.0,0.0,0.0,0.0,0.0,0.0,0.0,0.0,0.0,0.0,0.0,0.0,0.0,0.0,0.0,0.0,0.0,0.0,0.0,0.0,0.0,0.0,0.0,0.0,0.0,0.0,0.0,0.0,0.0,0.0,0.0,0.0,0.0,0.0,0.0,0.0,0.0,0.0,0.0,0.0,0.0,0.0,0.0,0.0,0.0,0.0,0.0,0.0,0.0,0.0,0.0,0.0,0.0,0.0,0.0,0.0,0.0,0.0,0.0,0.0,0.0,0.0,0.0,0.0,0.0,0.0,0.0,0.0,0.0,0.0,0.0,0.0,0.0,0.0,0.0,0.0,0.0,0.0,0.0,0.0,0.0,0.0,0.0,0.0,0.0,0.0,0.0,0.0,0.0,0.0,0.0,0.0,0.0,0.0,0.0,0.0,0.0,0.0,0.0,0.0,0.0,0.0,0.0,0.0,0.0,0.0,0.0,0.0,0.0,0.0,0.0,0.0,0.0,0.0,0.0,0.0,0.0,0.0,0.0,0.0,0.0,0.0,0.0,0.0,0.0,0.0,0.0,0.0,0.0,0.0,0.0,0.0,0.0,0.0,0.0,0.0,0.0,0.0,0.0,0.0,0.0,0.0,0.0,0.0,0.0,0.0,0.0,0.0,0.0,0.0,0.0,0.0,0.0,0.0,0.0,0.0,0.0,0.0,0.0,0.0,0.0,0.0,0.0,0.0,0.0,0.0,0.0,0.0,0.0,0.0,0.0,0.0,0.0,0.0,0.0,0.0,0.0,0.0,0.0,0.0,0.0,0.0,0.0,0.0,0.0,0.0,0.0,0.0,0.0,0.0,0.0,0.0,0.0,0.0,0.0,0.0,0.0,0.0,0.0,0.0,0.0,0.0,0.0,0.0,0.0,0.0,0.0,0.0,0.0,0.0,0.0,0.0,0.0,0.0,0.0,0.0,0.0,0.0,0.0,0.0,0.0,0.0,0.0,0.0,0.0,0.0,0.0,0.0,0.0,0.0,0.0,0.0,0.0,0.0,0.0,0.0,0.0,0.0,0.0,0.0,0.0,0.0,0.0,0.0,0.0,0.0,0.0,0.0,0.0,0.0,0.0,0.0,0.0,0.0,0.0,0.0,0.0,0.0,0.0,0.0,0.0,0.0,0.0,0.0,0.0,0.0,0.0,0.0,0.0,0.0,0.0,0.0,0.0,0.0,0.0,0.0,0.0,0.0,0.0,0.0,0.0,0.0,0.0,0.0,0.0,0.0,0.0,1.2137,0.0,0.0,0.0,0.0,0.0,0.0,0.0,0.0,0.0,0.0,0.0,0.0,0.0,0.0,0.0,0.0,0.0,0.0,0.0,0.0,0.0,0.0,0.0,0.0,0.0,0.0,0.0,0.0,0.0,0.0,0.0,0.0,0.0,0.0,0.0,0.0,0.0,0.0,0.0,0.0,0.0,0.0,0.0,0.0,0.0,0.0,0.0,0.0,0.0,0.0,0.0,0.0,0.0,0.0,0.0,0.0,0.0,0.0,0.0,0.0,0.0,0.0,0.0,0.0,0.0,0.0,0.0,0.0,0.0,0.0,0.0,0.0,0.0,0.0,0.0,0.0,0.0,0.0,0.0,0.0,0.0,0.0,0.0,0.0,0.0,0.0,0.0,0.0,0.0,0.0,0.0,0.0,0.0,0.0,0.0,0.0,0.0,0.0,0.0,0.0,0.0,0.0,0.0,0.0,0.0,0.0,0.0,0.0,0.0,0.0,1.1159,1.1109,1.1432,1.1851,1.2363,0.0,0.0,0.0,0.0,0.0,0.0,0.0,0.0,0.0,0.0,0.0,0.0,0.0,0.0,0.0,0.0,0.0,0.0,0.0,0.0,0.0,0.0,0.0,0.0,0.0,0.0,0.0,0.0,0.0,0.0,0.0,0.0,0.0,0.0,0.0,0.0,0.0,0.0,0.0,0.0,0.0,0.0,0.0,0.0,0.0,0.0,0.0,0.0,0.0,0.0,0.0,0.0,0.0,0.0,0.0,0.0,0.0,0.0,0.0,0.0,0.0,0.0,0.0,0.0,0.0,0.0,0.0,0.0,0.0,0.0,0.0,0.0,0.0,0.0,0.0,0.0,0.0,0.0,0.0,0.0,0.0,0.0,0.0,0.0,0.0,0.0,0.0,0.0,0.0,0.0,0.0,0.0,0.0,0.0,0.0,0.0,0.0,0.0,0.0,0.0,0.0,0.0,0.0,0.0,0.0,0.0,0.0,0.0,0.0,0.0,0.0,0.0,1.1859,1.237,1.278,0.0,0.0,0.0,0.0,0.0,0.0,0.0,0.0,0.0,0.0,0.0,0.0,0.0,0.0,0.0,0.0,0.0,0.0,0.0,0.0,0.0,0.0,0.0,0.0,0.0,0.0,0.0,0.0,0.0,0.0,0.0,0.0,0.0,0.0,0.0,0.0,0.0,0.0,0.0,0.0,0.0,0.0,0.0,0.0,0.0,0.0,0.0,0.0,0.0,0.0,0.0,0.0,0.0,0.0,0.0,0.0,0.0,0.0,0.0,0.0,0.0,0.0,0.0,0.0,0.0,0.0,0.0,0.0,0.0,0.0,0.0,0.0,0.0,0.0,0.0,0.0,0.0,0.0,0.0,0.0,0.0,0.0,0.0,0.0,0.0,0.0,0.0,0.0,0.0,0.0,0.0,0.0,0.0,0.0,0.0,0.0,0.0,0.0,0.0,0.0,0.0,0.0,0.0,0.0,0.0,0.0,0.0,0.0,0.0,0.0,1.2019,1.2947,1.356,0.0,1.3955,0.0,0.0,0.0,0.0,0.0,0.0,0.0,0.0,0.0,0.0,0.0,0.0,0.0,0.0,0.0,0.0,0.0,0.0,0.0,0.0,0.0,0.0,0.0,0.0,0.0,0.0,0.0,0.0,0.0,0.0,0.0,0.0,0.0,0.0,0.0,0.0,0.0,0.0,0.0,0.0,0.0,0.0,0.0,0.0,0.0,0.0,0.0,0.0,0.0,0.0,0.0,0.0,0.0,0.0,0.0,0.0,0.0,0.0,0.0,0.0,0.0,0.0,0.0,0.0,0.0,0.0,0.0,0.0,0.0,0.0,0.0,0.0,0.0,0.0,0.0,0.0,0.0,0.0,0.0,0.0,0.0,0.0,0.0,0.0,0.0,0.0,0.0,0.0,0.0,0.0,0.0,0.0,0.0,0.0,0.0,0.0,0.0,0.0,0.0,0.0,0.0,0.0,0.0,0.0,0.0,0.0,0.0,0.0,0.0,0.0,1.1952,1.2714,1.361,1.3921,0.0,0.0,0.0,0.0,0.0,0.0,0.0,0.0,0.0,0.0,0.0,0.0,0.0,0.0,0.0,0.0,0.0,0.0,0.0,0.0,0.0,0.0,0.0,0.0,0.0,0.0,0.0,0.0,0.0,0.0,0.0,0.0,0.0,0.0,0.0,0.0,0.0,0.0,0.0,0.0,0.0,0.0,0.0,0.0,0.0,0.0,0.0,0.0,0.0,0.0,0.0,0.0,0.0,0.0,0.0,0.0,0.0,0.0,0.0,0.0,0.0,0.0,0.0,0.0,0.0,0.0,0.0,0.0,0.0,0.0,0.0,0.0,0.0,0.0,0.0,0.0,0.0,0.0,0.0,0.0,0.0,0.0,0.0,0.0,0.0,0.0,0.0,0.0,0.0,0.0,0.0,0.0,0.0,0.0,0.0,0.0,0.0,0.0,0.0,0.0,0.0,0.0,0.0,0.0,0.0,0.0,0.0,0.0,0.0,0.0,1.1482,1.2228,1.3048,1.3568,1.3727,1.345,0.0,0.0,0.0,0.0,0.0,0.0,0.0,0.0,0.0,0.0,0.0,0.0,0.0,0.0,0.0,0.0,0.0,0.0,0.0,0.0,0.0,0.0,0.0,0.0,0.0,0.0,0.0,0.0,0.0,0.0,0.0,0.0,0.0,0.0,0.0,0.0,0.0,0.0,0.0,0.0,0.0,0.0,0.0,0.0,0.0,0.0,0.0,0.0,0.0,0.0,0.0,0.0,0.0,0.0,0.0,0.0,0.0,0.0,0.0,0.0,0.0,0.0,0.0,0.0,0.0,0.0,0.0,0.0,0.0,0.0,0.0,0.0,0.0,0.0,0.0,0.0,0.0,0.0,0.0,0.0,0.0,0.0,0.0,0.0,0.0,0.0,0.0,0.0,0.0,0.0,0.0,0.0,0.0,0.0,0.0,0.0,0.0,0.0,0.0,0.0,0.0,0.0,0.0,0.0,0.0,0.0,0.0,0.0,1.2872,1.2563,1.3132,1.4632,1.3776,1.3491,0.0,0.0,0.0,0.0,0.0,0.0,0.0,0.0,0.0,0.0,0.0,0.0,0.0,0.0,0.0,0.0,0.0,0.0,0.0,0.0,0.0,0.0,0.0,0.0,0.0,0.0,0.0,0.0,0.0,0.0,0.0,0.0,0.0,0.0,0.0,0.0,0.0,0.0,0.0,0.0,0.0,0.0,0.0,0.0,0.0,0.0,0.0,0.0,0.0,0.0,0.0,0.0,0.0,0.0,0.0,0.0,0.0,0.0,0.0,0.0,0.0,0.0,0.0,0.0,0.0,0.0,0.0,0.0,0.0,0.0,0.0,0.0,0.0,0.0,0.0,0.0,0.0,0.0,0.0,0.0,0.0,0.0,0.0,0.0,0.0,0.0,0.0,0.0,0.0,0.0,0.0,0.0,0.0,0.0,0.0,0.0,0.0,0.0,0.0,0.0,0.0,0.0,0.0,0.0,0.0,0.0,0.0,0.0,0.0,1.1109,1.1593,1.2504,1.3717,1.3416,1.3475,0.0,0.0,0.0,0.0,0.0,0.0,0.0,0.0,0.0,0.0,0.0,0.0,0.0,0.0,0.0,0.0,0.0,0.0,0.0,0.0,0.0,0.0,0.0,0.0,0.0,0.0,0.0,0.0,0.0,0.0,0.0,0.0,0.0,0.0,0.0,0.0,0.0,0.0,0.0,0.0,0.0,0.0,0.0,0.0,0.0,0.0,0.0,0.0,0.0,0.0,0.0,0.0,0.0,0.0,0.0,0.0,0.0,0.0,0.0,0.0,0.0,0.0,0.0,0.0,0.0,0.0,0.0,0.0,0.0,0.0,0.0,0.0,0.0,0.0,0.0,0.0,0.0,0.0,0.0,0.0,0.0,0.0,0.0,0.0,0.0,0.0,0.0,0.0,0.0,0.0,0.0,0.0,0.0,0.0,0.0,0.0,0.0,0.0,0.0,0.0,0.0,0.0,0.0,0.0,0.0,0.0,0.0,0.0,0.0,1.0758,0.0,1.2772,1.3441,1.3282,1.3391,0.0,0.0,0.0,0.0,0.0,0.0,0.0,0.0,0.0,0.0,0.0,0.0,0.0,0.0,0.0,0.0,0.0,0.0,0.0,0.0,0.0,0.0,0.0,0.0,0.0,0.0,0.0,0.0,0.0,0.0,0.0,0.0,0.0,0.0,0.0,0.0,0.0,0.0,0.0,0.0,0.0,0.0,0.0,0.0,0.0,0.0,0.0,0.0,0.0,0.0,0.0,0.0,0.0,0.0,0.0,0.0,0.0,0.0,0.0,0.0,0.0,0.0,0.0,0.0,0.0,0.0,0.0,0.0,0.0,0.0,0.0,0.0,0.0,0.0,0.0,0.0,0.0,0.0,0.0,0.0,0.0,0.0,0.0,0.0,0.0,0.0,0.0,0.0,0.0,0.0,0.0,0.0,0.0,0.0,0.0,0.0,0.0,0.0,0.0,0.0,0.0,0.0,0.0,0.0,0.0,0.0,0.0,0.0,1.1302,1.2337,1.3426,1.3964,1.4091,1.3483,1.3198,0.0,0.0,0.0,0.0,0.0,0.0,0.0,0.0,0.0,0.0,0.0,0.0,0.0,0.0,0.0,0.0,0.0,0.0,0.0,0.0,0.0,0.0,0.0,0.0,0.0,0.0,0.0,0.0,0.0,0.0,0.0,0.0,0.0,0.0,0.0,0.0,0.0,0.0,0.0,0.0,0.0,0.0,0.0,0.0,0.0,0.0,0.0,0.0,0.0,0.0,0.0,0.0,0.0,0.0,0.0,0.0,0.0,0.0,0.0,0.0,0.0,0.0,0.0,0.0,0.0,0.0,0.0,0.0,0.0,0.0,0.0,0.0,0.0,0.0,0.0,0.0,0.0,0.0,0.0,0.0,0.0,0.0,0.0,0.0,0.0,0.0,0.0,0.0,0.0,0.0,0.0,0.0,0.0,0.0,0.0,0.0,0.0,0.0,0.0,0.0,0.0,0.0,0.0,0.0,0.0,0.0,0.0,0.0,0.0,1.2413,1.273,1.33,1.4022,1.3157,1.3199,0.0,0.0,0.0,0.0,0.0,0.0,0.0,0.0,0.0,0.0,0.0,0.0,0.0,0.0,0.0,0.0,0.0,0.0,0.0,0.0,0.0,0.0,0.0,0.0,0.0,0.0,0.0,0.0,0.0,0.0,0.0,0.0,0.0,0.0,0.0,0.0,0.0,0.0,0.0,0.0,0.0,0.0,0.0,0.0,0.0,0.0,0.0,0.0,0.0,0.0,0.0,0.0,0.0,0.0,0.0,0.0,0.0,0.0,0.0,0.0,0.0,0.0,0.0,0.0,0.0,0.0,0.0,0.0,0.0,0.0,0.0,0.0,0.0,0.0,0.0,0.0,0.0,0.0,0.0,0.0,0.0,0.0,0.0,0.0,0.0,0.0,0.0,0.0,0.0,0.0,0.0,0.0,0.0,0.0,0.0,0.0,0.0,0.0,0.0,0.0,0.0,0.0,0.0,0.0,0.0,0.0,0.0,0.0,0.0,1.3684,1.3433,1.3576,1.4091,1.3409,1.3535,1.4541,0.0,0.0,0.0,0.0,0.0,0.0,0.0,0.0,0.0,0.0,0.0,0.0,0.0,0.0,0.0,0.0,0.0,0.0,0.0,0.0,0.0,0.0,0.0,0.0,0.0,0.0,0.0,0.0,0.0,0.0,0.0,0.0,0.0,0.0,0.0,0.0,0.0,0.0,0.0,0.0,0.0,0.0,0.0,0.0,0.0,0.0,0.0,0.0,0.0,0.0,0.0,0.0,0.0,0.0,0.0,0.0,0.0,0.0,0.0,0.0,0.0,0.0,0.0,0.0,0.0,0.0,0.0,0.0,0.0,0.0,0.0,0.0,0.0,0.0,0.0,0.0,0.0,0.0,0.0,0.0,0.0,0.0,0.0,0.0,0.0,0.0,0.0,0.0,0.0,0.0,0.0,0.0,0.0,0.0,0.0,0.0,0.0,0.0,0.0,0.0,0.0,0.0,0.0,0.0,0.0,0.0,0.0,0.0,1.5743,1.5361,1.4928,1.4333,1.4258,1.4233,0.0,0.0,0.0,0.0,0.0,0.0,0.0,0.0,0.0,0.0,0.0,0.0,0.0,0.0,0.0,0.0,0.0,0.0,0.0,0.0,0.0,0.0,0.0,0.0,0.0,0.0,0.0,0.0,0.0,0.0,0.0,0.0,0.0,0.0,0.0,0.0,0.0,0.0,0.0,0.0,0.0,0.0,0.0,0.0,0.0,0.0,0.0,0.0,0.0,0.0,0.0,0.0,0.0,0.0,0.0,0.0,0.0,0.0,0.0,0.0,0.0,0.0,0.0,0.0,0.0,0.0,0.0,0.0,0.0,0.0,0.0,0.0,0.0,0.0,0.0,0.0,0.0,0.0,0.0,0.0,0.0,0.0,0.0,0.0,0.0,0.0,0.0,0.0,0.0,0.0,0.0,0.0,0.0,0.0,0.0,0.0,0.0,0.0,0.0,0.0,0.0,0.0,0.0,0.0,0.0,0.0,0.0,0.0,0.0,1.636,1.7738,1.7889,1.6593,1.6105,1.5703,0.0,0.0,0.0,0.0,0.0,0.0,0.0,0.0,0.0,0.0,0.0,0.0,0.0,0.0,0.0,0.0,0.0,0.0,0.0,0.0,0.0,0.0,0.0,0.0,0.0,0.0,0.0,0.0,0.0,0.0,0.0,0.0,0.0,0.0,0.0,0.0,0.0,0.0,0.0,0.0,0.0,0.0,0.0,0.0,0.0,0.0,0.0,0.0,0.0,0.0,0.0,0.0,0.0,0.0,0.0,0.0,0.0,0.0,0.0,0.0,0.0,0.0,0.0,0.0,0.0,0.0,0.0,0.0,0.0,0.0,0.0,0.0,0.0,0.0,0.0,0.0,0.0,0.0,0.0,0.0,0.0,0.0,0.0,0.0,0.0,0.0,0.0,0.0,0.0,0.0,0.0,0.0,0.0,0.0,0.0,0.0,0.0,0.0,0.0,0.0,0.0,0.0,0.0,0.0,0.0,0.0,0.0,0.0,1.7328,1.7553,1.9484,2.0062,1.9145,1.8341,1.73,0.0,0.0,0.0,0.0,0.0,0.0,0.0,0.0,0.0,0.0,0.0,0.0,0.0,0.0,0.0,0.0,0.0,0.0,0.0,0.0,0.0,0.0,0.0,0.0,0.0,0.0,0.0,0.0,0.0,0.0,0.0,0.0,0.0,0.0,0.0,0.0,0.0,0.0,0.0,0.0,0.0,0.0,0.0,0.0,0.0,0.0,0.0,0.0,0.0,0.0,0.0,0.0,0.0,0.0,0.0,0.0,0.0,0.0,0.0,0.0,0.0,0.0,0.0,0.0,0.0,0.0,0.0,0.0,0.0,0.0,0.0,0.0,0.0,0.0,0.0,0.0,0.0,0.0,0.0,0.0,0.0,0.0,0.0,0.0,0.0,0.0,0.0,0.0,0.0,0.0,0.0,0.0,0.0,0.0,0.0,0.0,0.0,0.0,0.0,0.0,0.0,0.0,0.0,0.0,0.0,0.0,0.0,0.0,1.8506,1.9008,2.074,2.1658,2.1557,2.0413,1.8832,0.0,0.0,0.0,0.0,0.0,0.0,0.0,0.0,0.0,0.0,0.0,0.0,0.0,0.0,0.0,0.0,0.0,0.0,0.0,0.0,0.0,0.0,0.0,0.0,0.0,0.0,0.0,0.0,0.0,0.0,0.0,0.0,0.0,0.0,0.0,0.0,0.0,0.0,0.0,0.0,0.0,0.0,0.0,0.0,0.0,0.0,0.0,0.0,0.0,0.0,0.0,0.0,0.0,0.0,0.0,0.0,0.0,0.0,0.0,0.0,0.0,0.0,0.0,0.0,0.0,0.0,0.0,0.0,0.0,0.0,0.0,0.0,0.0,0.0,0.0,0.0,0.0,0.0,0.0,0.0,0.0,0.0,0.0,0.0,0.0,0.0,0.0,0.0,0.0,0.0,0.0,0.0,0.0,0.0,0.0,0.0,0.0,0.0,0.0,0.0,0.0,0.0,0.0,0.0,0.0,0.0,0.0,0.0,1.887,1.9033,2.1465,2.2558,2.2146,2.0614,1.9208,0.0,0.0,0.0,0.0,0.0,0.0,0.0,0.0,0.0,0.0,0.0,0.0,0.0,0.0,0.0,0.0,0.0,0.0,0.0,0.0,0.0,0.0,0.0,0.0,0.0,0.0,0.0,0.0,0.0,0.0,0.0,0.0,0.0,0.0,0.0,0.0,0.0,0.0,0.0,0.0,0.0,0.0,0.0,0.0,0.0,0.0,0.0,0.0,1.2915,0.0,0.0,0.0,0.0,0.0,0.0,0.0,0.0,0.0,0.0,0.0,0.0,0.0,0.0,0.0,0.0,0.0,0.0,0.0,0.0,0.0,0.0,0.0,0.0,0.0,0.0,0.0,0.0,0.0,0.0,0.0,0.0,0.0,0.0,0.0,0.0,0.0,0.0,0.0,0.0,0.0,0.0,0.0,0.0,0.0,0.0,0.0,0.0,0.0,0.0,0.0,0.0,0.0,0.0,0.0,0.0,0.0,0.0,0.0,1.9271,1.9836,2.1705,2.2583,2.2257,2.069,1.9409,0.0,0.0,0.0,0.0,0.0,0.0,0.0,0.0,0.0,0.0,0.0,0.0,0.0,0.0,0.0,0.0,0.0,0.0,0.0,0.0,0.0,0.0,0.0,0.0,0.0,0.0,0.0,0.0,0.0,0.0,0.0,0.0,0.0,0.0,0.0,0.0,0.0,0.0,0.0,0.0,0.0,0.0,0.0,0.0,0.0,0.0,0.0,0.0,0.0,0.0,0.0,0.0,0.0,0.0,0.0,0.0,0.0,0.0,0.0,0.0,0.0,0.0,0.0,0.0,0.0,0.0,0.0,0.0,0.0,0.0,0.0,0.0,0.0,0.0,0.0,0.0,0.0,0.0,0.0,0.0,0.0,0.0,0.0,0.0,0.0,0.0,0.0,0.0,0.0,0.0,0.0,0.0,0.0,0.0,0.0,0.0,0.0,0.0,0.0,0.0,0.0,0.0,0.0,0.0,0.0,0.0,0.0,1.8468,1.9547,2.068,2.1744,2.2307,2.2282,2.069,1.956,1.9008,0.0,0.0,0.0,0.0,0.0,0.0,0.0,0.0,0.0,0.0,0.0,0.0,0.0,0.0,0.0,0.0,0.0,0.0,0.0,0.0,0.0,0.0,0.0,0.0,0.0,0.0,0.0,0.0,0.0,0.0,0.0,0.0,0.0,0.0,0.0,0.0,0.0,0.0,1.2915,1.2915,0.0,0.0,0.0,0.0,0.0,0.0,0.0,0.0,1.2915,0.0,0.0,0.0,0.0,0.0,0.0,0.0,0.0,0.0,0.0,0.0,0.0,0.0,0.0,0.0,0.0,0.0,0.0,0.0,0.0,0.0,0.0,0.0,0.0,0.0,0.0,0.0,0.0,0.0,0.0,0.0,0.0,0.0,0.0,0.0,0.0,0.0,0.0,0.0,0.0,0.0,0.0,0.0,0.0,0.0,0.0,0.0,0.0,0.0,0.0,0.0,0.0,0.0,0.0,0.0,0.0,1.7398,1.8443,1.956,2.0666,2.1758,2.2307,2.2272,2.069,1.9547,1.8983,0.0,0.0,0.0,0.0,0.0,0.0,0.0,0.0,0.0,0.0,0.0,0.0,0.0,0.0,0.0,0.0,0.0,0.0,0.0,0.0,0.0,0.0,0.0,0.0,0.0,0.0,0.0,0.0,0.0,0.0,0.0,0.0,0.0,0.0,0.0,0.0,0.0,0.0,0.0,1.2915,1.2915,0.0,0.0,0.0,0.0,0.0,0.0,0.0,0.0,1.3027,0.0,0.0,0.0,0.0,0.0,0.0,0.0,0.0,0.0,0.0,0.0,0.0,0.0,0.0,0.0,0.0,0.0,0.0,0.0,0.0,0.0,0.0,0.0,0.0,0.0,0.0,0.0,0.0,0.0,0.0,0.0,0.0,0.0,0.0,0.0,0.0,0.0,0.0,0.0,0.0,0.0,0.0,0.0,0.0,0.0,0.0,0.0,0.0,0.0,0.0,0.0,0.0,0.0,0.0,0.0,1.7814,1.8594,1.9698,2.1069,2.1619,2.1895,2.1845,2.025,1.9146,0.0,0.0,0.0,0.0,0.0,0.0,0.0,0.0,0.0,0.0,0.0,0.0,0.0,0.0,0.0,0.0,0.0,0.0,0.0,0.0,0.0,0.0,0.0,0.0,0.0,0.0,0.0,0.0,0.0,0.0,0.0,0.0,0.0,0.0,0.0,0.0,0.0,0.0,0.0,0.0,1.3079,1.3125,1.2922,0.0,0.0,0.0,0.0,0.0,0.0,1.3203,1.3359,0.0,0.0,0.0,0.0,0.0,0.0,0.0,0.0,0.0,0.0,0.0,0.0,0.0,0.0,0.0,0.0,0.0,0.0,0.0,0.0,0.0,0.0,0.0,0.0,0.0,0.0,0.0,0.0,0.0,0.0,0.0,0.0,0.0,0.0,0.0,0.0,0.0,0.0,0.0,0.0,0.0,0.0,0.0,0.0,0.0,0.0,0.0,0.0,0.0,0.0,0.0,0.0,0.0,0.0,0.0,1.8179,1.8619,1.9647,2.1256,2.1331,2.1281,2.1117,1.9748,1.8682,0.0,0.0,0.0,0.0,0.0,0.0,0.0,0.0,0.0,0.0,0.0,0.0,0.0,0.0,0.0,0.0,0.0,0.0,0.0,0.0,0.0,0.0,0.0,0.0,0.0,0.0,0.0,0.0,0.0,0.0,0.0,0.0,0.0,0.0,0.0,0.0,0.0,0.0,0.0,0.0,0.0,1.3464,1.3079,1.3717,0.0,0.0,0.0,0.0,1.3639,1.3848,0.0,0.0,0.0,0.0,0.0,0.0,0.0,0.0,0.0,0.0,0.0,0.0,0.0,0.0,0.0,0.0,0.0,0.0,0.0,0.0,0.0,0.0,0.0,0.0,0.0,0.0,0.0,0.0,0.0,0.0,0.0,0.0,0.0,0.0,0.0,0.0,0.0,0.0,0.0,0.0,0.0,0.0,0.0,0.0,0.0,0.0,0.0,0.0,0.0,0.0,0.0,0.0,0.0,0.0,0.0,0.0,1.8142,1.8254,1.9108,2.0691,2.0792,2.0527,2.0012,1.9346,1.8518,0.0,0.0,0.0,0.0,0.0,0.0,0.0,0.0,0.0,0.0,0.0,0.0,0.0,0.0,0.0,0.0,0.0,0.0,0.0,0.0,0.0,0.0,0.0,0.0,0.0,0.0,0.0,0.0,0.0,0.0,0.0,0.0,0.0,0.0,0.0,0.0,0.0,0.0,0.0,0.0,0.0,1.388,1.3496,1.416,1.4551,0.0,0.0,1.4492,1.4094,1.5034,0.0,0.0,0.0,0.0,0.0,0.0,0.0,0.0,0.0,0.0,0.0,0.0,0.0,0.0,0.0,0.0,0.0,0.0,0.0,0.0,0.0,0.0,0.0,0.0,0.0,0.0,0.0,0.0,0.0,0.0,0.0,0.0,0.0,0.0,0.0,0.0,0.0,0.0,0.0,0.0,0.0,0.0,0.0,0.0,0.0,0.0,0.0,0.0,0.0,0.0,0.0,0.0,0.0,0.0,0.0,1.7063,1.8142,1.8192,1.9007,2.0629,2.0365,2.0075,1.9798,1.897,1.8204,0.0,0.0,0.0,0.0,0.0,0.0,0.0,0.0,0.0,0.0,0.0,0.0,0.0,0.0,0.0,0.0,0.0,0.0,0.0,0.0,0.0,0.0,0.0,0.0,0.0,0.0,0.0,0.0,0.0,0.0,0.0,0.0,0.0,0.0,0.0,0.0,0.0,0.0,0.0,0.0,0.0,0.0,1.3913,1.4819,0.0,0.0,0.0,1.581,1.5615,0.0,0.0,0.0,0.0,0.0,0.0,0.0,0.0,0.0,0.0,0.0,0.0,0.0,0.0,0.0,0.0,0.0,0.0,0.0,0.0,0.0,0.0,0.0,0.0,0.0,0.0,0.0,0.0,0.0,0.0,0.0,0.0,0.0,0.0,0.0,0.0,0.0,0.0,0.0,0.0,0.0,0.0,0.0,0.0,0.0,0.0,0.0,0.0,0.0,0.0,0.0,0.0,0.0,0.0,0.0,0.0,0.0,1.8167,1.8192,1.9018,2.064,2.0309,1.9978,1.9821,1.9047,0.0,0.0,0.0,0.0,0.0,0.0,0.0,0.0,0.0,0.0,0.0,0.0,0.0,0.0,0.0,0.0,0.0,0.0,0.0,0.0,0.0,0.0,0.0,0.0,0.0,0.0,0.0,0.0,0.0,0.0,0.0,0.0,0.0,0.0,0.0,0.0,0.0,0.0,0.0,0.0,0.0,0.0,1.5103,1.466,1.5737,1.6359,0.0,0.0,1.698,1.6898,1.7152,1.7155,0.0,0.0,0.0,0.0,0.0,0.0,0.0,0.0,0.0,0.0,0.0,0.0,0.0,0.0,0.0,0.0,0.0,0.0,0.0,0.0,0.0,0.0,0.0,0.0,0.0,0.0,0.0,0.0,0.0,0.0,0.0,0.0,0.0,0.0,0.0,0.0,0.0,0.0,0.0,0.0,0.0,0.0,0.0,0.0,0.0,0.0,0.0,0.0,0.0,0.0,0.0,0.0,0.0,0.0,0.0,1.8142,1.8192,1.9046,2.0723,2.0747,2.0472,1.9927,1.9812,1.9235,0.0,0.0,0.0,0.0,0.0,0.0,0.0,0.0,0.0,0.0,0.0,0.0,0.0,0.0,0.0,0.0,0.0,0.0,0.0,0.0,0.0,0.0,0.0,0.0,0.0,0.0,0.0,0.0,0.0,0.0,0.0,0.0,0.0,0.0,0.0,0.0,0.0,0.0,0.0,0.0,0.0,1.643,1.6011,1.7067,1.7852,0.0,0.0,1.7793,1.7419,1.8357,1.8455,1.6476,0.0,0.0,0.0,0.0,0.0,0.0,0.0,0.0,0.0,0.0,0.0,0.0,0.0,0.0,0.0,0.0,0.0,0.0,0.0,0.0,0.0,0.0,0.0,0.0,0.0,0.0,0.0,0.0,0.0,0.0,0.0,0.0,0.0,0.0,0.0,0.0,0.0,0.0,0.0,0.0,0.0,0.0,0.0,0.0,0.0,0.0,0.0,0.0,0.0,0.0,0.0,0.0,0.0,1.7248,1.8734,1.8745,1.9608,2.1262,2.1379,2.0887,1.9904,1.9887,1.9335,0.0,0.0,0.0,0.0,0.0,0.0,0.0,0.0,0.0,0.0,0.0,0.0,0.0,0.0,0.0,0.0,0.0,0.0,0.0,0.0,0.0,0.0,0.0,0.0,0.0,0.0,0.0,0.0,1.2915,1.2988,1.3242,0.0,0.0,0.0,0.0,0.0,0.0,0.0,0.0,0.0,0.0,1.8181,1.7817,1.9173,0.0,0.0,1.9724,1.964,1.9407,1.8862,1.8301,1.7734,1.7067,0.0,0.0,0.0,0.0,0.0,0.0,0.0,0.0,0.0,0.0,0.0,0.0,0.0,0.0,0.0,0.0,0.0,0.0,0.0,0.0,0.0,0.0,0.0,0.0,0.0,0.0,0.0,0.0,0.0,0.0,0.0,0.0,0.0,0.0,0.0,0.0,0.0,0.0,0.0,0.0,0.0,0.0,0.0,0.0,0.0,0.0,0.0,0.0,0.0,0.0,0.0,0.0,1.7738,1.9315,1.9342,2.0214,2.1965,2.1993,2.158,2.0752,2.0553,1.9948,0.0,0.0,0.0,0.0,0.0,0.0,0.0,0.0,0.0,0.0,0.0,0.0,0.0,0.0,0.0,0.0,0.0,0.0,0.0,0.0,0.0,0.0,0.0,0.0,0.0,0.0,0.0,0.0,1.3274,1.3448,1.3961,0.0,0.0,0.0,0.0,0.0,0.0,0.0,0.0,0.0,0.0,1.9408,1.9374,2.0575,2.145,2.1378,2.1125,2.0855,2.0688,1.9817,1.9059,1.8654,0.0,0.0,0.0,0.0,0.0,0.0,0.0,0.0,0.0,0.0,0.0,0.0,0.0,0.0,0.0,0.0,0.0,0.0,0.0,0.0,0.0,0.0,0.0,0.0,0.0,0.0,0.0,0.0,0.0,0.0,1.9708,0.0,0.0,0.0,0.0,0.0,0.0,0.0,0.0,0.0,0.0,0.0,0.0,0.0,0.0,0.0,0.0,0.0,0.0,0.0,0.0,0.0,0.0,1.8686,1.9866,1.9943,2.0851,2.266,2.2712,2.2651,2.259,2.1993,2.1346,2.0641,0.0,0.0,0.0,0.0,0.0,0.0,0.0,0.0,0.0,0.0,0.0,0.0,0.0,0.0,0.0,0.0,0.0,0.0,0.0,0.0,0.0,0.0,0.0,0.0,0.0,0.0,1.4175,1.4088,1.4387,0.0,0.0,0.0,0.0,0.0,0.0,0.0,0.0,0.0,0.0,1.872,1.993,2.0501,2.0961,2.1683,2.2562,2.1849,2.1139,2.0892,2.1398,2.1178,0.0,0.0,0.0,0.0,0.0,0.0,0.0,0.0,0.0,0.0,0.0,0.0,0.0,0.0,0.0,0.0,0.0,0.0,0.0,0.0,0.0,0.0,0.0,0.0,0.0,0.0,0.0,1.9708,1.9708,0.0,0.0,0.0,0.0,0.0,0.0,0.0,0.0,0.0,0.0,0.0,2.0359,2.0634,0.0,0.0,0.0,0.0,0.0,0.0,0.0,0.0,0.0,0.0,0.0,0.0,1.9796,2.1769,2.1877,2.2778,2.4557,2.4202,2.3759,2.3321,2.2692,2.1854,2.0718,0.0,0.0,0.0,0.0,0.0,0.0,0.0,0.0,0.0,0.0,0.0,0.0,0.0,0.0,0.0,0.0,0.0,0.0,0.0,0.0,0.0,0.0,0.0,0.0,0.0,1.6199,0.0,0.0,0.0,0.0,0.0,0.0,0.0,0.0,0.0,0.0,0.0,1.8555,1.8534,2.0522,2.1848,2.1526,2.2981,2.412,0.0,0.0,0.0,0.0,0.0,0.0,0.0,0.0,0.0,0.0,0.0,0.0,0.0,0.0,2.264,1.9623,1.8947,1.8738,1.8462,0.0,0.0,0.0,0.0,0.0,0.0,0.0,0.0,0.0,0.0,0.0,0.0,0.0,0.0,1.9977,0.0,1.9887,0.0,0.0,0.0,0.0,0.0,0.0,0.0,0.0,2.0827,2.1306,2.1715,2.2143,2.2199,0.0,2.2199,2.1624,0.0,0.0,0.0,0.0,0.0,0.0,0.0,0.0,2.0699,2.2728,2.3032,2.3847,2.5161,2.4814,2.4276,2.361,2.3002,2.2194,2.1086,2.1057,2.1049,0.0,0.0,0.0,0.0,0.0,0.0,0.0,0.0,0.0,0.0,0.0,0.0,0.0,0.0,0.0,0.0,0.0,0.0,0.0,0.0,0.0,0.0,0.0,1.7184,0.0,0.0,0.0,0.0,0.0,0.0,0.0,0.0,0.0,1.8237,1.9145,1.9871,1.9851,2.1553,2.2715,2.2347,0.0,0.0,0.0,0.0,0.0,0.0,0.0,2.3216,2.3612,2.3629,2.3754,2.4258,2.5362,2.5853,2.4898,0.0,0.0,2.2075,2.1366,2.1201,2.0924,2.1112,2.1135,2.0552,2.0446,2.0446,0.0,0.0,0.0,0.0,0.0,0.0,0.0,0.0,1.9887,2.0567,0.0,2.0357,0.0,0.0,0.0,0.0,0.0,2.0498,0.0,0.0,2.1844,2.2473,2.361,2.3729,2.374,2.3699,2.3759,2.3411,2.2782,2.2173,0.0,0.0,0.0,0.0,0.0,0.0,2.1445,2.2812,2.3419,2.4018,2.4724,2.4724,2.4335,2.3659,2.3032,2.2393,2.1754,2.1734,2.1711,2.1726,2.1762,0.0,0.0,0.0,0.0,0.0,0.0,0.0,0.0,0.0,0.0,0.0,0.0,0.0,0.0,0.0,0.0,0.0,0.0,0.0,0.0,1.812,0.0,0.0,0.0,0.0,0.0,0.0,0.0,0.0,0.0,0.0,1.797,1.9281,2.0653,2.1194,0.0,0.0,0.0,0.0,2.4456,2.5485,2.5678,2.5749,2.5985,2.6702,2.6778,2.5509,0.0,0.0,2.5599,2.6054,2.6415,2.552,2.6142,2.6202,2.4927,2.426,2.3903,2.3877,2.3881,2.3932,2.3918,2.374,2.3772,2.2562,0.0,0.0,0.0,0.0,2.1615,2.2094,2.2483,2.2483,2.2453,2.2343,2.1505,0.0,0.0,0.0,0.0,0.0,0.0,2.2453,2.3101,2.4029,2.4676,2.5064,2.6015,2.6195,2.5776,2.6237,2.5866,2.4807,2.5057,2.3933,2.1524,0.0,0.0,0.0,0.0,2.343,2.4717,2.5405,2.6075,2.6704,2.6273,2.5495,2.4335,2.3261,2.2603,2.2433,2.2433,2.2411,2.2422,2.2826,0.0,0.0,0.0,0.0,0.0,0.0,0.0,0.0,0.0,0.0,0.0,0.0,0.0,0.0,0.0,0.0,0.0,0.0,0.0,2.0111,2.0264,2.0447,0.0,0.0,0.0,0.0,0.0,0.0,0.0,0.0,0.0,2.0302,2.1054,2.1966,0.0,0.0,2.3577,2.3712,2.4899,2.5879,2.618,2.6884,0.0,0.0,2.7126,2.7297,2.7264,2.8294,2.8925,2.8549,2.8675,2.875,2.848,2.8675,2.8706,2.8308,2.6883,2.5729,2.5348,2.5512,2.5628,2.5334,2.525,2.527,2.655,2.4264,2.3545,2.3251,2.3281,2.367,2.407,2.4388,2.4377,2.4489,2.4549,2.337,2.2911,2.2971,2.2054,0.0,0.0,0.0,2.4309,2.5237,2.6045,2.6662,2.723,2.8034,2.8171,2.7812,2.7931,2.7572,2.6811,2.6901,2.5878,2.368,0.0,0.0,2.3062,2.3699,2.4526,2.5561,2.6243,2.6782,2.7183,2.6554,2.5824,2.5023,2.3999,2.346,2.343,2.3171,2.3062,2.3052,2.3433,2.323,0.0,0.0,0.0,0.0,0.0,0.0,0.0,0.0,0.0,0.0,0.0,2.0477,0.0,0.0,0.0,0.0,2.0678,2.0614,2.0993,2.132,0.0,0.0,0.0,0.0,0.0,0.0,0.0,2.1526,2.2144,2.2546,2.2353,2.272,2.3085,2.3411,2.3938,2.4406,2.4607,0.0,2.665,2.706,2.7846,2.8398,2.8298,2.8291,2.8398,2.8725,2.9346,2.9779,2.9779,2.9779,2.9779,2.9779,2.9779,2.9779,2.9779,2.8693,2.7737,2.7464,2.7619,2.7686,2.7427,2.7541,2.7682,3.1352,3.0061,2.7504,2.629,2.6008,2.5997,2.6004,2.6004,2.6051,2.6674,2.7525,2.5734,2.5513,2.6422,2.5292,0.0,2.4862,2.5531,2.6524,2.7764,2.7884,2.856,2.9728,2.9861,2.9847,2.9728,2.9249,2.8889,2.8667,2.8171,2.7512,2.6722,2.5573,2.4586,2.3838,2.4436,2.5094,2.5764,2.6435,2.6752,2.6764,2.6063,2.5674,2.5663,2.5005,2.4593,2.4575,2.3958,2.3599,2.3588,2.3714,2.3169,2.1955,0.0,0.0,0.0,0.0,0.0,0.0,0.0,0.0,0.0,0.0,0.0,0.0,0.0,0.0,0.0,2.1608,0.0,2.1583,2.1594,0.0,0.0,0.0,2.2644,2.317,2.323,2.3246,2.3246,0.0,0.0,2.4004,2.4104,2.413,2.413,2.454,2.5067,2.5678,2.6256,2.7002,2.7978,2.8605,2.9157,2.9553,2.9654,2.9628,2.9679,2.9779,2.9779,2.9779,2.9779,2.9779,2.9779,2.9779,2.9779,2.9779,2.9704,2.9779,2.964,2.969,2.9715,2.9618,2.9904,3.0184,3.4651,3.4298,3.3653,3.1866,2.9496,2.9394,2.9355,2.9371,2.988,2.9461,2.8351,2.7889,2.6961,2.5854,2.6033,2.6405,2.6914,2.756,2.8338,2.9159,3.0133,3.0747,3.1106,3.2078,3.2048,3.1166,3.1914,3.1314,2.9458,3.0193,2.973,2.8231,2.8321,2.729,2.5214,2.5782,2.6452,2.7136,2.7799,2.8128,2.8098,2.6973,2.6375,2.6375,2.5214,2.4605,2.4605,2.3958,2.3599,2.3599,2.4104,2.3954,2.3054,2.3216,0.0,0.0,0.0,0.0,0.0,0.0,0.0,0.0,0.0,2.1493,2.1493,0.0,2.1683,0.0,2.2483,2.2558,2.2132,2.2483,0.0,0.0,2.3587,2.3803,2.434,2.439,2.4415,2.4374,2.4399,2.4449,2.4591,2.4983,2.5209,2.5209,2.5335,2.5762,2.6758,2.7386,2.7946,2.858,2.9183,2.9628,2.9773,2.9779,2.9779,2.9779,2.9779,2.9779,2.9779,2.9779,2.9779,2.9779,2.9779,2.9779,2.9779,2.9779,2.9779,2.9779,2.9779,2.9779,2.9779,2.9905,3.0005,3.7235,3.7209,3.6835,3.5783,3.4251,3.2918,3.2369,3.2385,3.2389,3.1764,3.0761,3.0448,2.9551,2.8252,2.8637,2.9146,2.9788,3.0149,3.0702,3.1374,3.2048,3.2392,3.2422,3.3155,3.3095,3.2422,3.3155,3.2587,3.1045,3.1914,3.1375,2.9475,3.0089,2.9415,2.747,2.7752,2.8124,2.8483,2.8859,2.8906,2.8577,2.7859,2.75,2.744,2.6171,2.5633,2.5902,2.5016,2.4496,2.4507,2.5124,2.5034,2.4057,2.4554,2.4257,0.0,0.0,0.0,0.0,0.0,0.0,0.0,0.0,0.0,0.0,0.0,2.2447,0.0,2.3311,2.3487,2.3411,2.3687,2.4014,2.4315,2.4356,2.4465,2.4766,2.4816,2.4816,2.4816,2.4816,2.4892,2.5134,2.541,2.5686,2.5954,2.6005,2.6323,2.7135,2.7745,2.8279,2.8813,2.9408,2.9779,2.9779,2.9779,2.9779,2.9779,2.9779,2.9779,2.9779,2.9779,2.9779,2.9779,2.9779,2.9779,2.9779,2.9779,2.9779,2.9779,2.9779,2.9779,2.9824,2.996,3.0156,3.914,3.9091,3.8384,3.8454,3.8849,3.631,3.5079,3.4771,3.4152,3.3802,3.3574,3.2901,3.2303,3.175,3.175,3.2093,3.2602,3.2632,3.2946,3.3484,3.3574,3.3634,3.3634,3.3739,3.3724,3.3604,3.3724,3.3365,3.2662,3.3305,3.2677,3.0971,3.1405,3.1076,3.0027,2.9877,2.9817,2.9728,2.9698,2.9415,2.8846,2.8667,2.8607,2.8547,2.729,2.6854,2.7405,2.6255,2.5615,2.5644,2.6243,2.6048,2.4916,2.5859,2.5612,0.0,2.4029,0.0,0.0,0.0,0.0,0.0,0.0,0.0,0.0,2.3296,2.3537,2.4039,2.4089,2.4305,2.4766,2.4816,2.4842,2.4892,2.4892,2.4917,2.4992,2.5017,2.5017,2.5017,2.5017,2.5209,2.5653,2.5711,2.5929,2.6373,2.6449,2.6625,2.711,2.7713,2.8279,2.8831,2.9408,2.9779,2.9779,2.9779,2.9779,2.9779,2.9779,2.9779,2.9779,2.9779,2.9779,2.9779,2.9779,2.9779,2.9779,2.9779,2.9779,2.9779,2.9779,2.9779,2.9829,3.0105,3.0462,3.991,3.9897,3.9725,3.9741,3.9778,3.8598,3.7082,3.5468,3.5844,3.5354,3.4294,3.3604,3.3245,3.3125,3.3125,3.3185,3.3305,3.3305,3.341,3.3514,3.4069,3.4308,3.4354,3.4861,3.4831,3.4368,3.4861,3.4502,3.3335,3.3979,3.3829,3.2946,3.2527,3.2183,3.1944,0.0,0.0,0.0,3.0313,3.0253,3.0103,2.9116,2.8607,2.8577,2.729,0.0,2.6764,2.6033,2.5615,2.5644,2.6243,0.0,0.0,0.0,0.0,0.0,0.0,0.0,0.0,0.0,0.0,0.0,2.4424,2.4274,2.3904,2.4214,2.454,2.4641,2.4666,2.4691,2.4791,2.4816,2.4967,2.541,2.546,2.5636,2.608,2.6172,2.6172,2.6197,2.6155,2.618,2.6273,2.6323,2.6348,2.6474,2.6499,2.6524,2.6625,2.7512,2.8254,2.8831,2.9408,2.9779,2.9779,2.9779,2.9779,2.9779,2.9779,2.9779,2.9779,2.9779,2.9779,2.9779,2.9779,2.9779,2.9779,2.9779,2.9779,2.9779,2.9779,2.9779,2.9779,2.988,2.9955,4.0113,0.0,4.0113,4.0113,0.0,3.9662,3.8643,3.7217,3.7194,3.655,3.5537,3.5171,3.4803,3.4472,3.4502,3.4472,3.4472,3.4502,3.4472,3.4502,3.4831,3.4997,3.5027,3.534,3.531,3.5027,3.534,3.4981,3.4069,3.4681,3.4472,3.3514,3.35,3.3335,3.2976,3.2333,3.1675,3.1017,3.0987,3.0837,3.0492,2.985,2.9385,2.9069,0.0,0.0,0.0,0.0,0.0,0.0,0.0,0.0,0.0,0.0,0.0,2.5952,2.5896,2.5801,2.5629,2.5251,2.5159,2.5411,2.5277,2.4967,2.4415,2.4641,2.4917,2.5168,2.5193,2.531,2.5586,2.5653,2.5753,2.6005,2.603,2.6197,2.6424,2.6499,2.6499,2.6499,2.6499,2.6499,2.6499,2.6499,2.6499,2.6499,2.6499,2.6499,2.66,2.7412,2.8355,2.9183,2.9553,2.9779,2.9779,2.9779,2.9779,2.9779,2.9779,2.9779,2.9779,2.9779,2.9779,2.9779,2.9779,2.9779,2.9779,2.9779,2.9779,2.9779,2.9779,2.9779,2.9779,2.9779,2.9779,4.0113,4.0113,4.0113,4.0113,4.0113,4.0113,3.9714,3.9076,0.0,0.0,0.0,3.6584,3.6196,3.5506,3.5489,3.5489,3.5489,3.5489,3.5489,3.5489,3.5489,3.5489,3.5489,3.5489,3.5489,3.5489,3.5489,3.522,3.4697,3.522,3.4951,3.3993,3.4308,3.4158,3.3514,3.2976,3.2378,3.1869,3.163,3.1241,3.0702,3.0552,3.0253,2.9758,2.9009,2.8607,2.8577,2.7961,2.7585,2.7615,2.7735,2.7764,2.7794,2.7897,2.7873,2.7671,2.7645,2.7569,2.7455,2.6696,2.6283,2.6389,2.5986,2.5552,2.4967,2.5042,2.5285,2.5728,2.5753,2.5954,2.6466,2.6499,2.6499,2.6499,2.6499,2.6474,2.6499,2.6499,2.6499,2.6499,2.6499,2.6499,2.6516,2.6617,2.665,2.665,2.6801,2.6851,2.6984,2.762,2.8499,2.9503,2.9754,2.9779,2.9779,2.9779,2.9779,2.9779,2.9779,2.9779,2.9779,2.9779,2.9779,2.9779,2.9779,2.9779,2.9779,2.9779,2.9779,2.9779,2.9779,2.9779,2.9779,2.9779,2.9779,4.0113,4.0113,4.0113,4.0113,4.0113,4.0113,4.0062,3.9791,3.8432,3.7352,3.6584,3.6584,3.6196,3.5489,3.5489,3.5489,3.5489,3.5489,3.5489,3.5489,3.5489,3.5489,3.5489,3.5489,3.5489,3.5489,3.5489,3.5459,3.537,3.5459,3.5383,3.516,3.4757,3.4158,3.356,3.3395,3.3305,3.3185,3.2079,3.1451,3.1361,3.0807,3.0462,3.0342,2.9235,2.8607,2.8577,2.7961,2.7585,2.7615,2.8141,2.8457,2.8487,2.8992,2.9012,2.8364,2.828,2.8211,2.8092,2.7254,2.6987,2.7397,2.6789,2.6122,2.5561,2.5971,2.6298,2.639,2.6323,2.6399,2.6499,2.6499,2.6499,2.6499,2.6499,2.6499,2.6499,2.6499,2.6499,2.6524,2.6499,2.6524,2.6625,2.6952,2.7185,2.7236,2.7469,2.7971,2.8254,2.8298,2.8599,2.9478,2.9779,2.9779,2.9779,2.9779,2.9779,2.9779,2.9779,2.9779,2.9779,2.9779,2.9779,2.9779,2.9779,2.9779,2.9779,2.9779,2.9779,2.9779,2.9779,2.9779,2.9779,2.9779,2.9779,4.0113,4.0113,4.0113,4.0113,4.0113,4.0113,4.0113,4.0062,3.9375,3.858,3.7887,3.7844,3.7187,3.6165,3.6554,3.629,3.5506,3.5911,3.5894,3.5506,3.5489,3.5489,3.5489,3.5489,3.5489,3.5489,3.5489,3.5489,3.5489,3.5489,3.5489,3.5489,3.519,3.4891,3.4592,3.4218,3.4023,3.4009,3.2721,3.2019,3.2019,3.1391,3.0867,3.0508,2.9924,2.9475,2.9159,2.883,2.8693,2.8693,2.8979,2.9159,2.9146,2.9428,2.9591,2.9526,2.9541,2.9693,2.9971,2.9531,2.9136,2.8953,2.845,2.8015,2.7756,2.6985,2.6499,2.6499,2.6499,2.6499,2.6499,2.6499,2.6499,2.6499,2.6499,2.6499,2.6499,2.6499,2.6625,2.6876,2.6952,2.7052,2.7336,2.7587,2.772,2.7763,2.7996,2.8329,2.8831,2.8731,2.8806,2.9603,2.9779,2.9779,2.9779,2.9779,2.9779,2.9779,2.9779,2.9779,2.9779,2.9779,2.9779,2.9779,2.9779,2.9779,2.9779,2.9779,2.9779,2.9779,2.9779,2.9779,2.9779,2.9779,2.9779,4.0337,4.0337,4.018,4.0113,4.0113,4.0113,4.0168,4.0337,4.0324,4.0063,3.964,3.9154,3.8129,3.7009,3.7545,3.704,3.5973,3.6506,3.6441,3.5794,3.5848,3.5848,3.5759,3.5878,3.5789,3.5549,3.5639,3.5669,3.5519,3.5489,3.5489,3.5489,3.5489,3.5489,3.5489,3.4997,3.4727,3.4637,3.3544,3.2826,3.2482,3.1989,3.1405,3.0777,3.0582,3.0283,2.9817,2.9668,2.9608,2.9608,2.9728,2.9804,2.9788,2.9967,3.0253,3.0658,3.0731,3.0931,3.1353,3.1431,3.1143,3.0547,3.0086,2.9808,2.9651,2.8179,2.7077,2.6886,2.6884,2.6901,2.6927,2.6901,2.6834,2.6859,2.6876,2.6927,2.6859,2.6851,2.6984,2.7412,2.7487,2.7663,2.7996,2.8222,2.8373,2.8499,2.8499,2.8674,2.9007,2.9107,2.9308,2.9603,2.9723,2.9654,2.9729,2.9628,2.9628,2.9729,2.9779,2.9779,2.9779,2.9779,2.9779,2.9779,2.9779,2.9779,2.9779,2.9779,2.9779,2.9779,2.9779,2.9779,2.9779,2.9779,2.9779,4.1102,4.1001,4.0405,4.0113,4.0146,4.0146,4.0506,4.1068,4.1102,4.1448,4.1674,3.98,3.8516,3.7778,3.7839,3.7461,3.6647,3.7204,3.7146,3.6563,3.6985,3.6926,3.6493,3.6926,3.661,3.5729,3.6134,3.6058,3.5579,3.5519,3.5489,3.5489,3.5489,3.5489,3.5489,3.5413,3.54,3.54,3.4697,3.3739,3.2572,3.2452,3.2079,3.1406,3.0837,3.0492,3.0432,2.9894,2.9608,2.9638,3.0133,3.0432,3.0492,3.0987,3.1331,3.1391,3.1421,3.1368,3.1293,3.1775,3.2102,3.1958,3.1314,3.0853,3.0718,2.9824,2.8845,2.8264,2.8019,2.7943,2.7964,2.795,2.7954,2.7922,2.7882,2.7971,2.7925,2.7946,2.7996,2.7996,2.8076,2.8072,2.8339,2.8611,2.9007,2.9402,2.9428,2.9453,2.9578,2.9603,2.9628,2.9654,2.9358,2.9283,2.9603,2.9308,2.9377,2.9704,2.9779,2.9779,2.9779,2.9779,2.9779,2.9779,2.9779,2.9779,2.9779,2.9779,2.9779,2.9779,2.9779,2.9779,2.9779,2.9779,2.9779,4.1847,4.1813,4.1521,4.1386,4.1352,4.0933,4.117,4.1779,4.1373,4.161,4.2158,4.1318,4.0489,3.9844,4.0268,3.9797,3.8676,3.8854,3.8544,3.7771,3.7164,3.6896,3.7045,3.6896,3.6746,3.661,3.6537,3.6357,3.6058,3.5699,3.5699,3.5998,3.5729,3.5489,3.5489,3.5489,3.5489,3.5489,3.522,3.4622,3.3754,3.3275,3.2796,3.2153,3.1839,3.1465,3.1122,3.0837,3.0717,3.0717,3.0957,3.1106,3.1092,3.1361,3.169,3.2049,3.2452,3.2661,3.2564,3.3197,3.3551,3.3551,3.3066,3.2749,3.2665,3.1847,3.1154,3.0744,2.966,2.893,2.8956,2.8938,2.893,2.8858,2.8478,2.8333,2.8858,2.846,2.838,2.9214,2.8925,2.9004,2.9629,2.9611,2.9566,2.9754,2.9779,2.9779,2.9798,2.9779,2.9779,2.9729,2.9283,2.9208,2.9628,2.9628,2.9578,2.9704,2.9779,2.9779,2.9779,2.9779,2.9779,2.9779,2.9779,2.9779,2.9779,2.9779,2.9779,2.9779,2.9779,2.9779,2.9779,2.9779,2.9779,4.2591,4.2591,4.2388,4.2286,4.2252,4.1745,4.1914,4.2489,4.2049,4.2219,4.2875,4.2943,4.265,4.2208,4.2287,4.1566,4.0457,4.0488,4.0113,3.9264,3.8138,3.7812,3.799,3.7537,3.7315,3.7345,3.7182,3.6943,3.6703,3.6088,3.6044,3.6327,3.5818,3.5489,3.5489,3.5489,3.5489,3.5489,3.5489,3.525,3.4757,3.4292,3.3634,3.2871,3.2796,3.2452,3.1809,3.1929,3.1959,3.178,3.1929,3.2063,3.2049,3.2049,3.2273,3.2766,3.3395,3.3799,3.3784,3.4398,3.4787,3.4739,3.4525,3.4279,3.3973,3.3394,3.2999,3.2828,3.1628,3.0746,3.0387,3.0325,3.0325,3.0272,2.9694,2.9666,3.021,2.9676,2.9831,3.0742,3.0469,3.0295,3.1172,3.082,3.0247,3.0228,3.0011,2.9972,3.012,3.0235,3.0266,3.0514,3.0202,2.9939,2.9852,2.9553,2.9628,2.9779,2.9779,2.9779,2.9779,2.9779,2.9779,2.9779,2.9779,2.9779,2.9779,2.9779,2.9779,2.9779,2.9779,2.9779,2.9779,2.9779,2.9779,4.3355,4.3254,4.2625,4.2388,4.232,4.23,4.2658,4.3355,4.3254,4.3707,4.433,4.4398,4.4451,4.4226,4.2983,4.1909,4.1319,4.18,4.1632,4.0911,4.0466,4.0113,3.9615,3.9372,3.8584,3.7674,3.7943,3.7883,3.7375,3.6763,3.6464,3.6493,3.5878,3.5519,3.5489,3.5489,3.5489,3.5489,3.5489,3.5459,3.5429,3.537,3.4711,3.3634,3.3455,3.3155,3.2617,3.3066,3.3095,3.2482,3.3006,3.3365,3.3365,3.338,3.3395,3.353,3.4099,3.4458,3.4518,3.504,3.54,3.5413,3.5316,3.5004,3.4245,3.4013,3.3945,3.3927,3.3745,3.3271,3.2594,3.2335,3.2309,3.2319,3.2331,3.2232,3.2366,3.2114,3.2341,3.2457,3.2323,3.2225,3.2433,3.1719,3.1249,3.0988,3.0419,3.0216,3.0951,3.1156,3.1444,3.201,3.2118,3.182,3.0241,2.9777,2.9599,2.9578,2.9779,2.9798,2.9779,2.9779,2.9779,2.9779,2.9779,2.9779,2.9779,2.9779,2.9779,2.9779,2.9779,2.9779,2.9779,2.9779,2.9779,4.4161,4.4161,4.389,4.3755,4.3721,4.3234,4.347,4.4127,4.3626,4.3842,4.4499,4.4567,4.4567,4.4567,4.4025,4.363,4.3336,4.308,4.273,4.2269,4.0827,4.0149,4.0251,3.9299,3.8793,3.8703,3.8482,3.829,3.8003,3.7375,3.7075,3.6985,3.6447,3.5938,3.5579,3.5489,3.5489,3.5489,3.5489,3.5489,3.5489,3.5489,3.525,3.4801,3.4368,3.3829,3.314,3.3365,3.3365,3.3155,3.3395,3.3514,3.356,3.3919,3.4128,3.4218,3.4757,3.513,3.516,3.537,3.5489,3.5489,3.5489,3.5375,3.5067,3.4968,3.4984,3.4938,3.4938,3.4756,3.4459,3.3905,3.3498,3.3446,3.2964,3.2894,3.3237,3.2999,3.2806,3.3314,3.347,3.3279,3.2816,3.229,3.2092,3.2083,3.1792,3.1756,3.1956,3.2119,3.2254,3.2486,3.2575,3.2407,3.1847,3.0894,3.0357,2.9923,2.9779,2.9837,2.9837,2.9798,2.9798,2.9779,2.9779,2.9779,2.9779,2.9779,2.9779,2.9779,2.9779,2.9779,2.9779,2.9779,2.9779,4.4567,4.4567,4.4567,4.4567,4.4533,4.4012,4.4079,4.4533,4.4012,4.4079,4.4533,4.4567,4.4567,4.4567,4.4567,4.4567,4.4525,4.3977,4.371,4.3529,4.1454,4.0692,4.0788,3.9469,3.896,3.9272,3.896,3.8721,3.8661,3.8063,3.7614,3.7375,3.6806,3.6194,3.5609,3.5489,3.5489,3.5489,3.5489,3.5489,3.5489,3.5489,3.5489,3.5429,3.5056,3.4518,3.3859,3.4023,3.4023,3.3889,3.4039,3.4143,3.4203,3.4578,3.4817,3.4861,3.522,3.5489,3.5489,3.5489,3.5489,3.5489,3.5489,3.5489,3.5489,3.5489,3.5489,3.5489,3.5489,3.5489,3.5375,3.4856,3.4493,3.4426,3.3922,3.3785,3.4329,3.3939,3.3922,3.4358,3.4493,3.4177,3.3665,3.3272,3.3087,3.3035,3.2851,3.2692,3.2964,3.3052,3.3237,3.3463,3.3636,3.3498,3.308,3.2404,3.1784,3.1315,3.0476,3.0305,3.0177,3.0088,2.9953,2.9876,2.9818,2.9798,2.9798,2.9798,2.9779,2.9779,2.9779,2.9779,2.9779,2.9779,2.9779,4.4567,4.4567,4.4567,4.4567,4.4567,4.4499,4.4567,4.4581,4.4533,4.4499,4.4567,4.4567,4.4567,4.4567,4.4567,4.4567,4.4587,4.4483,4.4454,4.4279,4.2719,4.1933,4.1885,4.0368,3.9522,3.9517,3.9409,3.9361,3.9272,3.8691,3.8123,3.7434,3.6972,3.6357,3.5549,3.5609,3.5549,3.5519,3.5489,3.5489,3.5489,3.5489,3.5489,3.5489,3.5429,3.513,3.4518,3.507,3.507,3.4637,3.5086,3.5459,3.534,3.54,3.5459,3.54,3.5489,3.5489,3.5489,3.5489,3.5489,3.5489,3.5489,3.5489,3.5489,3.5489,3.5489,3.5489,3.5489,3.5489,3.5489,3.5408,3.5359,3.5457,3.5182,3.5198,3.5343,3.5441,3.5457,3.5392,3.5343,3.5457,3.5231,3.4576,3.403,3.3876,3.3463,3.3237,3.3859,3.4024,3.4413,3.5004,3.5001,3.456,3.4262,3.3927,3.3383,3.2798,3.181,3.1212,3.1063,3.0959,3.0733,3.0627,3.0305,3.0266,3.0177,3.012,2.9818,2.9779,2.9779,2.9818,2.9779,2.9779,2.9779,4.4567,4.4567,4.4567,4.4567,4.4567,4.4567,4.4567,4.4567,4.4567,4.4567,4.4567,4.4567,4.4567,4.4601,4.4567,4.4601,4.4567,4.4567,4.4601,4.4431,4.3428,4.2846,4.2645,4.1706,4.0877,4.0274,3.9666,3.9421,3.9361,3.9182,3.8751,3.8153,3.7883,3.7242,3.6237,3.6194,3.5998,3.5549,3.5489,3.5489,3.5489,3.5489,3.5489,3.5489,3.5489,3.537,3.519,3.54,3.54,3.5176,3.537,3.5489,3.5489,3.5489,3.5489,3.5489,3.5489,3.5489,3.5489,3.5489,3.5489,3.5489,3.5489,3.5489,3.5489,3.5489,3.5489,3.5489,3.5489,3.5489,3.5489,3.5489,3.5489,3.5489,3.5489,3.5489,3.5489,3.5489,3.5489,3.5489,3.5489,3.5489,3.5457,3.5083,3.4955,3.4938,3.4643,3.466,3.4889,3.4905,3.5067,3.5441,3.5441,3.5424,3.4988,3.471,3.4476,3.3837,3.2939,3.2209,3.2046,3.1719,3.1526,3.1304,3.0988,3.0809,3.0677,3.0514,3.0286,2.9985,3.0043,2.9991,2.9837,2.9972,3.0254,4.4567,4.4567,4.4567,4.4567,4.4567,4.4567,4.4567,4.4567,4.4567,4.4567,4.4567,4.4567,4.4784,4.4973,4.5007,4.5176,4.5379,4.5427,4.5413,4.5163,4.3861,4.3338,4.3108,4.2029,4.1079,4.0274,3.9648,3.9421,3.9421,3.9391,3.9032,3.8499,3.8392,3.7871,3.6913,3.6613,3.6254,3.5908,3.5639,3.5489,3.5489,3.5489,3.5489,3.5489,3.5489,3.5489,3.5489,3.5489,3.5489,3.5489,3.5489,3.5489,3.5489,3.5489,3.5489,3.5489,3.5489,3.5489,3.5489,3.5489,3.5489,3.5489,3.5489,3.5489,3.5489,3.5489,3.5489,3.5489,3.5489,3.5489,3.5489,3.5489,3.5489,3.5489,3.5489,3.5489,3.5489,3.5489,3.5489,3.5489,3.5489,3.5489,3.5489,3.5489,3.5489,3.5489,3.5489,3.5489,3.5489,3.5457,3.5489,3.5473,3.5473,3.5473,3.5473,3.5441,3.5441,3.4789,3.4007,3.3429,3.3052,3.2522,3.2164,3.2101,3.1847,3.1774,3.1646,3.1452,3.1212,3.0865,3.0665,3.1015,3.123,3.1137,3.1286,4.4635,4.4615,4.4567,4.4567,4.4567,4.4567,4.4567,4.4567,4.4567,4.4567,4.4567,4.4567,4.4939,4.5466,4.55,4.5872,4.6583,4.6631,4.6563,4.605,4.4775,4.3749,4.3338,4.198,4.0848,3.9973,3.9661,3.9529,3.9571,3.9451,3.914,3.8721,3.8601,3.8153,3.7524,3.6896,3.6703,3.6477,3.5938,3.5639,3.5609,3.5519,3.5489,3.5489,3.5489,3.5489,3.5489,3.5489,3.5489,3.5489,3.5489,3.5489,3.5489,3.5489,3.5489,3.5489,3.5489,3.5489,3.5489,3.5489,3.5489,3.5489,3.5489,3.5489,3.5489,3.5489,3.5489,3.5489,3.5489,3.5489,3.5489,3.5489,3.5489,3.5489,3.5489,3.5489,3.5489,3.5489,3.5489,3.5489,3.5489,3.5489,3.5489,3.5489,3.5489,3.5489,3.5489,3.5489,3.5489,3.5489,3.5489,3.5489,3.5489,3.5489,3.5489,3.5489,3.5489,3.5294,3.4677,3.438,3.4075,3.3567,3.329,3.3168,3.2788,3.27,3.2522,3.2299,3.2137,3.1938,3.2065,3.2504,3.2433,3.2137,3.2065,4.5108,4.4601,4.4567,4.4567,4.4567,4.4567,4.4567,4.4567,4.4567,4.4567,4.4567,4.4567,4.4736,4.4939,4.55,4.5838,4.6244,4.665,4.6786,4.6703,4.6286,4.5211,4.4219,4.3007,4.1984,4.1266,4.0555,4.0127,4.0079,3.9738,3.9619,3.9858,3.932,3.8793,3.8182,3.7913,3.7614,3.7135,3.6553,3.6224,3.6118,3.5729,3.5489,3.5489,3.5489,3.5489,3.5489,3.5489,3.5489,3.5489,3.5489,3.5489,3.5489,3.5489,3.5489,3.5489,3.5489,3.5489,3.5489,3.5489,3.5489,3.5489,3.5489,3.5489,3.5489,3.5489,3.5489,3.5489,3.5489,3.5489,3.5489,3.5489,3.5489,3.5489,3.5489,3.5489,3.5489,3.5489,3.5489,3.5489,3.5489,3.5489,3.5489,3.5489,3.5489,3.5489,3.5489,3.5489,3.5489,3.5489,3.5489,3.5489,3.5489,3.5489,3.5489,3.5489,3.5489,3.5503,3.5294,3.5182,3.4988,3.4822,3.4789,3.4806,3.3956,3.3653,3.3359,3.3063,3.2964,3.3017,3.2939,3.308,3.277,3.2514,3.2621,4.5007,4.4567,4.4567,4.4567,4.4567,4.4567,4.4567,4.4567,4.4567,4.4567,4.4567,4.4567,4.4939,4.5548,4.5974,4.6549,4.709,4.753,4.7733,4.7665,4.738,4.6376,4.5123,4.4264,4.3475,4.2357,4.1714,4.1237,4.083,4.0397,4.0367,4.0277,3.9989,3.9481,3.8823,3.8482,3.8242,3.7764,3.7195,3.6793,3.6477,3.6148,3.5759,3.5579,3.5489,3.5489,3.5489,3.5489,3.5489,3.5489,3.5489,3.5489,3.5489,3.5489,3.5489,3.5489,3.5489,3.5489,3.5489,3.5489,3.5489,3.5489,3.5489,3.5489,3.5489,3.5489,3.5489,3.5489,3.5489,3.5489,3.5489,3.5489,3.5489,3.5489,3.5489,3.5489,3.5489,3.5489,3.5489,3.5489,3.5489,3.5489,3.5489,3.5489,3.5489,3.5489,3.5489,3.5489,3.5489,3.5489,3.5489,3.5489,3.5489,3.5489,3.5489,3.5489,3.5489,3.5473,3.5473,3.5489,3.5489,3.5489,3.5441,3.5248,3.4856,3.4526,3.4211,3.4075,3.4257,3.416,3.3854,3.3734,3.3682,3.3394,3.3446,4.4736,4.4702,4.4649,4.4567,4.4601,4.4668,4.4702,4.4601,4.4736,4.477,4.477,4.475,4.5481,4.68,4.6819,4.7564,4.8714,4.868,4.8849,4.8646,4.8228,4.7292,4.6247,4.5625,4.4511,4.3197,4.2932,4.2328,4.1648,4.1373,4.1134,4.0846,4.0636,4.0109,3.9559,3.899,3.8649,3.8422,3.7853,3.7345,3.6956,3.6686,3.6297,3.5789,3.5549,3.5519,3.5489,3.5489,3.5489,3.5489,3.5489,3.5489,3.5489,3.5489,3.5489,3.5489,3.5489,3.5489,3.5489,3.5489,3.5489,3.5489,3.5489,3.5489,3.5489,3.5489,3.5489,3.5489,3.5489,3.5489,3.5489,3.5489,3.5489,3.5489,3.5489,3.5489,3.5489,3.5489,3.5489,3.5489,3.5489,3.5489,3.5489,3.5489,3.5489,3.5489,3.5489,3.5489,3.5489,3.5489,3.5489,3.5489,3.5489,3.5489,3.5489,3.5489,3.5489,3.5489,3.5489,3.5489,3.5489,3.5489,3.5489,3.5359,3.5116,3.51,3.5149,3.5182,3.5215,3.5149,3.4723,3.5017,3.5264,3.4806,3.4673,4.5466,4.5399,4.4852,4.4567,4.4702,4.521,4.5142,4.4649,4.5244,4.5466,4.5466,4.5466,4.5974,4.6868,4.7394,4.7887,4.8326,4.8748,4.9018,4.8984,4.8883,4.8652,4.7908,4.6984,4.5407,4.4189,4.3684,4.3082,4.2311,4.1792,4.1613,4.1871,4.1343,4.0846,4.0247,3.9948,3.9679,3.9182,3.8542,3.8123,3.7823,3.7404,3.6896,3.6267,3.5789,3.5519,3.5489,3.5489,3.5489,3.5489,3.5489,3.5489,3.5489,3.5489,3.5489,3.5489,3.5489,3.5489,3.5489,3.5489,3.5489,3.5489,3.5489,3.5489,3.5489,3.5489,3.5489,3.5489,3.5489,3.5489,3.5489,3.5489,3.5489,3.5489,3.5489,3.5489,3.5489,3.5489,3.5489,3.5489,3.5489,3.5489,3.5489,3.5489,3.5489,3.5489,3.5489,3.5489,3.5489,3.5489,3.5489,3.5489,3.5489,3.5489,3.5489,3.5489,3.5489,3.5489,3.5489,3.5489,3.5489,3.5489,3.5489,3.5489,3.5457,3.5489,3.5489,3.5473,3.5375,3.5441,3.5489,3.5489,3.5489,3.5489,3.5623,4.6007,4.5669,4.5263,4.5108,4.5162,4.55,4.5297,4.4905,4.5771,4.6007,4.5838,4.6027,4.6616,4.7293,4.7718,4.8056,4.8443,4.8781,4.9018,4.9018,4.8984,4.8984,4.8904,4.805,4.6782,4.5304,4.5017,4.4223,4.3078,4.2462,4.2342,4.2381,4.2032,4.1523,4.0876,4.0576,4.0217,3.9828,3.923,3.8751,3.838,3.8063,3.7375,3.6673,3.6134,3.5848,3.5549,3.5489,3.5489,3.5489,3.5489,3.5489,3.5489,3.5489,3.5489,3.5489,3.5489,3.5489,3.5489,3.5489,3.5489,3.5489,3.5489,3.5489,3.5489,3.5489,3.5489,3.5489,3.5489,3.5489,3.5489,3.5489,3.5489,3.5489,3.5519,3.5489,3.5489,3.5489,3.5489,3.5489,3.5489,3.5489,3.5489,3.5549,3.5519,3.5519,3.5473,3.5473,3.5473,3.5473,3.5489,3.5489,3.5489,3.5489,3.5489,3.5489,3.5489,3.5489,3.5489,3.5489,3.5489,3.5489,3.5489,3.5489,3.5489,3.5489,3.5489,3.5489,3.5519,3.5519,3.5519,3.5519,3.5609,3.5848,3.6028,4.6515,4.5993,4.5906,4.5872,4.5872,4.5858,4.5568,4.5244,4.6259,4.6515,4.6244,4.6718,4.7361,4.7954,4.809,4.8462,4.8849,4.8984,4.9018,4.9018,4.9018,4.9018,4.8954,4.8666,4.7818,4.6384,4.6039,4.5028,4.368,4.326,4.294,4.2631,4.2541,4.2152,4.1553,4.1055,4.0726,4.0516,3.9918,3.9379,3.8888,3.8661,3.7973,3.7152,3.6523,3.6327,3.5968,3.5729,3.5549,3.5639,3.5579,3.5519,3.5489,3.5489,3.5489,3.5489,3.5489,3.5489,3.5489,3.5489,3.5489,3.5489,3.5489,3.5489,3.5489,3.5639,3.5759,3.5729,3.5742,3.5818,3.5759,3.5789,3.5729,3.5699,3.5699,3.5669,3.5639,3.5639,3.5699,3.5519,3.5699,3.5789,3.5699,3.5669,3.5579,3.5549,3.5533,3.5563,3.5623,3.5563,3.5639,3.5609,3.5639,3.5519,3.5489,3.5549,3.5519,3.5579,3.5549,3.5549,3.5579,3.5759,3.5789,3.5549,3.5489,3.5549,3.5549,3.5489,3.5519,3.5549,3.5759,3.5938,3.6118,3.6297,3.6447,4.709,4.7481,4.6887,4.6631,4.6616,4.6616,4.6515,4.6462,4.6733,4.7124,4.7515,4.765,4.8124,4.8646,4.8815,4.8917,4.8984,4.9018,4.9018,4.9018,4.9018,4.9018,4.9018,4.8987,4.795,4.6662,4.6138,4.5177,4.3732,4.329,4.322,4.313,4.31,4.2761,4.2361,4.2081,4.1643,4.1164,4.0535,4.0038,3.9828,3.9349,3.8781,3.7853,3.7105,3.6776,3.6716,3.6088,3.5759,3.6224,3.5789,3.5579,3.5489,3.5489,3.5489,3.5489,3.5489,3.5489,3.5489,3.5489,3.5489,3.5489,3.5549,3.5579,3.5699,3.6044,3.6284,3.6344,3.6357,3.6507,3.6998,3.6596,3.6374,3.6344,3.6327,3.6327,3.6327,3.6297,3.6164,3.5878,3.6028,3.6207,3.6148,3.6118,3.6118,3.6088,3.5998,3.6148,3.6297,3.6088,3.5908,3.5878,3.5865,3.5669,3.5489,3.5549,3.5609,3.5669,3.5669,3.5669,3.5789,3.6134,3.6164,3.6028,3.5848,3.5789,3.5729,3.5699,3.5908,3.6207,3.6357,3.6477,3.6716,3.6926,3.7135,4.7936,4.7853,4.7515,4.7394,4.7361,4.7361,4.7158,4.6955,4.7597,4.7936,4.8022,4.8293,4.8631,4.8951,4.9018,4.9018,4.9018,4.9018,4.9018,4.9018,4.9018,4.9018,4.9018,4.9018,4.7836,4.6662,4.6103,4.5201,4.3488,4.3309,4.329,4.329,4.329,4.313,4.2851,4.2511,4.2291,4.1733,4.1014,4.0427,4.0367,3.975,3.9062,3.8392,3.7793,3.7345,3.6836,3.6849,3.6267,3.6058,3.5998,3.5818,3.5609,3.5519,3.5519,3.5519,3.5519,3.5519,3.5489,3.5519,3.5639,3.5998,3.6028,3.6207,3.6447,3.6776,3.6956,3.6985,3.6956,3.7075,3.7345,3.7135,3.7015,3.6972,3.6972,3.6956,3.6956,3.6956,3.6776,3.6507,3.6776,3.6926,3.6776,3.6746,3.6746,3.6656,3.6477,3.6656,3.6943,3.6686,3.6387,3.6447,3.6477,3.6387,3.6148,3.6028,3.5998,3.5998,3.5998,3.5998,3.6207,3.6613,3.6793,3.6746,3.6537,3.649,3.649,3.6669,3.6776,3.6866,3.6956,3.7105,3.7345,3.7584,3.7793,4.8529,4.8108,4.8124,4.8124,4.809,4.7954,4.7684,4.753,4.8274,4.8462,4.8259,4.8665,4.8984,4.9018,4.9018,4.9018,4.9018,4.9018,4.9018,4.9018,4.9018,4.9018,4.9018,4.8814,4.8127,4.6885,4.6575,4.5329,4.3654,4.329,4.329,4.329,4.329,4.329,4.316,4.2851,4.2631,4.2211,4.1493,4.0804,4.0307,3.975,3.9152,3.8601,3.8499,3.7913,3.7494,3.7225,3.6819,3.637,3.6207,3.6194,3.5669,3.5639,3.5699,3.5699,3.5699,3.5699,3.5759,3.5968,3.6267,3.6626,3.6656,3.6956,3.7255,3.7434,3.7656,3.7746,3.7627,3.7764,3.7943,3.7704,3.7644,3.7614,3.7614,3.7584,3.7614,3.7644,3.7793,3.7704,3.7764,3.7584,3.7327,3.7434,3.7434,3.7105,3.6926,3.7255,3.7434,3.7285,3.7105,3.7148,3.7178,3.7178,3.6998,3.6746,3.6686,3.6656,3.6656,3.6656,3.6896,3.7195,3.7315,3.7494,3.7806,3.7806,3.7716,3.7447,3.7375,3.7375,3.7507,3.7776,3.8165,3.8392,3.8542,4.836,4.8883,4.8849,4.8868,4.8732,4.8191,4.8259,4.8612,4.8293,4.8394,4.8781,4.8951,4.9018,4.9018,4.9018,4.9018,4.9018,4.9018,4.9018,4.9018,4.9018,4.9018,4.9018,4.9018,4.8369,4.7373,4.7306,4.58,4.4136,4.3536,4.3389,4.3428,4.3369,4.329,4.326,4.313,4.319,4.304,4.2481,4.1553,4.0516,3.9828,3.9421,3.9182,3.8811,3.8529,3.8434,3.8033,3.7357,3.7135,3.6686,3.6224,3.5729,3.6088,3.6327,3.6404,3.6374,3.6387,3.6447,3.6716,3.7075,3.7255,3.7315,3.7345,3.7656,3.8093,3.8512,3.9122,3.8644,3.8512,3.8721,3.8571,3.8362,3.8272,3.8272,3.8272,3.8272,3.8285,3.8452,3.8614,3.8614,3.8135,3.7764,3.7973,3.811,3.7704,3.7477,3.7823,3.8033,3.7943,3.7823,3.7926,3.7956,3.7926,3.7836,3.7584,3.7375,3.7315,3.7315,3.7315,3.7524,3.7793,3.8123,3.8362,3.8703,3.8644,3.8165,3.7913,3.7853,3.7973,3.8195,3.8644,3.9122,3.9242,3.929,4.7733,4.8394,4.8849,4.9018,4.8984,4.8646,4.8698,4.8883,4.8665,4.8698,4.8984,4.9018,4.9018,4.9018,4.9018,4.9018,4.9018,4.9018,4.9018,4.9018,4.9018,4.9018,4.9018,4.8972,4.8513,4.7885,4.7456,4.6831,4.5214,4.4396,4.4159,4.4043,4.3576,4.329,4.329,4.329,4.329,4.313,4.2671,4.1931,4.1044,4.0367,3.996,3.9948,3.932,3.902,3.8781,3.8841,3.8063,3.7704,3.7375,3.7272,3.6806,3.6866,3.7015,3.7015,3.7375,3.7375,3.7135,3.7315,3.7614,3.7883,3.8003,3.8153,3.8464,3.8733,3.9002,3.9331,3.9152,3.9152,3.9302,3.914,3.9032,3.896,3.8871,3.8901,3.8901,3.8943,3.9062,3.9272,3.9361,3.8823,3.8404,3.8601,3.8751,3.8584,3.8404,3.8614,3.8793,3.8823,3.8733,3.8703,3.8703,3.8703,3.8554,3.8362,3.8063,3.7973,3.799,3.802,3.8123,3.8362,3.8691,3.8901,3.9092,3.8883,3.8512,3.8542,3.8614,3.8763,3.896,3.9242,3.9571,3.99,4.0038,4.7124,4.7684,4.8597,4.9018,4.9018,4.9018,4.8984,4.9018,4.8984,4.8984,4.9018,4.9018,4.9018,4.9018,4.9018,4.9018,4.9003,4.9187,4.912,4.9086,4.9154,4.9187,4.9086,4.8956,4.8673,4.7933,4.8096,4.7423,4.6523,4.567,4.5023,4.4774,4.3732,4.3369,4.329,4.329,4.329,4.323,4.272,4.2141,4.1613,4.1014,4.0606,4.0307,3.9888,3.9331,3.8841,3.905,3.8703,3.8033,3.8033,3.7883,3.7404,3.7494,3.7644,3.7793,3.8182,3.8392,3.8123,3.8105,3.8212,3.8469,3.8679,3.8811,3.9182,3.9421,3.9421,3.9421,3.9361,3.9361,3.9391,3.9361,3.9331,3.9302,3.9331,3.9391,3.9391,3.9302,3.9242,3.9331,3.9421,3.9421,3.9152,3.9272,3.9331,3.9361,3.9391,3.9421,3.9391,3.9361,3.9272,3.9092,3.9092,3.9092,3.9032,3.8883,3.8691,3.8571,3.8571,3.8631,3.8721,3.8871,3.9122,3.9331,3.9421,3.9481,3.9302,3.9361,3.9391,3.9331,3.9349,3.9589,3.9888,4.0307,4.0696,4.6819,4.6989,4.8409,4.8984,4.9018,4.9018,4.9018,4.9018,4.9018,4.9018,4.9018,4.9018,4.9018,4.9018,4.9018,4.9018,4.9052,4.9695,4.956,4.9458,4.956,4.9492,4.9221,4.8987,4.8923,4.8814,4.8704,4.8209,4.7423,4.6314,4.5561,4.4793,4.3791,4.3428,4.329,4.329,4.329,4.322,4.2761,4.253,4.2171,4.1673,4.1085,4.0606,4.0367,4.0038,3.9391,3.9391,3.9152,3.838,3.8452,3.8332,3.7973,3.8153,3.8302,3.8482,3.8841,3.9032,3.8943,3.8943,3.9182,3.9302,3.9272,3.9212,3.9391,3.9421,3.9421,3.9421,3.9421,3.9421,3.9421,3.9421,3.9421,3.9421,3.9421,3.9421,3.9421,3.9391,3.9361,3.9391,3.9421,3.9421,3.9421,3.9421,3.9421,3.9421,3.9421,3.9421,3.9421,3.9391,3.9391,3.9331,3.9331,3.9331,3.9361,3.9212,3.9062,3.9002,3.9032,3.9122,3.9212,3.9421,3.9421,3.9481,3.9541,3.981,4.0079,4.0049,3.9948,3.969,3.9768,4.0217,4.0625,4.1044,4.1313,4.638,4.6887,4.7936,4.8563,4.9018,4.9018,4.9018,4.9018,4.9018,4.9018,4.9018,4.9018,4.9018,4.9018,4.9052,4.9289,4.9627,4.9898,4.983,4.983,4.9898,4.9627,4.9255,4.9018,4.9018,4.9018,4.8938,4.8513,4.7539,4.6644,4.5724,4.4762,4.3791,4.3448,4.329,4.329,4.329,4.326,4.31,4.297,4.2821,4.2361,4.1901,4.1673,4.0606,4.0367,4.0008,3.9619,3.932,3.911,3.905,3.8793,3.8584,3.8853,3.896,3.902,3.9361,3.9421,3.9451,3.9421,3.9421,3.9421,3.9391,3.9421,3.9421,3.9421,3.9421,3.9421,3.9451,3.9511,3.9451,3.9421,3.9421,3.9421,3.9451,3.9481,3.9541,3.9631,3.9541,3.9601,3.9481,3.9421,3.9421,3.9421,3.9421,3.9421,3.9421,3.9421,3.9421,3.9421,3.9421,3.9421,3.9421,3.9421,3.9421,3.9421,3.9421,3.9421,3.9421,3.9511,3.9571,3.9421,3.9451,3.9511,3.9828,4.0217,4.0487,4.0576,4.0546,4.0457,4.0696,4.1134,4.1493,4.1792,4.2002,4.5805,4.6515,4.7008,4.7785,4.8646,4.8917,4.9018,4.9018,4.9018,4.9018,4.9018,4.9018,4.9018,4.9018,4.9018,4.9424,4.988,5.0083,5.0117,5.0083,5.0015,4.9661,4.9221,4.9018,4.9018,4.9018,4.8923,4.8529,4.7572,4.6644,4.5724,4.4762,4.3869,4.3409,4.329,4.329,4.329,4.329,4.329,4.329,4.319,4.291,4.247,4.2301,4.1463,4.1014,4.0745,4.0367,4.0187,4.0008,3.9888,3.972,3.9601,3.9571,3.9541,3.9631,3.969,3.969,3.966,3.9481,3.9421,3.9421,3.9421,3.9421,3.9421,3.9421,3.9451,3.978,3.9768,3.9768,3.987,4.0139,4.0217,4.0337,3.99,3.99,4.0049,4.0157,3.993,3.981,3.972,3.972,3.9601,3.9631,3.966,3.9571,3.9421,3.9421,3.9421,3.9421,3.9421,3.9421,3.9421,3.9421,3.9421,3.9451,3.9511,3.9541,3.9601,3.978,3.981,3.972,3.9948,4.0307,4.0606,4.0775,4.1074,4.1403,4.1403,4.1313,4.1613,4.1852,4.2312,4.2581,4.2731,4.5074,4.5703,4.579,4.6636,4.7954,4.8698,4.8969,4.9018,4.9018,4.9018,4.9018,4.9018,4.9018,4.9018,4.9018,4.9424,4.9981,5.0117,5.0117,5.0117,5.0083,4.9661,4.9255,4.9018,4.9018,4.9018,4.8923,4.8529,4.7572,4.6644,4.5724,4.4824,4.394,4.3379,4.3319,4.329,4.329,4.329,4.329,4.329,4.326,4.319,4.291,4.2571,4.2182,4.1782,4.1433,4.1134,4.0954,4.0924,4.0576,4.0397,4.0367,3.99,3.993,4.0318,4.0367,4.0397,4.0337,3.978,3.9541,3.9481,3.9481,3.9601,3.9511,3.9541,3.9828,4.0337,4.0397,4.0685,4.0984,4.1224,4.1134,4.0935,4.0546,4.0427,4.0606,4.0666,4.0457,4.0367,4.0307,4.0217,4.0008,3.9888,3.993,3.981,3.9511,3.9481,3.9631,3.978,3.99,3.996,3.996,3.978,3.981,3.966,3.9631,3.966,3.987,4.0217,4.0487,4.0636,4.0876,4.1164,4.1343,4.1433,4.1882,4.2321,4.2211,4.2102,4.2241,4.2511,4.298,4.322,4.322,4.4736,4.5007,4.55,4.6278,4.7225,4.7954,4.8529,4.8951,4.9018,4.9018,4.9018,4.9018,4.9018,4.9018,4.9086,4.939,4.9965,5.0117,5.0117,5.0117,5.0083,4.9627,4.9221,4.9018,4.9018,4.9018,4.8923,4.8529,4.7572,4.6662,4.5742,4.4824,4.4143,4.3758,4.3409,4.329,4.329,4.329,4.329,4.329,4.329,4.329,4.319,4.294,4.2631,4.2321,4.2062,4.1792,4.1583,4.1553,4.1175,4.1085,4.1044,4.0666,4.0786,4.1025,4.1074,4.1074,4.0894,4.0457,3.9888,3.975,3.978,3.9978,4.0068,4.0516,4.0834,4.0984,4.1055,4.1254,4.1313,4.1373,4.1313,4.1283,4.1055,4.1104,4.1164,4.1164,4.1074,4.1055,4.1044,4.1014,4.0864,4.0756,4.0756,4.0905,4.0737,4.0576,4.0666,4.0786,4.0924,4.0905,4.0846,4.0516,4.0289,4.0247,4.0157,4.0187,4.0516,4.0965,4.1224,4.1414,4.1463,4.1583,4.1852,4.2141,4.2421,4.269,4.2851,4.2891,4.2851,4.2851,4.313,4.326,4.326,4.4567,4.4649,4.5108,4.5906,4.6819,4.7582,4.8326,4.8917,4.9018,4.9018,4.9018,4.9018,4.9018,4.9018,4.9052,4.9424,5.0015,4.9796,5.0015,5.0015,4.9763,4.9424,4.912,4.9018,4.9018,4.9018,4.8972,4.8608,4.8112,4.6799,4.5525,4.4492,4.4318,4.4048,4.3788,4.3728,4.3529,4.3439,4.329,4.329,4.329,4.329,4.329,4.319,4.297,4.272,4.2601,4.2342,4.2043,4.1983,4.1882,4.1762,4.1733,4.1553,4.1583,4.1643,4.1752,4.1752,4.1583,4.1134,4.0576,4.0307,4.0397,4.0487,4.0696,4.1074,4.1433,4.1613,4.1733,4.1882,4.1953,4.1923,4.1953,4.1953,4.1822,4.1822,4.1953,4.1953,4.1733,4.1733,4.1733,4.1733,4.1733,4.1792,4.1762,4.1893,4.2043,4.1833,4.1583,4.1583,4.1583,4.1553,4.1463,4.1115,4.0965,4.0995,4.0876,4.0756,4.1175,4.1703,4.1912,4.2102,4.2062,4.2062,4.2402,4.2701,4.2791,4.2951,4.307,4.314,4.319,4.322,4.329,4.329,4.329,4.4567,4.4567,4.4567,4.5447,4.6718,4.7549,4.8342,4.8984,4.9018,4.9018,4.9018,4.9018,4.9018,4.9018,4.9018,4.9357,4.9778,4.9323,4.9526,4.9661,4.9424,4.9154,4.9052,4.9018,4.9018,4.9018,4.9003,4.8907,4.8736,4.734,4.553,4.4256,4.4559,4.4439,4.4328,4.4356,4.4147,4.3938,4.3609,4.3579,4.3579,4.3349,4.3319,4.326,4.319,4.316,4.31,4.304,4.307,4.2951,4.2701,4.2511,4.2241,4.1792,4.2002,4.2231,4.241,4.2421,4.2301,4.1792,4.1613,4.1324,4.0935,4.1014,4.1283,4.1673,4.2032,4.2271,4.2421,4.2761,4.298,4.301,4.304,4.2831,4.2581,4.2701,4.2921,4.2821,4.2511,4.2421,4.2391,4.2391,4.2421,4.2451,4.2432,4.2641,4.2651,4.2462,4.2192,4.1953,4.1953,4.1972,4.1822,4.1624,4.1583,4.1703,4.1643,4.1474,4.1953,4.2432,4.2611,4.2701,4.2701,4.2771,4.31,4.325,4.313,4.316,4.323,4.329,4.329,4.329,4.329,4.329,4.329,4.4567,4.4567,4.4567,4.5142,4.6128,4.738,4.8326,4.8951,4.9018,4.9018,4.9018,4.9018,4.9018,4.9018,4.9018,4.9154,4.9187,4.9154,4.9154,4.9154,4.9154,4.9052,4.9018,4.9018,4.9018,4.9018,4.9018,4.9003,4.8751,4.7605,4.6404,4.5391,4.534,4.5152,4.498,4.5224,4.5074,4.4745,4.4317,4.3997,4.3818,4.3559,4.3439,4.3319,4.329,4.329,4.329,4.329,4.329,4.322,4.313,4.304,4.298,4.2861,4.2951,4.298,4.304,4.304,4.294,4.2481,4.2241,4.2432,4.2073,4.1942,4.2152,4.2421,4.2731,4.2851,4.291,4.313,4.322,4.326,4.329,4.316,4.3,4.307,4.325,4.316,4.288,4.288,4.288,4.288,4.291,4.294,4.2951,4.319,4.32,4.298,4.2771,4.2532,4.2412,4.2402,4.2402,4.2282,4.2342,4.2481,4.2361,4.2312,4.2671,4.294,4.298,4.31,4.323,4.329,4.329,4.329,4.329,4.329,4.329,4.329,4.329,4.329,4.3319,4.3409,4.3459,4.4567,4.4567,4.4567,4.5007,4.5824,4.6974,4.7902,4.8529,4.8883,4.9018,4.9018,4.9018,4.9018,4.9018,4.9018,4.9018,4.9018,4.9052,4.9052,4.9052,4.9018,4.9018,4.9018,4.9018,4.9018,4.9018,4.9018,4.9018,4.8704,4.7638,4.6354,4.5358,4.5937,4.5546,4.532,4.5873,4.639,4.5903,4.5304,4.4685,4.4237,4.3908,4.3638,4.3349,4.3319,4.329,4.329,4.329,4.329,4.329,4.329,4.329,4.329,4.326,4.326,4.326,4.326,4.323,4.319,4.3,4.301,4.31,4.297,4.2821,4.2791,4.298,4.313,4.322,4.326,4.329,4.329,4.329,4.329,4.329,4.329,4.329,4.329,4.329,4.326,4.326,4.326,4.323,4.326,4.329,4.329,4.329,4.329,4.32,4.313,4.304,4.298,4.2951,4.301,4.304,4.309,4.3,4.288,4.2771,4.2951,4.319,4.329,4.329,4.329,4.329,4.329,4.3319,4.3379,4.3319,4.329,4.3379,4.3549,4.3579,4.3698,4.3818,4.3848,4.4533,4.4567,4.4601,4.5041,4.5737,4.6447,4.7124,4.7853,4.8443,4.8849,4.8849,4.8883,4.8849,4.8781,4.8917,4.9018,4.9018,4.9018,4.9018,4.9018,4.9018,4.9018,4.9018,4.9018,4.9018,4.9018,4.9018,4.9003,4.8529,4.7605,4.6357,4.5061,4.5462,4.5484,4.5447,4.6501,4.6899,4.6531,4.5963,4.5394,4.4745,4.4356,4.4047,4.3519,4.3349,4.329,4.329,4.329,4.329,4.329,4.329,4.329,4.329,4.329,4.329,4.329,4.329,4.329,4.329,4.319,4.322,4.326,4.329,4.319,4.319,4.322,4.329,4.329,4.329,4.329,4.329,4.329,4.329,4.329,4.329,4.329,4.329,4.329,4.329,4.329,4.329,4.329,4.329,4.329,4.329,4.329,4.329,4.329,4.329,4.329,4.329,4.329,4.329,4.326,4.325,4.319,4.325,4.323,4.329,4.329,4.329,4.329,4.329,4.329,4.3319,4.3429,4.3489,4.3549,4.3698,4.3878,4.3967,4.3938,4.4057,4.4356,4.4436,4.4045,4.4567,4.4567,4.5041,4.5669,4.5906,4.638,4.7056,4.7225,4.7631,4.809,4.8157,4.8176,4.8293,4.8732,4.8917,4.8984,4.9018,4.9018,4.9018,4.9018,4.9018,4.9018,4.9018,4.9018,4.9018,4.9018,4.9003,4.872,4.7803,4.7037,4.6602,4.6435,4.5991,4.5525,4.6711,4.71,4.683,4.6711,4.6292,4.5762,4.4805,4.4147,4.3848,4.3698,4.3349,4.329,4.329,4.329,4.329,4.329,4.329,4.329,4.329,4.329,4.329,4.329,4.329,4.329,4.329,4.329,4.329,4.329,4.329,4.329,4.329,4.329,4.329,4.329,4.329,4.329,4.329,4.329,4.329,4.329,4.329,4.329,4.329,4.329,4.329,4.329,4.329,4.329,4.329,4.329,4.329,4.329,4.329,4.329,4.329,4.329,4.329,4.329,4.329,4.329,4.329,4.329,4.329,4.329,4.329,4.329,4.329,4.329,4.329,4.3319,4.3609,4.3908,4.4057,4.4207,4.4407,4.4556,4.4586,4.4925,4.5254,4.5244,4.366,4.4093,4.4432,4.4838,4.5176,4.5196,4.5635,4.6177,4.5988,4.6244,4.694,4.7244,4.7549,4.7804,4.836,4.88,4.8951,4.9018,4.9018,4.9018,4.9018,4.9018,4.9018,4.9018,4.9018,4.9018,4.9018,4.8972,4.8845,4.8081,4.7412,4.7189,4.6848,4.6416,4.5908,4.6711,4.713,4.6809,4.713,4.704,4.654,4.5523,4.4356,4.3997,4.3579,4.329,4.329,4.329,4.329,4.329,4.329,4.329,4.329,4.329,4.329,4.329,4.329,4.329,4.329,4.329,4.329,4.329,4.329,4.329,4.329,4.329,4.329,4.329,4.329,4.329,4.329,4.329,4.329,4.329,4.329,4.329,4.329,4.329,4.329,4.329,4.329,4.329,4.329,4.329,4.329,4.329,4.329,4.329,4.329,4.329,4.329,4.329,4.329,4.329,4.329,4.329,4.329,4.329,4.329,4.3319,4.3319,4.3319,4.329,4.3609,4.3878,4.4147,4.4386,4.4625,4.4796,4.4945,4.5125,4.5274,4.5693,4.6061,4.6052,4.3389,4.366,4.433,4.4601,4.4601,4.4601,4.4973,4.5399,4.4905,4.5007,4.5635,4.6259,4.6955,4.7549,4.809,4.8496,4.8815,4.8984,4.9018,4.9018,4.9018,4.9018,4.9018,4.9018,4.9018,4.9018,4.9018,4.9018,4.8938,4.8051,4.7363,4.7157,4.6845,4.6468,4.6485,4.6839,4.7168,4.7018,4.713,4.7189,4.6681,4.5992,4.4855,4.3967,4.3399,4.3319,4.329,4.329,4.329,4.329,4.329,4.329,4.329,4.329,4.329,4.329,4.329,4.329,4.329,4.329,4.329,4.329,4.329,4.329,4.329,4.329,4.329,4.329,4.329,4.329,4.329,4.329,4.329,4.329,4.329,4.329,4.329,4.329,4.329,4.329,4.329,4.329,4.329,4.329,4.3319,4.3319,4.329,4.329,4.329,4.329,4.329,4.329,4.329,4.329,4.329,4.329,4.329,4.329,4.3319,4.3349,4.3469,4.3818,4.4087,4.4296,4.4586,4.4796,4.5095,4.5394,4.5484,4.5574,4.5903,4.6142,4.6292,4.66,4.677,4.3234,4.4398,4.4533,4.4567,4.4567,4.4567,4.4682,4.477,4.4682,4.4702,4.4905,4.5007,4.5717,4.709,4.8376,4.8815,4.8578,4.8815,4.8984,4.9018,4.8984,4.8984,4.9018,4.9018,4.9018,4.9018,4.9018,4.9003,4.8691,4.7813,4.7245,4.7089,4.6608,4.6177,4.58,4.6352,4.7018,4.6899,4.6988,4.716,4.6501,4.5873,4.5394,4.4586,4.3878,4.3549,4.329,4.329,4.329,4.329,4.329,4.329,4.329,4.329,4.329,4.329,4.329,4.329,4.329,4.329,4.329,4.329,4.329,4.329,4.329,4.329,4.329,4.329,4.329,4.329,4.329,4.329,4.329,4.329,4.329,4.329,4.329,4.329,4.329,4.329,4.329,4.329,4.329,4.3319,4.3369,4.3349,4.3319,4.3349,4.3469,4.3409,4.329,4.329,4.329,4.329,4.329,4.329,4.329,4.329,4.3409,4.3589,4.3997,4.4655,4.4945,4.5065,4.5214,4.5394,4.5723,4.6112,4.6352,4.6501,4.683,4.707,4.707,4.704,4.707]}]]